[[{"header":{"parameterUnit":"m.s-1","parameterCategory":1,"la1":31.0,"la2":29.5877,"lo1":-88.7671,"lo2":-86.6584,"dy":0.0162,"dx":0.0185,"nx":115,"ny":88,"refTime":"2023-10-06T06:00:00:Z","depth":0,"parameterNumber":2,"parameterNumberName":"U-component_of_WINDS"},"data":[0.0,0.0,0.0,0.0,0.0,0.0,0.0,0.0,0.0,0.0,0.0,0.0,0.0,0.0,0.0,0.0,0.0,0.0,0.0,0.0,0.0,0.0,0.0,0.0,0.0,0.0,0.0,0.0,0.0,0.0,0.0,0.0,0.0,0.0,0.0,0.0,0.0,0.0,0.0,0.0,0.0,0.0,0.0,0.0,0.0,0.0,0.0,0.0,0.0,0.0,0.0,0.0,0.0,0.0,0.0,0.0,0.0,0.0,0.0,0.0,0.0,0.0,0.0,0.0,0.0,0.0,0.0,0.0,0.0,0.0,0.0,0.0,0.0,0.0,0.0,0.0,0.0,0.0,0.0,0.0,0.0,0.0,0.0,0.0,0.0,0.0,0.0,0.0,0.0,0.0,0.0,0.0,0.0,0.0,0.0,0.0,0.0,0.0,0.0,0.0,0.0,0.0,0.0,0.0,0.0,0.0,0.0,0.0,0.0,0.0,0.0,0.0,0.0,0.0,0.0,0.0,0.0,0.0,0.0,0.0,0.0,0.0,0.0,0.0,0.0,0.0,0.0,0.0,0.0,0.0,0.0,0.0,0.0,0.0,0.0,0.0,0.0,0.0,0.0,0.0,0.0,0.0,0.0,0.0,0.0,0.0,0.0,0.0,0.0,0.0,0.0,0.0,0.0,0.0,0.0,0.0,0.0,0.0,0.0,0.0,0.0,0.0,0.0,0.0,0.0,0.0,0.0,0.0,0.0,0.0,0.0,0.0,0.0,0.0,0.0,0.0,0.0,0.0,0.0,0.0,0.0,0.0,0.0,0.0,0.0,0.0,0.0,0.0,0.0,0.0,0.0,0.0,0.0,0.0,0.0,0.0,0.0,0.0,0.0,0.0,0.0,0.0,0.0,0.0,0.0,0.0,0.0,0.0,0.0,0.0,0.0,0.0,0.0,0.0,0.0,0.0,0.0,0.0,0.0,0.0,0.0,0.0,0.0,0.0,0.0,0.0,0.0,0.0,0.0,0.0,0.0,0.0,0.0,0.0,0.0,0.0,0.0,0.0,0.0,0.0,0.0,0.0,0.0,0.0,0.0,0.0,0.0,0.0,0.0,0.0,0.0,0.0,0.0,0.0,0.0,0.0,0.0,0.0,0.0,0.0,0.0,0.0,0.0,0.0,0.0,0.0,0.0,0.0,0.0,0.0,0.0,0.0,0.0,0.0,0.0,0.0,0.0,0.0,0.0,0.0,0.0,0.0,0.0,0.0,0.0,0.0,0.0,0.0,0.0,0.0,0.0,0.0,0.0,0.0,0.0,0.0,0.0,0.0,0.0,0.0,0.0,0.0,0.0,0.0,0.0,0.0,0.0,0.0,0.0,0.0,0.0,0.0,0.0,0.0,0.0,0.0,0.0,0.0,0.0,0.0,0.0,0.0,0.0,0.0,0.0,0.0,0.0,0.0,0.0,0.0,0.0,0.0,0.0,0.0,0.0,0.0,0.0,0.0,0.0,0.0,0.0,0.0,0.0,0.0,0.0,0.0,0.0,0.0,0.0,0.0,0.0,0.0,0.0,0.0,0.0,0.0,0.0,0.0,0.0,0.0,0.0,0.0,0.0,0.0,0.0,0.0,0.0,0.0,0.0,0.0,0.0,0.0,0.0,0.0,0.0,0.0,0.0,0.0,0.0,0.0,0.0,0.0,0.0,0.0,0.0,0.0,0.0,0.0,0.0,0.0,0.0,0.0,0.0,0.0,0.0,0.0,0.0,0.0,0.0,0.0,0.0,0.0,0.0,0.0,0.0,0.0,0.0,0.0,0.0,0.0,0.0,0.0,0.0,0.0,0.0,0.0,0.0,0.0,0.0,0.0,0.0,0.0,0.0,0.0,0.0,0.0,0.0,0.0,0.0,0.0,0.0,0.0,0.0,0.0,0.0,0.0,0.0,0.0,0.0,0.0,0.0,0.0,0.0,0.0,0.0,0.0,0.0,0.0,0.0,0.0,0.0,0.0,0.0,0.0,0.0,0.0,0.0,0.0,0.0,0.0,0.0,0.0,0.0,0.0,0.0,0.0,0.0,0.0,0.0,0.0,0.0,0.0,0.0,0.0,0.0,0.0,0.0,0.0,0.0,0.0,0.0,0.0,0.0,0.0,0.0,0.0,0.0,0.0,0.0,0.0,0.0,0.0,0.0,0.0,0.0,0.0,0.0,0.0,0.0,0.0,0.0,0.0,0.0,0.0,0.0,0.0,0.0,0.0,0.0,0.0,0.0,0.0,0.0,0.0,0.0,0.0,0.0,0.0,0.0,0.0,0.0,0.0,0.0,0.0,0.0,0.0,0.0,0.0,0.0,0.0,0.0,0.0,0.0,0.0,0.0,0.0,0.0,0.0,0.0,0.0,0.0,0.0,0.0,0.0,0.0,0.0,0.0,0.0,0.0,0.0,0.0,0.0,0.0,0.0,0.0,0.0,0.0,0.0,0.0,0.0,0.0,0.0,0.0,0.0,0.0,0.0,0.0,0.0,0.0,0.0,0.0,0.0,0.0,0.0,0.0,0.0,0.0,0.0,0.0,0.0,0.0,0.0,0.0,0.0,0.0,0.0,0.0,0.0,0.0,0.0,0.0,0.0,0.0,0.0,0.0,0.0,0.0,0.0,0.0,0.0,0.0,0.0,0.0,0.0,0.0,0.0,0.0,0.0,0.0,0.0,0.0,0.0,0.0,0.0,0.0,0.0,0.0,0.0,0.0,0.0,0.0,0.0,0.0,0.0,0.0,0.0,0.0,0.0,0.0,0.0,0.0,0.0,0.0,0.0,0.0,0.0,0.0,0.0,0.0,0.0,0.0,0.0,0.0,0.0,0.0,0.0,0.0,0.0,0.0,0.0,0.0,0.0,0.0,0.0,0.0,0.0,0.0,0.0,0.0,0.0,0.0,0.0,0.0,0.0,0.0,0.0,0.0,0.0,0.0,0.0,0.0,0.0,0.0,0.0,0.0,0.0,0.0,0.0,0.0,0.0,0.0,0.0,0.0,0.0,0.0,0.0,0.0,0.0,0.0,0.0,0.0,0.0,0.0,0.0,0.0,0.0,0.0,0.0,0.0,0.0,0.0,0.0,0.0,0.0,0.0,0.0,0.0,0.0,0.0,0.0,0.0,0.0,0.0,0.0,0.0,0.0,0.0,0.0,0.0,0.0,0.0,0.0,0.0,0.0,0.0,0.0,0.0,0.0,0.0,0.0,0.0,0.0,0.0,0.0,0.0,0.0,0.0,0.0,0.0,0.0,0.0,0.0,0.0,0.0,0.0,0.0,0.0,0.0,0.0,0.0,0.0,0.0,0.0,0.0,0.0,0.0,0.0,0.0,0.0,0.0,0.0,0.0,0.0,0.0,0.0,0.0,0.0,0.0,0.0,0.0,0.0,0.0,0.0,0.0,0.0,0.0,0.0,0.0,0.0,0.0,0.0,0.0,0.0,0.0,0.0,0.0,0.0,0.0,0.0,0.0,0.0,0.0,0.0,0.0,0.0,0.0,0.0,0.0,0.0,0.0,0.0,0.0,0.0,0.0,0.0,0.0,0.0,0.0,0.0,0.0,0.0,0.0,0.0,0.0,0.0,0.0,0.0,0.0,0.0,0.0,0.0,0.0,0.0,0.0,0.0,0.0,0.0,0.0,0.0,0.0,0.0,0.0,0.0,0.0,0.0,0.0,0.0,0.0,0.0,0.0,0.0,0.0,0.0,0.0,0.0,0.0,0.0,0.0,0.0,0.0,0.0,0.0,0.0,0.0,0.0,0.0,0.0,0.0,0.0,0.0,0.0,0.0,0.0,0.0,0.0,0.0,0.0,0.0,0.0,0.0,0.0,0.0,0.0,0.0,0.0,0.0,0.0,0.0,0.0,0.0,0.0,0.0,0.0,0.0,0.0,0.0,0.0,0.0,0.0,0.0,0.0,0.0,0.0,0.0,0.0,0.0,0.0,0.0,0.0,0.0,0.0,0.0,0.0,0.0,0.0,0.0,0.0,0.0,0.0,0.0,0.0,0.0,0.0,0.0,0.0,0.0,0.0,0.0,0.0,0.0,0.0,0.0,0.0,0.0,0.0,0.0,0.0,0.0,0.0,0.0,0.0,0.0,0.0,0.0,0.0,0.0,0.0,0.0,0.0,0.0,0.0,0.0,0.0,0.0,0.0,0.0,0.0,0.0,0.0,0.0,0.0,0.0,0.0,0.0,0.0,0.0,0.0,0.0,0.0,0.0,0.0,0.0,0.0,0.0,0.0,0.0,0.6218,0.0,0.0,0.0,0.0,0.0,0.0,0.0,0.0,0.0,0.0,0.0,0.0,0.0,0.0,0.0,0.0,0.0,0.0,0.0,0.0,0.0,0.0,0.0,0.0,0.0,0.0,0.0,0.0,0.0,0.0,0.0,0.0,0.0,0.0,0.0,0.0,0.0,0.0,0.0,0.0,0.0,0.0,0.0,0.0,0.0,0.0,0.0,0.0,0.0,0.0,0.0,0.0,0.0,0.0,0.0,0.0,0.0,0.0,0.0,0.0,0.0,0.0,0.0,0.0,0.0,0.0,0.0,0.0,0.0,0.0,0.0,0.0,0.0,0.0,0.0,0.0,0.0,0.0,0.0,0.0,0.0,0.0,0.0,0.0,0.0,0.0,0.0,0.0,0.0,0.0,0.0,0.0,0.0,0.0,0.0,0.0,0.0,0.0,0.0,0.0,0.0,0.0,0.0,0.0,0.0,0.0,0.0,0.0,0.0,0.0,0.7577,0.9121,0.76,0.6776,0.687,0.0,0.0,0.0,0.0,0.0,0.0,0.0,0.0,0.0,0.0,0.0,0.0,0.0,0.0,0.0,0.0,0.0,0.0,0.0,0.0,0.0,0.0,0.0,0.0,0.0,0.0,0.0,0.0,0.0,0.0,0.0,0.0,0.0,0.0,0.0,0.0,0.0,0.0,0.0,0.0,0.0,0.0,0.0,0.0,0.0,0.0,0.0,0.0,0.0,0.0,0.0,0.0,0.0,0.0,0.0,0.0,0.0,0.0,0.0,0.0,0.0,0.0,0.0,0.0,0.0,0.0,0.0,0.0,0.0,0.0,0.0,0.0,0.0,0.0,0.0,0.0,0.0,0.0,0.0,0.0,0.0,0.0,0.0,0.0,0.0,0.0,0.0,0.0,0.0,0.0,0.0,0.0,0.0,0.0,0.0,0.0,0.0,0.0,0.0,0.0,0.0,0.0,0.0,0.0,0.0,0.0,0.0,0.0,0.0,0.0,0.0,0.0,0.8349,0.7552,0.7353,0.0,0.0,0.0,0.0,0.0,0.0,0.0,0.0,0.0,0.0,0.0,0.0,0.0,0.0,0.0,0.0,0.0,0.0,0.0,0.0,0.0,0.0,0.0,0.0,0.0,0.0,0.0,0.0,0.0,0.0,0.0,0.0,0.0,0.0,0.0,0.0,0.0,0.0,0.0,0.0,0.0,0.0,0.0,0.0,0.0,0.0,0.0,0.0,0.0,0.0,0.0,0.0,0.0,0.0,0.0,0.0,0.0,0.0,0.0,0.0,0.0,0.0,0.0,0.0,0.0,0.0,0.0,0.0,0.0,0.0,0.0,0.0,0.0,0.0,0.0,0.0,0.0,0.0,0.0,0.0,0.0,0.0,0.0,0.0,0.0,0.0,0.0,0.0,0.0,0.0,0.0,0.0,0.0,0.0,0.0,0.0,0.0,0.0,0.0,0.0,0.0,0.0,0.0,0.0,0.0,0.0,0.0,0.0,0.0,0.0,0.9109,1.0611,1.0152,0.0,0.744,0.0,0.0,0.0,0.0,0.0,0.0,0.0,0.0,0.0,0.0,0.0,0.0,0.0,0.0,0.0,0.0,0.0,0.0,0.0,0.0,0.0,0.0,0.0,0.0,0.0,0.0,0.0,0.0,0.0,0.0,0.0,0.0,0.0,0.0,0.0,0.0,0.0,0.0,0.0,0.0,0.0,0.0,0.0,0.0,0.0,0.0,0.0,0.0,0.0,0.0,0.0,0.0,0.0,0.0,0.0,0.0,0.0,0.0,0.0,0.0,0.0,0.0,0.0,0.0,0.0,0.0,0.0,0.0,0.0,0.0,0.0,0.0,0.0,0.0,0.0,0.0,0.0,0.0,0.0,0.0,0.0,0.0,0.0,0.0,0.0,0.0,0.0,0.0,0.0,0.0,0.0,0.0,0.0,0.0,0.0,0.0,0.0,0.0,0.0,0.0,0.0,0.0,0.0,0.0,0.0,0.0,0.0,0.0,0.0,0.0,0.9526,1.0013,0.9645,0.8828,0.0,0.0,0.0,0.0,0.0,0.0,0.0,0.0,0.0,0.0,0.0,0.0,0.0,0.0,0.0,0.0,0.0,0.0,0.0,0.0,0.0,0.0,0.0,0.0,0.0,0.0,0.0,0.0,0.0,0.0,0.0,0.0,0.0,0.0,0.0,0.0,0.0,0.0,0.0,0.0,0.0,0.0,0.0,0.0,0.0,0.0,0.0,0.0,0.0,0.0,0.0,0.0,0.0,0.0,0.0,0.0,0.0,0.0,0.0,0.0,0.0,0.0,0.0,0.0,0.0,0.0,0.0,0.0,0.0,0.0,0.0,0.0,0.0,0.0,0.0,0.0,0.0,0.0,0.0,0.0,0.0,0.0,0.0,0.0,0.0,0.0,0.0,0.0,0.0,0.0,0.0,0.0,0.0,0.0,0.0,0.0,0.0,0.0,0.0,0.0,0.0,0.0,0.0,0.0,0.0,0.0,0.0,0.0,0.0,0.0,0.9965,0.9762,0.9714,0.9226,0.8621,0.7917,0.0,0.0,0.0,0.0,0.0,0.0,0.0,0.0,0.0,0.0,0.0,0.0,0.0,0.0,0.0,0.0,0.0,0.0,0.0,0.0,0.0,0.0,0.0,0.0,0.0,0.0,0.0,0.0,0.0,0.0,0.0,0.0,0.0,0.0,0.0,0.0,0.0,0.0,0.0,0.0,0.0,0.0,0.0,0.0,0.0,0.0,0.0,0.0,0.0,0.0,0.0,0.0,0.0,0.0,0.0,0.0,0.0,0.0,0.0,0.0,0.0,0.0,0.0,0.0,0.0,0.0,0.0,0.0,0.0,0.0,0.0,0.0,0.0,0.0,0.0,0.0,0.0,0.0,0.0,0.0,0.0,0.0,0.0,0.0,0.0,0.0,0.0,0.0,0.0,0.0,0.0,0.0,0.0,0.0,0.0,0.0,0.0,0.0,0.0,0.0,0.0,0.0,0.0,0.0,0.0,0.0,0.0,0.0,1.1035,1.0181,0.9919,1.0304,0.9481,0.8885,0.0,0.0,0.0,0.0,0.0,0.0,0.0,0.0,0.0,0.0,0.0,0.0,0.0,0.0,0.0,0.0,0.0,0.0,0.0,0.0,0.0,0.0,0.0,0.0,0.0,0.0,0.0,0.0,0.0,0.0,0.0,0.0,0.0,0.0,0.0,0.0,0.0,0.0,0.0,0.0,0.0,0.0,0.0,0.0,0.0,0.0,0.0,0.0,0.0,0.0,0.0,0.0,0.0,0.0,0.0,0.0,0.0,0.0,0.0,0.0,0.0,0.0,0.0,0.0,0.0,0.0,0.0,0.0,0.0,0.0,0.0,0.0,0.0,0.0,0.0,0.0,0.0,0.0,0.0,0.0,0.0,0.0,0.0,0.0,0.0,0.0,0.0,0.0,0.0,0.0,0.0,0.0,0.0,0.0,0.0,0.0,0.0,0.0,0.0,0.0,0.0,0.0,0.0,0.0,0.0,0.0,0.0,0.0,0.0,1.032,0.9944,0.9743,0.9798,0.9407,0.9088,0.0,0.0,0.0,0.0,0.0,0.0,0.0,0.0,0.0,0.0,0.0,0.0,0.0,0.0,0.0,0.0,0.0,0.0,0.0,0.0,0.0,0.0,0.0,0.0,0.0,0.0,0.0,0.0,0.0,0.0,0.0,0.0,0.0,0.0,0.0,0.0,0.0,0.0,0.0,0.0,0.0,0.0,0.0,0.0,0.0,0.0,0.0,0.0,0.0,0.0,0.0,0.0,0.0,0.0,0.0,0.0,0.0,0.0,0.0,0.0,0.0,0.0,0.0,0.0,0.0,0.0,0.0,0.0,0.0,0.0,0.0,0.0,0.0,0.0,0.0,0.0,0.0,0.0,0.0,0.0,0.0,0.0,0.0,0.0,0.0,0.0,0.0,0.0,0.0,0.0,0.0,0.0,0.0,0.0,0.0,0.0,0.0,0.0,0.0,0.0,0.0,0.0,0.0,0.0,0.0,0.0,0.0,0.0,0.0,0.9837,0.0,0.9609,0.9456,0.9286,0.9122,0.0,0.0,0.0,0.0,0.0,0.0,0.0,0.0,0.0,0.0,0.0,0.0,0.0,0.0,0.0,0.0,0.0,0.0,0.0,0.0,0.0,0.0,0.0,0.0,0.0,0.0,0.0,0.0,0.0,0.0,0.0,0.0,0.0,0.0,0.0,0.0,0.0,0.0,0.0,0.0,0.0,0.0,0.0,0.0,0.0,0.0,0.0,0.0,0.0,0.0,0.0,0.0,0.0,0.0,0.0,0.0,0.0,0.0,0.0,0.0,0.0,0.0,0.0,0.0,0.0,0.0,0.0,0.0,0.0,0.0,0.0,0.0,0.0,0.0,0.0,0.0,0.0,0.0,0.0,0.0,0.0,0.0,0.0,0.0,0.0,0.0,0.0,0.0,0.0,0.0,0.0,0.0,0.0,0.0,0.0,0.0,0.0,0.0,0.0,0.0,0.0,0.0,0.0,0.0,0.0,0.0,0.0,0.0,0.9887,0.9743,0.971,0.9583,0.934,0.9212,0.8998,0.0,0.0,0.0,0.0,0.0,0.0,0.0,0.0,0.0,0.0,0.0,0.0,0.0,0.0,0.0,0.0,0.0,0.0,0.0,0.0,0.0,0.0,0.0,0.0,0.0,0.0,0.0,0.0,0.0,0.0,0.0,0.0,0.0,0.0,0.0,0.0,0.0,0.0,0.0,0.0,0.0,0.0,0.0,0.0,0.0,0.0,0.0,0.0,0.0,0.0,0.0,0.0,0.0,0.0,0.0,0.0,0.0,0.0,0.0,0.0,0.0,0.0,0.0,0.0,0.0,0.0,0.0,0.0,0.0,0.0,0.0,0.0,0.0,0.0,0.0,0.0,0.0,0.0,0.0,0.0,0.0,0.0,0.0,0.0,0.0,0.0,0.0,0.0,0.0,0.0,0.0,0.0,0.0,0.0,0.0,0.0,0.0,0.0,0.0,0.0,0.0,0.0,0.0,0.0,0.0,0.0,0.0,0.0,0.0,1.0527,0.9986,0.9869,1.0219,0.966,0.9462,0.0,0.0,0.0,0.0,0.0,0.0,0.0,0.0,0.0,0.0,0.0,0.0,0.0,0.0,0.0,0.0,0.0,0.0,0.0,0.0,0.0,0.0,0.0,0.0,0.0,0.0,0.0,0.0,0.0,0.0,0.0,0.0,0.0,0.0,0.0,0.0,0.0,0.0,0.0,0.0,0.0,0.0,0.0,0.0,0.0,0.0,0.0,0.0,0.0,0.0,0.0,0.0,0.0,0.0,0.0,0.0,0.0,0.0,0.0,0.0,0.0,0.0,0.0,0.0,0.0,0.0,0.0,0.0,0.0,0.0,0.0,0.0,0.0,0.0,0.0,0.0,0.0,0.0,0.0,0.0,0.0,0.0,0.0,0.0,0.0,0.0,0.0,0.0,0.0,0.0,0.0,0.0,0.0,0.0,0.0,0.0,0.0,0.0,0.0,0.0,0.0,0.0,0.0,0.0,0.0,0.0,0.0,0.0,0.0,1.2715,1.1634,1.1122,1.1219,1.0645,1.0316,1.0245,0.0,0.0,0.0,0.0,0.0,0.0,0.0,0.0,0.0,0.0,0.0,0.0,0.0,0.0,0.0,0.0,0.0,0.0,0.0,0.0,0.0,0.0,0.0,0.0,0.0,0.0,0.0,0.0,0.0,0.0,0.0,0.0,0.0,0.0,0.0,0.0,0.0,0.0,0.0,0.0,0.0,0.0,0.0,0.0,0.0,0.0,0.0,0.0,0.0,0.0,0.0,0.0,0.0,0.0,0.0,0.0,0.0,0.0,0.0,0.0,0.0,0.0,0.0,0.0,0.0,0.0,0.0,0.0,0.0,0.0,0.0,0.0,0.0,0.0,0.0,0.0,0.0,0.0,0.0,0.0,0.0,0.0,0.0,0.0,0.0,0.0,0.0,0.0,0.0,0.0,0.0,0.0,0.0,0.0,0.0,0.0,0.0,0.0,0.0,0.0,0.0,0.0,0.0,0.0,0.0,0.0,0.0,0.0,1.596,1.4577,1.3397,1.2418,1.2103,1.1462,0.0,0.0,0.0,0.0,0.0,0.0,0.0,0.0,0.0,0.0,0.0,0.0,0.0,0.0,0.0,0.0,0.0,0.0,0.0,0.0,0.0,0.0,0.0,0.0,0.0,0.0,0.0,0.0,0.0,0.0,0.0,0.0,0.0,0.0,0.0,0.0,0.0,0.0,0.0,0.0,0.0,0.0,0.0,0.0,0.0,0.0,0.0,0.0,0.0,0.0,0.0,0.0,0.0,0.0,0.0,0.0,0.0,0.0,0.0,0.0,0.0,0.0,0.0,0.0,0.0,0.0,0.0,0.0,0.0,0.0,0.0,0.0,0.0,0.0,0.0,0.0,0.0,0.0,0.0,0.0,0.0,0.0,0.0,0.0,0.0,0.0,0.0,0.0,0.0,0.0,0.0,0.0,0.0,0.0,0.0,0.0,0.0,0.0,0.0,0.0,0.0,0.0,0.0,0.0,0.0,0.0,0.0,0.0,0.0,1.7979,1.8715,1.7969,1.563,1.3712,1.2745,0.0,0.0,0.0,0.0,0.0,0.0,0.0,0.0,0.0,0.0,0.0,0.0,0.0,0.0,0.0,0.0,0.0,0.0,0.0,0.0,0.0,0.0,0.0,0.0,0.0,0.0,0.0,0.0,0.0,0.0,0.0,0.0,0.0,0.0,0.0,0.0,0.0,0.0,0.0,0.0,0.0,0.0,0.0,0.0,0.0,0.0,0.0,0.0,0.0,0.0,0.0,0.0,0.0,0.0,0.0,0.0,0.0,0.0,0.0,0.0,0.0,0.0,0.0,0.0,0.0,0.0,0.0,0.0,0.0,0.0,0.0,0.0,0.0,0.0,0.0,0.0,0.0,0.0,0.0,0.0,0.0,0.0,0.0,0.0,0.0,0.0,0.0,0.0,0.0,0.0,0.0,0.0,0.0,0.0,0.0,0.0,0.0,0.0,0.0,0.0,0.0,0.0,0.0,0.0,0.0,0.0,0.0,0.0,1.8343,1.9216,2.1114,2.1274,1.9593,1.6397,1.457,0.0,0.0,0.0,0.0,0.0,0.0,0.0,0.0,0.0,0.0,0.0,0.0,0.0,0.0,0.0,0.0,0.0,0.0,0.0,0.0,0.0,0.0,0.0,0.0,0.0,0.0,0.0,0.0,0.0,0.0,0.0,0.0,0.0,0.0,0.0,0.0,0.0,0.0,0.0,0.0,0.0,0.0,0.0,0.0,0.0,0.0,0.0,0.0,0.0,0.0,0.0,0.0,0.0,0.0,0.0,0.0,0.0,0.0,0.0,0.0,0.0,0.0,0.0,0.0,0.0,0.0,0.0,0.0,0.0,0.0,0.0,0.0,0.0,0.0,0.0,0.0,0.0,0.0,0.0,0.0,0.0,0.0,0.0,0.0,0.0,0.0,0.0,0.0,0.0,0.0,0.0,0.0,0.0,0.0,0.0,0.0,0.0,0.0,0.0,0.0,0.0,0.0,0.0,0.0,0.0,0.0,0.0,0.0,1.9266,1.9948,2.2375,2.3573,2.33,1.9323,1.6543,0.0,0.0,0.0,0.0,0.0,0.0,0.0,0.0,0.0,0.0,0.0,0.0,0.0,0.0,0.0,0.0,0.0,0.0,0.0,0.0,0.0,0.0,0.0,0.0,0.0,0.0,0.0,0.0,0.0,0.0,0.0,0.0,0.0,0.0,0.0,0.0,0.0,0.0,0.0,0.0,0.0,0.0,0.0,0.0,0.0,0.0,0.0,0.0,0.0,0.0,0.0,0.0,0.0,0.0,0.0,0.0,0.0,0.0,0.0,0.0,0.0,0.0,0.0,0.0,0.0,0.0,0.0,0.0,0.0,0.0,0.0,0.0,0.0,0.0,0.0,0.0,0.0,0.0,0.0,0.0,0.0,0.0,0.0,0.0,0.0,0.0,0.0,0.0,0.0,0.0,0.0,0.0,0.0,0.0,0.0,0.0,0.0,0.0,0.0,0.0,0.0,0.0,0.0,0.0,0.0,0.0,0.0,0.0,2.012,2.0918,2.3372,2.4539,2.4232,1.9994,1.7442,0.0,0.0,0.0,0.0,0.0,0.0,0.0,0.0,0.0,0.0,0.0,0.0,0.0,0.0,0.0,0.0,0.0,0.0,0.0,0.0,0.0,0.0,0.0,0.0,0.0,0.0,0.0,0.0,0.0,0.0,0.0,0.0,0.0,0.0,0.0,0.0,0.0,0.0,0.0,0.0,0.0,0.0,0.0,0.0,0.0,0.0,0.0,0.0,1.7209,0.0,0.0,0.0,0.0,0.0,0.0,0.0,0.0,0.0,0.0,0.0,0.0,0.0,0.0,0.0,0.0,0.0,0.0,0.0,0.0,0.0,0.0,0.0,0.0,0.0,0.0,0.0,0.0,0.0,0.0,0.0,0.0,0.0,0.0,0.0,0.0,0.0,0.0,0.0,0.0,0.0,0.0,0.0,0.0,0.0,0.0,0.0,0.0,0.0,0.0,0.0,0.0,0.0,0.0,0.0,0.0,0.0,0.0,0.0,2.0448,2.1756,2.3731,2.4678,2.4381,2.0991,1.871,0.0,0.0,0.0,0.0,0.0,0.0,0.0,0.0,0.0,0.0,0.0,0.0,0.0,0.0,0.0,0.0,0.0,0.0,0.0,0.0,0.0,0.0,0.0,0.0,0.0,0.0,0.0,0.0,0.0,0.0,0.0,0.0,0.0,0.0,0.0,0.0,0.0,0.0,0.0,0.0,0.0,0.0,0.0,0.0,0.0,0.0,0.0,0.0,0.0,0.0,0.0,0.0,0.0,0.0,0.0,0.0,0.0,0.0,0.0,0.0,0.0,0.0,0.0,0.0,0.0,0.0,0.0,0.0,0.0,0.0,0.0,0.0,0.0,0.0,0.0,0.0,0.0,0.0,0.0,0.0,0.0,0.0,0.0,0.0,0.0,0.0,0.0,0.0,0.0,0.0,0.0,0.0,0.0,0.0,0.0,0.0,0.0,0.0,0.0,0.0,0.0,0.0,0.0,0.0,0.0,0.0,0.0,1.8967,2.0571,2.2508,2.3817,2.4478,2.4407,2.1818,1.9847,1.8608,0.0,0.0,0.0,0.0,0.0,0.0,0.0,0.0,0.0,0.0,0.0,0.0,0.0,0.0,0.0,0.0,0.0,0.0,0.0,0.0,0.0,0.0,0.0,0.0,0.0,0.0,0.0,0.0,0.0,0.0,0.0,0.0,0.0,0.0,0.0,0.0,0.0,0.0,1.6779,1.772,0.0,0.0,0.0,0.0,0.0,0.0,0.0,0.0,1.8236,0.0,0.0,0.0,0.0,0.0,0.0,0.0,0.0,0.0,0.0,0.0,0.0,0.0,0.0,0.0,0.0,0.0,0.0,0.0,0.0,0.0,0.0,0.0,0.0,0.0,0.0,0.0,0.0,0.0,0.0,0.0,0.0,0.0,0.0,0.0,0.0,0.0,0.0,0.0,0.0,0.0,0.0,0.0,0.0,0.0,0.0,0.0,0.0,0.0,0.0,0.0,0.0,0.0,0.0,0.0,0.0,1.8628,1.9345,2.0859,2.3248,2.4086,2.4409,2.4192,2.1751,1.9829,1.8609,0.0,0.0,0.0,0.0,0.0,0.0,0.0,0.0,0.0,0.0,0.0,0.0,0.0,0.0,0.0,0.0,0.0,0.0,0.0,0.0,0.0,0.0,0.0,0.0,0.0,0.0,0.0,0.0,0.0,0.0,0.0,0.0,0.0,0.0,0.0,0.0,0.0,0.0,0.0,1.8513,1.9089,0.0,0.0,0.0,0.0,0.0,0.0,0.0,0.0,1.9495,0.0,0.0,0.0,0.0,0.0,0.0,0.0,0.0,0.0,0.0,0.0,0.0,0.0,0.0,0.0,0.0,0.0,0.0,0.0,0.0,0.0,0.0,0.0,0.0,0.0,0.0,0.0,0.0,0.0,0.0,0.0,0.0,0.0,0.0,0.0,0.0,0.0,0.0,0.0,0.0,0.0,0.0,0.0,0.0,0.0,0.0,0.0,0.0,0.0,0.0,0.0,0.0,0.0,0.0,0.0,1.9345,2.01,2.1638,2.4058,2.4379,2.4204,2.3566,2.1443,1.974,0.0,0.0,0.0,0.0,0.0,0.0,0.0,0.0,0.0,0.0,0.0,0.0,0.0,0.0,0.0,0.0,0.0,0.0,0.0,0.0,0.0,0.0,0.0,0.0,0.0,0.0,0.0,0.0,0.0,0.0,0.0,0.0,0.0,0.0,0.0,0.0,0.0,0.0,0.0,0.0,1.9041,1.9837,1.9904,0.0,0.0,0.0,0.0,0.0,0.0,1.9738,1.9807,0.0,0.0,0.0,0.0,0.0,0.0,0.0,0.0,0.0,0.0,0.0,0.0,0.0,0.0,0.0,0.0,0.0,0.0,0.0,0.0,0.0,0.0,0.0,0.0,0.0,0.0,0.0,0.0,0.0,0.0,0.0,0.0,0.0,0.0,0.0,0.0,0.0,0.0,0.0,0.0,0.0,0.0,0.0,0.0,0.0,0.0,0.0,0.0,0.0,0.0,0.0,0.0,0.0,0.0,0.0,1.9924,2.0721,2.2306,2.4657,2.4617,2.4014,2.2997,2.1133,1.9572,0.0,0.0,0.0,0.0,0.0,0.0,0.0,0.0,0.0,0.0,0.0,0.0,0.0,0.0,0.0,0.0,0.0,0.0,0.0,0.0,0.0,0.0,0.0,0.0,0.0,0.0,0.0,0.0,0.0,0.0,0.0,0.0,0.0,0.0,0.0,0.0,0.0,0.0,0.0,0.0,0.0,2.0494,2.0506,2.0471,0.0,0.0,0.0,0.0,1.9881,2.0192,0.0,0.0,0.0,0.0,0.0,0.0,0.0,0.0,0.0,0.0,0.0,0.0,0.0,0.0,0.0,0.0,0.0,0.0,0.0,0.0,0.0,0.0,0.0,0.0,0.0,0.0,0.0,0.0,0.0,0.0,0.0,0.0,0.0,0.0,0.0,0.0,0.0,0.0,0.0,0.0,0.0,0.0,0.0,0.0,0.0,0.0,0.0,0.0,0.0,0.0,0.0,0.0,0.0,0.0,0.0,0.0,1.9914,2.0721,2.2306,2.4639,2.4598,2.4016,2.3015,2.1004,1.948,0.0,0.0,0.0,0.0,0.0,0.0,0.0,0.0,0.0,0.0,0.0,0.0,0.0,0.0,0.0,0.0,0.0,0.0,0.0,0.0,0.0,0.0,0.0,0.0,0.0,0.0,0.0,0.0,0.0,0.0,0.0,0.0,0.0,0.0,0.0,0.0,0.0,0.0,0.0,0.0,0.0,2.0677,2.0523,2.0333,2.0463,0.0,0.0,2.1476,2.2014,2.2034,0.0,0.0,0.0,0.0,0.0,0.0,0.0,0.0,0.0,0.0,0.0,0.0,0.0,0.0,0.0,0.0,0.0,0.0,0.0,0.0,0.0,0.0,0.0,0.0,0.0,0.0,0.0,0.0,0.0,0.0,0.0,0.0,0.0,0.0,0.0,0.0,0.0,0.0,0.0,0.0,0.0,0.0,0.0,0.0,0.0,0.0,0.0,0.0,0.0,0.0,0.0,0.0,0.0,0.0,0.0,1.8108,2.0617,2.1479,2.2817,2.471,2.4618,2.3814,2.2354,2.0789,1.945,0.0,0.0,0.0,0.0,0.0,0.0,0.0,0.0,0.0,0.0,0.0,0.0,0.0,0.0,0.0,0.0,0.0,0.0,0.0,0.0,0.0,0.0,0.0,0.0,0.0,0.0,0.0,0.0,0.0,0.0,0.0,0.0,0.0,0.0,0.0,0.0,0.0,0.0,0.0,0.0,0.0,0.0,2.1094,2.1407,0.0,0.0,0.0,2.3311,2.2747,0.0,0.0,0.0,0.0,0.0,0.0,0.0,0.0,0.0,0.0,0.0,0.0,0.0,0.0,0.0,0.0,0.0,0.0,0.0,0.0,0.0,0.0,0.0,0.0,0.0,0.0,0.0,0.0,0.0,0.0,0.0,0.0,0.0,0.0,0.0,0.0,0.0,0.0,0.0,0.0,0.0,0.0,0.0,0.0,0.0,0.0,0.0,0.0,0.0,0.0,0.0,0.0,0.0,0.0,0.0,0.0,0.0,2.1104,2.2261,2.3465,2.4743,2.4609,2.3742,2.2151,2.1062,0.0,0.0,0.0,0.0,0.0,0.0,0.0,0.0,0.0,0.0,0.0,0.0,0.0,0.0,0.0,0.0,0.0,0.0,0.0,0.0,0.0,0.0,0.0,0.0,0.0,0.0,0.0,1.4828,0.0,0.0,0.0,0.0,0.0,0.0,0.0,0.0,0.0,0.0,0.0,0.0,0.0,0.0,2.1807,2.2173,2.2682,2.3192,0.0,0.0,2.4483,2.3555,2.4699,2.5052,0.0,0.0,0.0,0.0,0.0,0.0,0.0,0.0,0.0,0.0,0.0,0.0,0.0,0.0,0.0,0.0,0.0,0.0,0.0,0.0,0.0,0.0,0.0,0.0,0.0,0.0,0.0,0.0,0.0,0.0,0.0,0.0,0.0,0.0,0.0,0.0,0.0,0.0,0.0,0.0,0.0,0.0,0.0,0.0,0.0,0.0,0.0,0.0,0.0,0.0,0.0,0.0,0.0,0.0,1.9414,2.1003,2.2804,2.4044,2.4762,2.4602,2.3993,2.296,2.2247,2.1132,0.0,0.0,0.0,0.0,0.0,0.0,0.0,0.0,0.0,0.0,0.0,0.0,0.0,0.0,0.0,0.0,0.0,0.0,0.0,0.0,0.0,0.0,0.0,0.0,0.0,0.0,0.0,0.0,0.0,0.0,0.0,0.0,0.0,0.0,0.0,0.0,0.0,0.0,0.0,0.0,0.0,2.3818,2.3929,2.3926,2.4452,0.0,2.4962,2.4306,2.4944,2.5865,2.5761,2.3524,0.0,0.0,0.0,0.0,0.0,0.0,0.0,0.0,0.0,0.0,0.0,0.0,0.0,0.0,0.0,0.0,0.0,0.0,0.0,0.0,0.0,0.0,0.0,0.0,0.0,0.0,0.0,0.0,0.0,0.0,0.0,0.0,0.0,0.0,0.0,0.0,0.0,0.0,0.0,0.0,0.0,0.0,0.0,0.0,0.0,0.0,0.0,0.0,0.0,0.0,0.0,0.0,0.0,2.021,2.173,2.2969,2.3933,2.4567,2.4417,2.3899,2.3015,2.2482,2.1388,0.0,0.0,0.0,0.0,0.0,0.0,0.0,0.0,0.0,0.0,0.0,0.0,0.0,0.0,0.0,0.0,0.0,0.0,0.0,0.0,0.0,0.0,0.0,0.0,0.0,0.0,0.0,0.0,1.7394,1.7927,1.7913,0.0,0.0,0.0,0.0,0.0,0.0,0.0,0.0,0.0,0.0,2.4988,2.4862,2.5205,0.0,0.0,2.6757,2.6695,2.5976,2.7131,2.725,2.4882,2.3412,0.0,0.0,0.0,0.0,0.0,0.0,0.0,0.0,0.0,0.0,0.0,0.0,0.0,0.0,0.0,0.0,0.0,0.0,0.0,0.0,0.0,0.0,0.0,0.0,0.0,0.0,0.0,0.0,0.0,0.0,0.0,0.0,0.0,0.0,0.0,0.0,0.0,0.0,0.0,0.0,0.0,0.0,0.0,0.0,0.0,0.0,0.0,0.0,0.0,0.0,0.0,0.0,2.0896,2.2192,2.3309,2.4125,2.4591,2.4339,2.3933,2.3364,2.2851,2.1859,0.0,0.0,0.0,0.0,0.0,0.0,0.0,0.0,0.0,0.0,0.0,0.0,0.0,0.0,0.0,0.0,0.0,0.0,0.0,0.0,0.0,0.0,0.0,0.0,0.0,0.0,0.0,0.0,1.8419,1.9032,1.9274,0.0,0.0,0.0,0.0,0.0,0.0,0.0,0.0,0.0,0.0,2.6069,2.5683,2.6042,2.6362,2.6322,2.7022,2.7151,2.594,2.71,2.7359,2.4974,0.0,0.0,0.0,0.0,0.0,0.0,0.0,0.0,0.0,0.0,0.0,0.0,0.0,0.0,0.0,0.0,0.0,0.0,0.0,0.0,0.0,0.0,0.0,0.0,0.0,0.0,0.0,1.7553,0.0,0.0,1.7476,0.0,0.0,0.0,0.0,0.0,0.0,0.0,0.0,0.0,0.0,0.0,0.0,0.0,0.0,0.0,0.0,0.0,0.0,0.0,0.0,0.0,0.0,2.145,2.219,2.387,2.4748,2.476,2.441,2.419,2.4153,2.3526,2.2782,2.1905,0.0,0.0,0.0,0.0,0.0,0.0,0.0,0.0,0.0,0.0,0.0,0.0,0.0,0.0,0.0,0.0,0.0,0.0,0.0,0.0,0.0,0.0,0.0,0.0,0.0,0.0,1.7188,1.766,1.8467,0.0,0.0,0.0,0.0,0.0,0.0,0.0,0.0,0.0,2.3832,2.5944,2.7098,2.6358,2.6281,2.6232,2.6003,2.5333,2.4754,2.4562,2.5548,2.5559,0.0,0.0,0.0,0.0,0.0,0.0,0.0,0.0,0.0,0.0,0.0,0.0,0.0,0.0,0.0,0.0,0.0,0.0,0.0,0.0,0.0,0.0,0.0,0.0,0.0,0.0,0.0,1.8339,1.8608,0.0,0.0,0.0,0.0,0.0,0.0,0.0,0.0,0.0,0.0,0.0,2.1875,2.219,0.0,0.0,0.0,0.0,0.0,0.0,0.0,0.0,0.0,0.0,0.0,0.0,2.1918,2.2009,2.3814,2.4679,2.441,2.4266,2.419,2.4208,2.3544,2.2621,2.143,0.0,0.0,0.0,0.0,0.0,0.0,0.0,0.0,0.0,0.0,0.0,0.0,0.0,0.0,0.0,0.0,0.0,0.0,0.0,0.0,0.0,0.0,0.0,0.0,0.0,1.98,0.0,0.0,0.0,0.0,0.0,0.0,0.0,0.0,0.0,0.0,0.0,2.3095,2.4535,2.535,2.5928,2.6254,2.6309,2.6472,0.0,0.0,0.0,0.0,0.0,0.0,0.0,0.0,0.0,0.0,0.0,0.0,0.0,0.0,2.4005,2.3395,2.2888,2.2864,2.391,0.0,0.0,0.0,0.0,0.0,0.0,0.0,0.0,0.0,0.0,0.0,0.0,0.0,0.0,1.9884,0.0,1.9881,0.0,0.0,0.0,0.0,0.0,0.0,0.0,0.0,2.1702,2.2402,2.316,2.3198,2.3189,0.0,2.2892,2.2163,0.0,0.0,0.0,0.0,0.0,0.0,0.0,0.0,2.22,2.1999,2.3825,2.4639,2.4303,2.4228,2.419,2.419,2.3544,2.2713,2.1693,2.0786,2.0075,0.0,0.0,0.0,0.0,0.0,0.0,0.0,0.0,0.0,0.0,0.0,0.0,0.0,0.0,0.0,0.0,0.0,0.0,0.0,0.0,0.0,0.0,0.0,2.0531,0.0,0.0,0.0,0.0,0.0,0.0,0.0,0.0,0.0,2.2371,2.2786,2.3656,2.5336,2.5292,2.5266,2.5787,0.0,0.0,0.0,0.0,0.0,0.0,0.0,2.4611,2.4654,2.6339,2.754,2.7335,2.7081,2.6854,2.6766,0.0,0.0,2.4163,2.3699,2.3907,2.5055,2.5647,2.6152,2.6723,2.6922,2.7049,0.0,0.0,0.0,0.0,0.0,0.0,0.0,0.0,2.21,2.1756,0.0,2.166,0.0,0.0,0.0,0.0,2.1627,2.2393,0.0,0.0,2.4514,2.4889,2.4169,2.4169,2.413,2.4072,2.3343,2.2911,2.2834,2.2685,0.0,0.0,0.0,0.0,0.0,0.0,2.2319,2.2219,2.3921,2.47,2.4495,2.4303,2.419,2.4152,2.3526,2.3028,2.266,2.1667,2.1103,2.1053,1.9605,0.0,0.0,0.0,0.0,0.0,0.0,0.0,0.0,0.0,0.0,0.0,0.0,0.0,0.0,0.0,0.0,0.0,0.0,0.0,0.0,2.0473,0.0,0.0,0.0,0.0,0.0,0.0,0.0,0.0,0.0,0.0,2.3762,2.3912,2.4481,2.6111,0.0,0.0,0.0,0.0,2.4667,2.3655,2.3831,2.412,2.4005,2.335,2.3412,2.5062,0.0,0.0,2.8765,2.8696,2.8753,2.8496,2.8557,2.8048,2.5684,2.4882,2.5038,2.6668,2.7743,2.8412,2.8616,2.8659,2.8659,2.582,0.0,0.0,0.0,0.0,2.4049,2.5148,2.6497,2.6217,2.5745,2.5168,2.4505,0.0,0.0,0.0,0.0,0.0,0.0,2.4303,2.5484,2.5994,2.6427,2.6764,2.6794,2.6783,2.6764,2.6533,2.6091,2.5505,2.5446,2.3979,2.1145,0.0,0.0,0.0,0.0,2.2577,2.3004,2.4185,2.4623,2.4303,2.4228,2.4098,2.3858,2.3432,2.3045,2.2703,2.2204,2.1697,2.113,2.0719,0.0,0.0,0.0,0.0,0.0,0.0,0.0,0.0,0.0,0.0,0.0,0.0,0.0,0.0,0.0,0.0,0.0,0.0,0.0,2.0455,2.0949,2.1115,0.0,0.0,0.0,0.0,0.0,0.0,0.0,0.0,0.0,2.5157,2.4512,2.4129,0.0,0.0,2.5075,2.565,2.5709,2.6021,2.6903,2.6691,0.0,2.8029,2.6001,2.5057,2.7338,2.892,2.9851,2.9847,3.053,3.0791,2.9799,2.9263,2.8712,2.8099,2.7759,2.8001,2.9016,2.9484,2.978,3.0098,3.017,3.006,3.0536,2.6935,2.5551,2.5409,2.6198,2.7017,2.8172,2.9473,2.9421,2.8917,2.8099,2.7225,2.5869,2.4255,2.389,0.0,0.0,0.0,2.6444,2.8118,2.8118,2.8387,2.8852,2.8544,2.8371,2.8371,2.8074,2.7631,2.7122,2.6726,2.5452,2.3247,0.0,0.0,2.1656,2.2483,2.3205,2.3827,2.4698,2.4996,2.4686,2.4355,2.4098,2.3895,2.3581,2.3253,2.2923,2.2634,2.2194,2.1596,2.1346,2.0771,0.0,0.0,0.0,0.0,0.0,0.0,0.0,0.0,0.0,0.0,0.0,1.937,1.885,0.0,0.0,0.0,2.0836,2.1314,2.1844,2.1972,0.0,0.0,0.0,0.0,0.0,0.0,0.0,2.3032,2.2671,2.3087,2.5081,2.5,2.5037,2.5909,2.5651,2.5667,2.6483,0.0,2.7115,2.8456,2.8406,2.8546,2.9377,2.8163,2.7652,2.9402,3.0141,3.069,3.115,3.1585,3.1549,3.0785,3.0007,2.9609,2.9886,3.0107,3.022,3.0386,3.0718,3.1038,3.1404,3.1446,3.1403,3.5266,3.3328,3.0235,2.9183,2.9663,3.0471,3.1306,3.2083,3.2102,3.1571,3.0655,2.9794,2.8437,2.679,2.603,0.0,2.8119,2.8115,2.9002,3.059,3.0602,3.059,3.0552,2.9775,2.939,2.939,2.8582,2.8179,2.8082,2.7185,2.6645,2.6442,2.4894,2.3665,2.2885,2.3486,2.4119,2.4738,2.5368,2.5597,2.5404,2.4686,2.4263,2.419,2.3858,2.3544,2.3236,2.2898,2.2573,2.2332,2.1678,2.1288,2.1281,0.0,0.0,0.0,0.0,0.0,0.0,0.0,0.0,0.0,0.0,0.0,0.0,0.0,0.0,0.0,2.2407,0.0,2.3943,2.3356,0.0,0.0,0.0,2.3302,2.4109,2.4218,2.4237,2.4162,0.0,0.0,2.4281,2.5484,2.6736,2.7698,2.7031,2.6745,2.7487,2.7645,2.7949,2.8674,2.9232,2.9454,2.9183,2.9594,3.0237,3.0912,3.1439,3.1636,3.1968,3.1505,3.1164,3.1188,3.0751,3.049,3.1232,3.1591,3.1786,3.0889,3.1567,3.2297,3.2378,3.2393,3.2343,3.886,3.7097,3.6235,3.4773,3.3115,3.393,3.4737,3.5507,3.5526,3.468,3.3256,3.2372,3.1068,2.9454,2.9275,2.9771,3.0765,3.077,3.1321,3.2275,3.2314,3.2295,3.2295,3.2083,3.2006,3.1948,3.1179,3.0467,2.9794,2.8898,2.7773,2.6467,2.6006,2.5375,2.4541,2.4669,2.5101,2.5806,2.5796,2.5669,2.5409,2.5202,2.4814,2.4208,2.3876,2.3671,2.3566,2.3021,2.2686,2.2599,2.2228,2.2038,2.2021,2.1317,0.0,0.0,0.0,0.0,0.0,0.0,0.0,0.0,0.0,2.1096,2.0495,0.0,2.2046,0.0,2.3719,2.4551,2.411,2.444,0.0,0.0,2.4746,2.4926,2.5731,2.6209,2.6319,2.5794,2.6285,2.6709,2.6727,2.7059,2.7652,2.853,2.7807,2.7471,2.8258,2.8471,2.8666,2.9215,2.9971,3.0366,3.011,3.0317,3.0751,3.1138,3.0662,3.0299,3.0614,2.9723,2.9244,3.0153,3.0276,3.0413,3.1099,3.1362,3.1345,3.123,3.2327,3.3196,3.2648,3.2484,3.2316,4.089,3.955,3.9442,3.8531,3.7156,3.718,3.743,3.7853,3.7853,3.7334,3.6372,3.5122,3.3878,3.2656,3.2261,3.2571,3.3346,3.2994,3.3449,3.4564,3.4237,3.4237,3.4545,3.3814,3.3468,3.3449,3.2641,3.1795,3.0999,3.0864,3.01,2.8798,2.9123,2.8842,2.7905,2.5945,2.5291,2.5997,2.6149,2.6282,2.6431,2.577,2.5161,2.4663,2.4119,2.3753,2.358,2.32,2.2908,2.2669,2.2508,2.2426,2.2412,2.198,2.1793,0.0,0.0,0.0,0.0,0.0,0.0,0.0,0.0,0.0,0.0,0.0,2.371,2.4215,2.5199,2.5649,2.515,2.5518,2.592,2.6286,2.6304,2.6633,2.7478,2.7848,2.7903,2.7543,2.7803,2.8059,2.821,2.8228,2.8398,2.892,2.8498,2.8408,2.918,2.9398,2.9613,3.0214,3.0932,3.1565,3.1797,3.13,3.0991,3.1082,3.0463,2.977,2.933,2.8564,2.8395,2.9364,2.9316,2.9434,3.0446,3.0857,3.1096,3.1645,3.2433,3.2809,3.2109,3.1932,3.1714,4.2012,4.1172,4.105,4.0992,4.0908,3.9914,3.949,3.9469,3.945,3.9392,3.9215,3.7603,3.6496,3.5804,3.5033,3.5103,3.5743,3.5026,3.5468,3.6796,3.6142,3.6122,3.6622,3.5218,3.4468,3.4314,3.3487,3.2711,3.2069,3.2634,3.2494,3.1744,3.2385,3.2244,3.1191,2.7376,2.5565,2.594,2.6692,2.7264,2.7611,2.6143,2.5267,2.4999,2.4342,2.3813,2.3486,2.3417,2.3182,2.2738,2.2659,2.275,2.2937,2.2705,2.2767,0.0,2.2997,0.0,0.0,0.0,0.0,0.0,0.0,0.0,0.0,2.486,2.5655,2.637,2.6578,2.6633,2.6575,2.6662,2.7053,2.7775,2.7867,2.8164,2.8902,2.8975,2.8975,2.8975,2.8975,2.8975,2.8957,2.8975,2.8975,2.8975,2.8957,2.9159,2.9843,2.994,3.0142,3.0956,3.1309,3.1384,3.2277,3.1584,3.0654,3.0666,3.0142,2.9482,2.8569,2.806,2.8093,2.889,2.8735,2.8735,3.0006,3.0565,3.1044,3.1774,3.2127,3.2127,3.16,3.1428,3.1269,4.293,4.2129,4.207,4.2011,4.1932,4.0942,4.0471,4.0427,4.0331,3.9927,3.9311,3.8354,3.7824,3.7674,3.742,3.7373,3.7526,3.7353,3.745,3.7757,3.7603,3.7238,3.6699,3.6392,3.5892,3.5238,3.4372,3.3859,3.3711,3.3167,3.243,3.1544,3.1692,3.1254,3.0318,0.0,0.0,0.0,2.8296,2.833,2.6713,2.5681,2.4808,2.4091,2.391,0.0,2.371,2.3531,2.3348,2.3253,2.3003,0.0,0.0,0.0,0.0,0.0,0.0,0.0,0.0,0.0,0.0,0.0,2.5428,2.5443,2.5651,2.5968,2.6242,2.6469,2.7076,2.7482,2.7545,2.8127,2.8567,2.8737,2.8755,2.8828,2.8975,2.8975,2.8975,2.8975,2.8975,2.8975,2.8975,2.8975,2.8975,2.8975,2.8975,2.9072,2.9219,2.9274,2.9161,2.9011,2.887,2.8771,2.973,2.9124,2.8755,2.8636,2.8501,2.845,2.8687,2.8262,2.8345,2.9529,2.9774,2.9888,3.0796,3.1048,3.1147,3.1334,3.1428,3.1524,3.1841,3.177,3.1603,4.3828,4.3027,4.2968,4.2719,0.0,4.1704,4.1225,4.0831,4.0716,4.0641,4.0655,4.0269,4.0042,3.9971,3.9446,3.9027,3.8608,3.8219,3.8238,3.8604,3.818,3.7988,3.7969,3.7565,3.7142,3.6719,3.6295,3.5647,3.4883,3.5224,3.4768,3.3494,3.3868,3.3815,3.3317,3.2948,3.1461,2.8837,2.9739,2.9771,2.8864,2.7665,2.6794,2.6279,2.5485,0.0,0.0,0.0,0.0,0.0,0.0,0.0,0.0,2.4878,0.0,2.5817,2.5317,2.5109,2.5471,2.602,2.6522,2.6941,2.7339,2.7341,2.6918,2.7378,2.7702,2.7743,2.8127,2.8347,2.8411,2.8755,2.8975,2.8975,2.8975,2.8975,2.8975,2.8975,2.8975,2.8975,2.8975,2.8975,2.8975,2.8975,2.8975,2.8975,2.8975,2.8975,2.8975,2.8975,2.8905,2.8743,2.8639,2.832,2.7947,2.8061,2.7807,2.7621,2.7977,2.8399,2.8552,2.8482,2.8769,2.9833,3.0099,3.0314,3.0999,3.119,3.119,3.119,3.119,3.1269,3.16,3.1582,3.1449,4.459,4.3926,4.3867,4.3465,4.282,4.2507,4.2044,4.147,0.0,0.0,0.0,4.2252,4.2105,4.1793,4.1062,4.0296,3.9492,3.8777,3.8815,3.945,3.8777,3.8738,3.9258,3.8565,3.8161,3.8007,3.8007,3.7296,3.6045,3.7334,3.7305,3.6108,3.6594,3.6873,3.668,3.6045,3.4331,3.1616,3.1144,3.1022,3.1102,2.9563,2.8677,2.8549,2.7141,2.6358,2.6304,2.6304,2.6199,2.5985,2.5979,2.6045,2.6179,2.5773,2.5628,2.5882,2.5794,2.595,2.6452,2.7147,2.7912,2.8659,2.9016,2.8847,2.7995,2.8608,2.8975,2.8975,2.8975,2.8975,2.8975,2.8975,2.8975,2.8975,2.8975,2.8975,2.8975,2.8975,2.8975,2.8975,2.8975,2.8975,2.8975,2.8975,2.8975,2.8975,2.8975,2.8975,2.8975,2.8975,2.8994,2.8983,2.8971,2.8688,2.7476,2.7368,2.7554,2.6962,2.7875,2.8569,2.8366,2.8704,2.9397,2.9973,3.0192,3.0565,3.1055,3.119,3.119,3.119,3.119,3.119,3.119,3.119,3.119,4.4922,4.4824,4.4805,4.4738,4.4595,4.3801,4.3416,4.3248,4.2433,4.2514,4.3208,4.3198,4.2725,4.1963,4.1726,4.1162,4.0354,4.0219,4.0219,4.0315,4.02,3.9835,3.9296,3.9161,3.8719,3.8046,3.8007,3.7892,3.77,3.7892,3.7862,3.7698,3.7766,3.745,3.6757,3.6603,3.5739,3.4165,3.2712,3.14,3.0216,2.856,2.7697,2.7643,2.6827,2.6327,2.6304,2.6322,2.6263,2.6263,2.624,2.6576,2.73,2.7022,2.7049,2.75,2.7552,2.7414,2.7222,2.7824,2.8728,2.982,3.0002,2.9714,2.892,2.892,2.8975,2.8994,2.9012,2.8975,2.8975,2.8975,2.8975,2.8975,2.8975,2.8975,2.8975,2.8975,2.8975,2.8975,2.8975,2.8975,2.8975,2.8975,2.8975,2.8975,2.8975,2.8975,2.8975,2.8975,2.8975,2.8905,2.8513,2.801,2.7465,2.704,2.6911,2.6742,2.7435,2.8061,2.7908,2.8941,2.9786,3.0074,3.0514,3.0954,3.1173,3.119,3.119,3.119,3.119,3.119,3.119,3.1173,3.1157,4.5703,4.5703,4.5723,4.5426,4.4933,4.4079,4.3981,4.436,4.3955,4.3879,4.4073,4.411,4.3784,4.3248,4.3184,4.2431,4.1219,4.17,4.1662,4.1219,4.12,4.1008,4.0642,4.0181,3.9719,3.9373,3.9354,3.9123,3.8781,3.9142,3.9146,3.8731,3.8704,3.8277,3.7469,3.7411,3.7044,3.6236,3.4471,3.3066,3.2067,3.0881,3.0064,2.9635,2.8832,2.8218,2.778,2.7757,2.7757,2.778,2.7775,2.7967,2.832,2.8015,2.7906,2.8162,2.8576,2.8737,2.8568,2.9493,3.0264,3.0815,3.0852,3.0687,3.0338,2.9898,2.9659,2.9641,2.9269,2.8975,2.8975,2.8975,2.8975,2.8975,2.8975,2.8975,2.8975,2.8975,2.8975,2.8975,2.8975,2.8975,2.8975,2.8975,2.8975,2.8975,2.8975,2.8975,2.8975,2.8975,2.8975,2.8952,2.87,2.8246,2.7619,2.7051,2.6758,2.6708,2.7334,2.7722,2.784,2.8822,2.955,3.0023,3.0429,3.0734,3.1072,3.119,3.119,3.119,3.119,3.119,3.1173,3.0903,3.0768,4.6289,4.6289,4.6289,4.5918,4.5254,4.457,4.4687,4.5273,4.5293,4.5191,4.5025,4.4993,4.4741,4.432,4.4316,4.347,4.2335,4.2777,4.272,4.2143,4.2104,4.2104,4.2027,4.1373,4.1085,4.1085,4.1085,4.0662,4.005,4.0681,4.0777,4.0223,4.0162,3.9623,3.8565,3.8565,3.8262,3.7562,3.6122,3.4993,3.4181,3.3224,3.2348,3.1685,3.0876,3.0099,2.9347,2.9274,2.92,2.9012,2.9159,2.9292,2.9274,2.9168,2.9039,2.9046,2.9635,2.9997,3.0059,3.0874,3.1476,3.1659,3.1659,3.1659,3.1604,3.0944,3.0375,3.0155,2.9452,2.8975,2.8975,2.8975,2.8975,2.8975,2.8975,2.8975,2.8975,2.8975,2.9085,2.9195,2.9127,2.9049,2.9177,2.9085,2.8975,2.8975,2.8975,2.8975,2.8975,2.8975,2.8975,2.8975,2.8905,2.8507,2.7707,2.7083,2.6758,2.6708,2.7334,2.7621,2.7774,2.8281,2.9093,2.9702,3.0006,3.0429,3.1021,3.1021,3.1021,3.1089,3.1038,3.0886,3.0852,3.0717,3.0412,4.6289,4.6289,4.6289,4.6269,4.6133,4.6055,4.6055,4.6152,4.6172,4.6088,4.5918,4.5838,4.5201,4.4395,4.4335,4.3816,4.3011,4.3063,4.3063,4.2989,4.2989,4.2989,4.297,4.2854,4.2854,4.2797,4.2758,4.2294,4.1578,4.2351,4.2777,4.2758,4.2758,4.1854,4.045,4.0258,3.941,3.7677,3.7412,3.6682,3.5362,3.3777,3.2808,3.2507,3.1703,3.0907,3.0155,3.0081,2.9769,2.9122,2.9732,3.0087,3.0139,3.0705,3.0968,3.0693,3.1004,3.1249,3.1268,3.1329,3.177,3.2394,3.2485,3.2504,3.2467,3.1751,3.0962,3.0338,2.9512,2.9012,2.8994,2.8994,2.8975,2.8975,2.8975,2.8975,2.9049,2.8975,2.9274,3.0026,2.9507,2.925,2.9806,2.9439,2.8994,2.8975,2.8975,2.8975,2.8975,2.8975,2.8975,2.8929,2.8633,2.8219,2.7823,2.721,2.6825,2.6775,2.73,2.7435,2.7351,2.7943,2.9008,2.9025,2.9567,3.0159,3.0598,3.0734,3.0446,3.0683,3.0548,3.0209,3.0294,3.0531,3.0615,4.6289,4.6289,4.6289,4.6289,4.6289,4.6289,4.6289,4.6289,4.6289,4.6207,4.6093,4.5959,4.5631,4.5201,4.5105,4.4586,4.3893,4.4352,4.4295,4.3855,4.3797,4.3816,4.3758,4.3297,4.3085,4.3085,4.3085,4.2912,4.2698,4.2934,4.309,4.3085,4.3085,4.272,4.2027,4.1527,4.0861,4.0087,3.9109,3.823,3.736,3.5525,3.3953,3.2919,3.2373,3.1733,3.0999,3.0907,3.0742,3.0467,3.0742,3.0913,3.0901,3.1225,3.1334,3.1224,3.1766,3.232,3.2797,3.2816,3.2944,3.3293,3.3311,3.3311,3.3293,3.2577,3.1898,3.1292,2.9953,2.9159,2.9604,2.9287,2.8975,2.8975,2.8975,2.92,2.9659,2.9714,3.0026,3.0705,3.0228,2.9806,3.0008,2.9512,2.903,2.8975,2.8975,2.8975,2.8975,2.8975,2.8975,2.8929,2.854,2.8166,2.7908,2.753,2.7083,2.6842,2.6945,2.6945,2.6979,2.7063,2.7723,2.823,2.8738,2.9245,2.9685,2.9719,2.9567,2.9837,2.9837,2.955,3.0006,2.9973,2.982,4.6289,4.6289,4.6289,4.6289,4.6289,4.6289,4.6289,4.6289,4.6289,4.625,4.6133,4.5969,4.5859,4.5811,4.568,4.524,4.4797,4.5316,4.5278,4.4701,4.4662,4.4662,4.4586,4.4085,4.3797,4.3778,4.3816,4.3797,4.3758,4.3513,4.3551,4.3739,4.3778,4.3662,4.3374,4.2758,4.2374,4.2047,4.07,3.9772,3.9143,3.7444,3.5552,3.3869,3.3482,3.2863,3.1788,3.1733,3.1604,3.1403,3.1604,3.174,3.1746,3.1923,3.2067,3.21,3.2609,3.3183,3.377,3.3807,3.3807,3.3807,3.3807,3.3697,3.344,3.2944,3.2559,3.221,3.0705,2.9989,3.032,3.0008,2.9696,2.9677,2.9635,2.9916,3.0448,3.054,3.0834,3.1494,3.0779,3.0099,2.9892,2.9562,2.9324,2.9062,2.9012,2.8975,2.8975,2.8975,2.8975,2.8975,2.8658,2.8316,2.7936,2.7439,2.7147,2.7004,2.6909,2.6826,2.6774,2.6825,2.6962,2.7875,2.7994,2.8349,2.9042,2.9042,2.867,2.8738,2.8924,2.9211,2.9617,2.9533,2.9786,4.6289,4.6289,4.6289,4.6289,4.6289,4.6289,4.6289,4.6289,4.6289,4.6289,4.625,4.6027,4.5898,4.5873,4.5699,4.5566,4.5528,4.5566,4.5547,4.5451,4.547,4.5509,4.5547,4.5509,4.5432,4.5259,4.524,4.5297,4.5297,4.4645,4.4664,4.5393,4.5336,4.5028,4.4355,4.4105,4.3758,4.2912,4.1989,4.1204,4.038,3.9275,3.7619,3.567,3.5323,3.4389,3.2849,3.2559,3.2228,3.1458,3.2155,3.2529,3.2631,3.3235,3.3605,3.3615,3.3697,3.3733,3.3788,3.3807,3.3807,3.3807,3.3807,3.3495,3.2963,3.2771,3.2706,3.2596,3.1861,3.1347,3.1384,3.1164,3.1091,3.1109,3.1201,3.1219,3.1329,3.1347,3.1715,3.2137,3.1237,3.0186,2.9362,2.974,2.9593,2.9203,2.8983,2.8975,2.8975,2.8975,2.8975,2.8975,2.8887,2.87,2.7992,2.7619,2.7224,2.7115,2.7115,2.6873,2.6971,2.7122,2.7301,2.7486,2.7621,2.7977,2.8535,2.8518,2.8027,2.8146,2.8856,2.9245,2.9279,3.0328,3.0615,4.6289,4.6289,4.6289,4.6289,4.6289,4.6289,4.6289,4.6289,4.6289,4.6289,4.6269,4.6105,4.5987,4.5892,4.5776,4.568,4.5586,4.5586,4.5586,4.5586,4.5586,4.5586,4.5586,4.5586,4.5586,4.5586,4.5586,4.5586,4.5566,4.5278,4.5278,4.5528,4.5586,4.5413,4.5086,4.4566,4.3912,4.3104,4.2239,4.1373,4.0623,4.0117,3.9181,3.7695,3.6212,3.5187,3.4464,3.3755,3.3238,3.2926,3.322,3.3348,3.3419,3.365,3.3807,3.3807,3.3807,3.3807,3.3807,3.3807,3.3807,3.3807,3.3807,3.3697,3.344,3.3366,3.3366,3.3293,3.3146,3.2944,3.2724,3.2045,3.1403,3.1403,3.1421,3.1659,3.2027,3.2173,3.2485,3.2926,3.1971,3.0858,3.0404,2.9908,2.9342,2.908,2.9012,2.8994,2.8975,2.8975,2.8975,2.8952,2.8773,2.854,2.8316,2.8039,2.7816,2.7678,2.7577,2.7348,2.7348,2.7019,2.708,2.7114,2.725,2.73,2.774,2.7672,2.7232,2.7351,2.8129,2.8789,2.8873,2.9837,3.0362,4.6289,4.6289,4.6289,4.6289,4.6289,4.6289,4.6289,4.6289,4.6289,4.6289,4.6289,4.6171,4.6036,4.5902,4.5844,4.5738,4.5586,4.5586,4.5586,4.5586,4.5586,4.5586,4.5586,4.5586,4.5586,4.5586,4.5586,4.5586,4.5586,4.5586,4.5586,4.5586,4.5586,4.5586,4.547,4.4989,4.4412,4.3816,4.3047,4.22,4.1431,4.1062,4.0457,3.9313,3.7583,3.6205,3.5557,3.4644,3.4045,3.3862,3.3807,3.3807,3.3807,3.3807,3.3807,3.3807,3.3807,3.3807,3.3807,3.3807,3.3807,3.3807,3.3807,3.3807,3.3807,3.3807,3.3807,3.3807,3.3807,3.3807,3.3605,3.2797,3.2173,3.2173,3.2173,3.2375,3.2908,3.2999,3.3091,3.3183,3.2742,3.1985,3.1201,3.0362,2.9861,2.9562,2.925,2.8994,2.8975,2.8975,2.8975,2.8975,2.8797,2.8682,2.859,2.8515,2.8272,2.8129,2.7926,2.7765,2.7601,2.7192,2.6905,2.6872,2.6791,2.6725,2.6708,2.6708,2.6708,2.6708,2.7368,2.8197,2.8619,2.9245,2.9803,4.6289,4.6289,4.6289,4.6289,4.6289,4.6289,4.6289,4.6289,4.6289,4.6289,4.6269,4.6172,4.6054,4.591,4.5843,4.5738,4.5605,4.5586,4.5586,4.5586,4.5586,4.5586,4.5586,4.5586,4.5586,4.5586,4.5586,4.5586,4.5586,4.5586,4.5586,4.5586,4.5586,4.5586,4.5586,4.549,4.547,4.5105,4.441,4.3737,4.3085,4.2136,4.1293,4.0473,3.9333,3.7775,3.5754,3.5225,3.4587,3.3899,3.3807,3.3807,3.3807,3.3807,3.3807,3.3807,3.3807,3.3807,3.3807,3.3807,3.3807,3.3807,3.3807,3.3807,3.3807,3.3807,3.3807,3.3807,3.3807,3.3807,3.3807,3.366,3.3568,3.3752,3.3532,3.3568,3.3678,3.3752,3.3476,3.2944,3.3018,3.2755,3.1396,3.0796,3.0699,3.0308,2.9617,2.8975,2.8975,2.8975,2.8975,2.8975,2.891,2.8863,2.891,2.8952,2.8707,2.8489,2.8237,2.8047,2.8002,2.773,2.7344,2.722,2.6824,2.6725,2.6708,2.6708,2.6708,2.681,2.7351,2.774,2.8332,2.8924,2.9465,4.6289,4.6289,4.6289,4.6289,4.6289,4.6289,4.6289,4.6289,4.6289,4.6289,4.6289,4.625,4.6128,4.5948,4.5892,4.5776,4.5605,4.5586,4.5586,4.5586,4.5586,4.5586,4.5586,4.5586,4.5586,4.5586,4.5586,4.5586,4.5586,4.5586,4.5586,4.5586,4.5586,4.5586,4.5586,4.5566,4.5355,4.472,4.4468,4.3891,4.3104,4.2252,4.1674,4.1316,4.0319,3.8991,3.7551,3.6112,3.4888,3.3889,3.3807,3.3807,3.3807,3.3807,3.3807,3.3807,3.3807,3.3807,3.3807,3.3807,3.3807,3.3807,3.3807,3.3807,3.3807,3.3807,3.3807,3.3807,3.3807,3.3807,3.3807,3.3807,3.3807,3.3807,3.3807,3.3807,3.3807,3.3807,3.344,3.2797,3.2834,3.2515,3.1806,3.1336,3.076,3.0613,2.9751,2.9127,2.9012,2.9067,2.8975,2.8975,2.8975,2.8994,2.8975,2.8975,2.8887,2.8749,2.8583,2.8386,2.8342,2.8192,2.7798,2.7374,2.697,2.6758,2.6725,2.6708,2.6708,2.6708,2.6979,2.7452,2.801,2.8518,2.8991,4.6289,4.6289,4.6289,4.6289,4.6289,4.6289,4.6289,4.6289,4.6289,4.6289,4.6289,4.6289,4.6182,4.6014,4.593,4.5796,4.568,4.5624,4.5586,4.5586,4.5586,4.5586,4.5586,4.5586,4.5586,4.5586,4.5586,4.5586,4.5586,4.5586,4.5586,4.5586,4.5586,4.5586,4.5586,4.5566,4.5278,4.4836,4.4795,4.4372,4.3547,4.2701,4.2124,4.172,4.0796,3.9658,3.842,3.6919,3.5546,3.4447,3.399,3.3825,3.3807,3.3807,3.3807,3.3807,3.3807,3.3807,3.3807,3.3807,3.3807,3.3807,3.3807,3.3807,3.3807,3.3807,3.3807,3.3807,3.3807,3.3807,3.3807,3.3807,3.3807,3.3807,3.3807,3.3807,3.3807,3.3807,3.3642,3.3201,3.3109,3.2952,3.261,3.1887,3.1017,3.0876,3.032,2.9677,2.9586,2.9494,2.9439,2.931,2.914,2.9104,2.8994,2.8975,2.8975,2.8952,2.8887,2.8773,2.87,2.842,2.8094,2.7435,2.6954,2.6758,2.6708,2.6708,2.6708,2.6708,2.6759,2.7402,2.7994,2.7977,2.8383,4.6289,4.6289,4.6289,4.6289,4.6289,4.6289,4.6289,4.6289,4.6289,4.6289,4.6289,4.6289,4.6211,4.6094,4.5977,4.5866,4.5776,4.5699,4.5605,4.5586,4.5586,4.5586,4.5586,4.5586,4.5586,4.5586,4.5586,4.5586,4.5586,4.5586,4.5586,4.5586,4.5586,4.5586,4.5586,4.5586,4.5566,4.547,4.5509,4.5105,4.4335,4.3455,4.2708,4.1931,4.0989,3.9867,3.8672,3.7472,3.6296,3.5009,3.4119,3.3807,3.3807,3.3807,3.3807,3.3807,3.3807,3.3807,3.3807,3.3807,3.3807,3.3807,3.3807,3.3807,3.3807,3.3807,3.3807,3.3807,3.3807,3.3807,3.3807,3.3807,3.3807,3.3807,3.3807,3.3807,3.3807,3.3807,3.3733,3.3752,3.3788,3.3752,3.3605,3.2908,3.2192,3.1659,3.1329,3.0797,3.0411,3.0191,3.0173,2.9879,2.9439,2.9104,2.8975,2.8975,2.8975,2.8975,2.8975,2.8952,2.8815,2.8515,2.8139,2.7482,2.7019,2.6825,2.6708,2.6708,2.6708,2.6708,2.7012,2.7571,2.7858,2.7943,2.8264,4.6289,4.6289,4.6289,4.6289,4.6289,4.6289,4.6289,4.6289,4.6289,4.6289,4.6289,4.6289,4.623,4.6113,4.6055,4.5948,4.5827,4.5757,4.568,4.5605,4.5586,4.5586,4.5586,4.5586,4.5586,4.5586,4.5586,4.5586,4.5586,4.5586,4.5586,4.5586,4.5586,4.5586,4.5586,4.5586,4.5586,4.5586,4.5586,4.5509,4.5086,4.3803,4.3015,4.2701,4.1316,4.0155,3.9169,3.7511,3.5761,3.4301,3.3954,3.3807,3.3807,3.3807,3.3807,3.3807,3.3807,3.3807,3.3807,3.3807,3.3807,3.3807,3.3807,3.3807,3.3807,3.3807,3.3807,3.3807,3.3807,3.3807,3.3807,3.3807,3.3807,3.3807,3.3807,3.3807,3.3807,3.3807,3.3807,3.3807,3.3807,3.3807,3.366,3.3183,3.2559,3.2228,3.1861,3.1439,3.1127,3.0723,3.0613,3.0081,2.9622,2.9237,2.8975,2.8975,2.8975,2.8975,2.8975,2.8975,2.8767,2.8456,2.7964,2.7378,2.7083,2.6858,2.6758,2.6708,2.6708,2.6708,2.7232,2.7757,2.8027,2.8197,2.8602,4.6289,4.6289,4.6289,4.6289,4.6289,4.6289,4.6289,4.6289,4.6289,4.6289,4.6289,4.6289,4.6269,4.6191,4.6074,4.5957,4.5835,4.5764,4.568,4.5605,4.5586,4.5586,4.5586,4.5586,4.5586,4.5586,4.5586,4.5586,4.5586,4.5586,4.5586,4.5586,4.5586,4.5586,4.5586,4.5586,4.5586,4.5586,4.5586,4.5586,4.547,4.4301,4.3475,4.297,4.17,4.0535,3.9097,3.741,3.5652,3.4246,3.3807,3.3807,3.3807,3.3807,3.3807,3.3807,3.3807,3.3807,3.3807,3.3807,3.3807,3.3807,3.3807,3.3807,3.3807,3.3807,3.3807,3.3807,3.3807,3.3807,3.3807,3.3807,3.3807,3.3807,3.3807,3.3807,3.3807,3.3807,3.3807,3.3807,3.3807,3.3807,3.3807,3.3366,3.2999,3.2724,3.2632,3.2284,3.1971,3.1458,3.1091,3.0779,3.0118,2.9677,2.9329,2.9237,2.9012,2.8975,2.9237,2.9182,2.8919,2.859,2.7984,2.7507,2.7192,2.6906,2.6791,2.6708,2.6708,2.6894,2.7435,2.796,2.8315,2.8772,2.9144,4.6289,4.6289,4.6289,4.6289,4.6289,4.6289,4.6289,4.6289,4.6289,4.6289,4.6289,4.6289,4.6289,4.6289,4.6055,4.5928,4.5899,4.5735,4.564,4.5605,4.5586,4.5586,4.5586,4.5586,4.5586,4.5586,4.5586,4.5586,4.5586,4.5586,4.5586,4.5586,4.5586,4.5586,4.5586,4.5586,4.5586,4.5586,4.5586,4.5586,4.5393,4.4511,4.3628,4.3028,4.1843,4.0366,3.8748,3.7261,3.5836,3.4027,3.3862,3.3807,3.3807,3.3807,3.3807,3.3807,3.3807,3.3807,3.3807,3.3807,3.3807,3.3807,3.3807,3.3807,3.3807,3.3807,3.3807,3.3807,3.3807,3.3807,3.3807,3.3807,3.3807,3.3807,3.3807,3.3807,3.3807,3.3807,3.3807,3.3807,3.3807,3.3807,3.3807,3.3752,3.3532,3.3146,3.3109,3.3036,3.2724,3.2284,3.2118,3.21,3.1237,3.0173,2.9824,2.9512,2.92,2.9012,2.942,2.9489,2.9326,2.8891,2.8201,2.7659,2.7192,2.6891,2.6758,2.6708,2.6742,2.7182,2.7774,2.8366,2.8907,2.9431,2.9871,4.6289,4.6289,4.6289,4.6289,4.6289,4.6289,4.6289,4.6289,4.6289,4.6289,4.6289,4.6289,4.6289,4.6289,4.6102,4.6003,4.5896,4.5789,4.5719,4.5586,4.5586,4.5586,4.5605,4.5624,4.5586,4.5586,4.5586,4.5586,4.5586,4.5586,4.5586,4.5586,4.5586,4.5586,4.5586,4.5586,4.5586,4.5586,4.5586,4.5586,4.5336,4.4301,4.3455,4.2972,4.147,3.989,3.8534,3.7304,3.6077,3.4981,3.4211,3.3899,3.3825,3.3807,3.3807,3.3807,3.3807,3.3807,3.3807,3.3807,3.3807,3.3807,3.3807,3.3807,3.3807,3.3807,3.3807,3.3807,3.3807,3.3807,3.3807,3.3807,3.3807,3.3807,3.3807,3.3807,3.3807,3.3807,3.3807,3.3807,3.3807,3.3807,3.3807,3.3807,3.3678,3.355,3.3587,3.3678,3.3403,3.3018,3.2926,3.2852,3.1854,3.0754,3.0228,2.9843,2.9457,2.942,2.9787,3.0039,2.9856,2.9256,2.8592,2.7835,2.7117,2.6909,2.6911,2.6877,2.6945,2.752,2.8163,2.8856,2.9516,3.0057,3.0429,4.6289,4.6289,4.6289,4.6289,4.6289,4.6289,4.6289,4.6289,4.6289,4.6289,4.6289,4.6289,4.6289,4.6289,4.6154,4.6025,4.5892,4.5776,4.5893,4.6009,4.5874,4.5817,4.6047,4.5797,4.5586,4.5586,4.5586,4.5586,4.5586,4.5586,4.5586,4.5586,4.5586,4.5586,4.5586,4.5586,4.5586,4.5586,4.5586,4.5586,4.5374,4.4799,4.3703,4.2929,4.1315,3.9834,3.9003,3.8051,3.6901,3.5772,3.4816,3.4156,3.3862,3.3807,3.3807,3.3807,3.3807,3.3807,3.3807,3.3807,3.3807,3.3807,3.3807,3.3807,3.3807,3.3807,3.3807,3.3807,3.3807,3.3807,3.3807,3.3807,3.3807,3.3807,3.3807,3.3807,3.3807,3.3807,3.3807,3.3807,3.3807,3.3807,3.3807,3.3807,3.3788,3.3678,3.3678,3.3752,3.377,3.3421,3.3366,3.3046,3.2159,3.1334,3.0699,3.021,2.9732,2.9916,3.0375,3.0611,3.0656,2.9853,2.8995,2.832,2.7681,2.7316,2.725,2.7216,2.7486,2.8213,2.8924,2.9533,3.004,3.0446,3.0751,4.6289,4.6289,4.6289,4.6289,4.6289,4.6289,4.6289,4.6289,4.6289,4.6289,4.6289,4.6289,4.6289,4.6269,4.6161,4.6028,4.5911,4.597,4.622,4.6278,4.6105,4.6105,4.6278,4.5893,4.5586,4.5586,4.5586,4.5586,4.5586,4.5586,4.5586,4.5586,4.5586,4.5586,4.5586,4.5586,4.5586,4.5586,4.5586,4.5586,4.5509,4.5259,4.4314,4.2768,4.1354,4.025,3.9556,3.8712,3.7778,3.662,3.5689,3.4835,3.4192,3.3825,3.3807,3.3807,3.3807,3.3807,3.3807,3.3807,3.3807,3.3807,3.3807,3.3807,3.3807,3.3807,3.3807,3.3807,3.3807,3.3807,3.3807,3.3807,3.3807,3.3807,3.3807,3.3807,3.3807,3.3807,3.3807,3.3807,3.3807,3.3807,3.3807,3.3807,3.3807,3.3807,3.3807,3.3807,3.3807,3.3788,3.366,3.3395,3.2554,3.1034,3.0277,3.0613,3.0136,3.0595,3.1054,3.1198,3.1329,3.07,2.9867,2.9088,2.8511,2.8082,2.7861,2.7978,2.8383,2.9096,2.9516,2.9973,3.0395,3.0784,3.1004,4.6289,4.6289,4.6289,4.6289,4.6289,4.6289,4.6289,4.6289,4.6289,4.6289,4.6289,4.6289,4.6289,4.6269,4.6164,4.5996,4.5979,4.6163,4.6297,4.6201,4.6201,4.6432,4.6028,4.5797,4.5605,4.5586,4.5586,4.5586,4.5586,4.5586,4.5586,4.5586,4.5586,4.5586,4.5586,4.5586,4.5586,4.5586,4.5586,4.5586,4.547,4.4913,4.3932,4.2383,4.1232,4.0456,3.987,3.8996,3.816,3.7594,3.6639,3.5707,3.4917,3.4284,3.399,3.3807,3.3807,3.3807,3.3807,3.3807,3.3807,3.3807,3.3807,3.3807,3.3807,3.3807,3.3807,3.3807,3.3807,3.3807,3.3807,3.3807,3.3807,3.3807,3.3807,3.3807,3.3807,3.3807,3.3807,3.3807,3.3807,3.3807,3.3807,3.3807,3.3807,3.3807,3.3807,3.3807,3.3807,3.3807,3.377,3.345,3.3012,3.1261,2.9635,3.0375,3.0705,3.1366,3.1774,3.1864,3.1852,3.1517,3.0853,2.9964,2.9265,2.8765,2.8689,2.8772,2.9194,2.9786,3.0091,3.0345,3.0683,3.1021,3.1055,4.6289,4.6289,4.6289,4.6289,4.6289,4.6289,4.6289,4.6289,4.6289,4.6289,4.6289,4.6289,4.6289,4.6289,4.6242,4.6084,4.6015,4.6028,4.622,4.624,4.624,4.6374,4.6067,4.5836,4.5624,4.5586,4.5586,4.5586,4.5586,4.5586,4.5586,4.5586,4.5586,4.5586,4.5586,4.5586,4.5586,4.5586,4.5586,4.5586,4.5509,4.4741,4.3621,4.2598,4.1566,4.0764,3.9844,3.9448,3.8571,3.7794,3.7208,3.6497,3.5836,3.5275,3.4688,3.4064,3.3862,3.3807,3.3807,3.3807,3.3807,3.3807,3.3825,3.3807,3.3807,3.3807,3.3844,3.3807,3.3807,3.3807,3.3807,3.3807,3.3807,3.3807,3.3807,3.3807,3.3807,3.3807,3.3807,3.3807,3.3807,3.3807,3.3807,3.3807,3.3807,3.3807,3.3807,3.3807,3.3807,3.3807,3.3807,3.3542,3.3221,3.2415,3.0901,3.1146,3.1586,3.2173,3.2389,3.2475,3.2331,3.1983,3.1462,3.0724,3.0088,2.9417,2.9465,2.9567,3.004,3.0429,3.0632,3.0818,3.1021,3.119,3.119,4.6289,4.6289,4.6289,4.6289,4.6289,4.6289,4.6289,4.6289,4.6289,4.6289,4.6289,4.6289,4.6289,4.6289,4.6222,4.6104,4.5909,4.5855,4.622,4.6297,4.622,4.6278,4.6259,4.6047,4.5586,4.5586,4.5586,4.5586,4.5586,4.5586,4.5586,4.5586,4.5586,4.5586,4.5586,4.5586,4.5586,4.5586,4.5586,4.5586,4.5393,4.4739,4.4025,4.3269,4.2351,4.1204,4.0363,3.9728,3.907,3.8339,3.7819,3.7379,3.6699,3.6534,3.5826,3.4587,3.4165,3.399,3.3807,3.3807,3.3807,3.3807,3.399,3.4064,3.41,3.4156,3.4027,3.3862,3.3807,3.3807,3.3807,3.3807,3.3807,3.3807,3.3807,3.3807,3.3807,3.3807,3.3807,3.3807,3.3807,3.3807,3.3807,3.3807,3.3807,3.3807,3.3807,3.3807,3.3807,3.3807,3.377,3.3605,3.3421,3.3348,3.2724,3.2467,3.2779,3.3091,3.3048,3.2921,3.2703,3.2409,3.1776,3.1141,3.0611,3.0023,3.0176,3.0328,3.0598,3.0852,3.1089,3.119,3.119,3.119,3.119,4.6289,4.6289,4.6289,4.6289,4.6289,4.6289,4.6289,4.6289,4.6289,4.6289,4.6289,4.6289,4.6289,4.625,4.6066,4.5949,4.6031,4.6278,4.622,4.599,4.6259,4.6182,4.5874,4.5701,4.5586,4.5586,4.5586,4.5586,4.5586,4.5586,4.5586,4.5586,4.5586,4.5586,4.5586,4.5586,4.5586,4.5586,4.5586,4.5586,4.547,4.4778,4.4355,4.3742,4.2742,4.1692,4.1112,4.0262,3.9392,3.9233,3.8728,3.8175,3.7534,3.7356,3.6881,3.6065,3.5326,3.455,3.4045,3.3844,3.3917,3.4064,3.4431,3.478,3.489,3.4853,3.4633,3.3844,3.3917,3.4045,3.4137,3.3954,3.3862,3.3899,3.399,3.3899,3.3844,3.3807,3.3807,3.3807,3.3807,3.3807,3.3807,3.3807,3.3807,3.3807,3.3807,3.3807,3.3807,3.3807,3.3807,3.3678,3.3623,3.355,3.3495,3.3385,3.3458,3.377,3.3478,3.3174,3.276,3.2384,3.195,3.1336,3.0819,3.0615,3.0717,3.0869,3.1055,3.1241,3.1444,3.136,3.1207,3.1241,3.1495,4.6289,4.6289,4.6289,4.6289,4.6289,4.6289,4.6289,4.6289,4.6289,4.6289,4.6289,4.6289,4.6269,4.6152,4.5988,4.5891,4.5883,4.6086,4.599,4.5682,4.5951,4.5951,4.5701,4.5586,4.5586,4.5586,4.5586,4.5586,4.5586,4.5586,4.5586,4.5586,4.5586,4.5586,4.5586,4.5586,4.5586,4.5586,4.5586,4.5586,4.5509,4.5201,4.4797,4.4301,4.3126,4.2288,4.1418,4.0338,3.9524,3.9308,3.8902,3.8597,3.8261,3.8126,3.7802,3.7004,3.6179,3.5357,3.4633,3.41,3.4082,3.4431,3.4871,3.5183,3.5569,3.5716,3.5642,3.5293,3.522,3.5165,3.5147,3.522,3.489,3.4706,3.4504,3.4211,3.4082,3.3844,3.3807,3.3807,3.3825,3.3862,3.3862,3.3807,3.3807,3.3807,3.3807,3.3807,3.3807,3.3807,3.3807,3.3788,3.377,3.3752,3.3733,3.3678,3.3623,3.3734,3.3447,3.3087,3.2642,3.2213,3.1823,3.1524,3.1121,3.1038,3.119,3.1207,3.1207,3.1478,3.1799,3.1901,3.2019,3.2374,3.2544,4.6289,4.6289,4.6289,4.6289,4.6289,4.6289,4.6289,4.6289,4.6289,4.6289,4.6289,4.6289,4.623,4.6094,4.5967,4.5852,4.5794,4.5661,4.5605,4.5586,4.5586,4.5624,4.5586,4.5586,4.5586,4.5586,4.5586,4.5586,4.5586,4.5586,4.5586,4.5586,4.5586,4.5586,4.5586,4.5586,4.5586,4.5586,4.5586,4.5586,4.5566,4.5566,4.5201,4.4549,4.3665,4.2691,4.1724,4.0397,3.9618,3.9282,3.899,3.8778,3.8628,3.853,3.8365,3.7717,3.7044,3.6376,3.5477,3.4798,3.4449,3.4835,3.5595,3.6193,3.6798,3.6798,3.6523,3.6358,3.6156,3.6174,3.6266,3.6193,3.5881,3.5514,3.533,3.4908,3.4596,3.4614,3.4449,3.4339,3.4284,3.4009,3.3972,3.3862,3.3807,3.3807,3.3807,3.3807,3.3807,3.3807,3.3807,3.3807,3.3807,3.3807,3.3807,3.3807,3.3807,3.368,3.3408,3.3045,3.2583,3.2144,3.1696,3.1449,3.123,3.119,3.119,3.1258,3.1326,3.1495,3.1816,3.2645,3.3051,3.3389,3.3423,4.6289,4.6289,4.6289,4.6289,4.6289,4.6289,4.6289,4.6289,4.6289,4.6289,4.6289,4.6289,4.6211,4.6074,4.5949,4.5861,4.5776,4.5661,4.5605,4.5586,4.5586,4.5586,4.5586,4.5586,4.5586,4.5586,4.5586,4.5586,4.5586,4.5586,4.5586,4.5586,4.5586,4.5586,4.5586,4.5586,4.5586,4.5586,4.5586,4.5586,4.5586,4.5586,4.5509,4.5124,4.4028,4.3011,4.2859,4.1055,3.9901,3.9576,3.9205,3.895,3.8787,3.8726,3.853,3.8291,3.7679,3.7129,3.6578,3.533,3.4559,3.522,3.6303,3.7422,3.7973,3.7679,3.7367,3.7147,3.6945,3.6652,3.6505,3.6303,3.6541,3.6292,3.6146,3.5917,3.5697,3.5716,3.5514,3.5092,3.4761,3.4486,3.4156,3.4045,3.3825,3.3807,3.3807,3.3807,3.3807,3.3807,3.3807,3.3807,3.3807,3.3807,3.3807,3.3807,3.3807,3.3625,3.3332,3.2983,3.2601,3.2127,3.1545,3.1372,3.119,3.119,3.1241,3.1427,3.1529,3.1461,3.1918,3.3068,3.3761,3.4066,3.3947,4.6289,4.6289,4.6289,4.6289,4.6289,4.6289,4.6289,4.6289,4.6289,4.6289,4.6288,4.6222,4.6112,4.5977,4.5883,4.5776,4.568,4.5642,4.5605,4.5586,4.5586,4.5586,4.5586,4.5586,4.5586,4.5586,4.5586,4.5586,4.5586,4.5586,4.5586,4.5586,4.5586,4.5586,4.5586,4.5586,4.5586,4.5586,4.5586,4.5586,4.5586,4.5586,4.5586,4.5451,4.397,4.3201,4.2783,4.1112,4.031,3.9797,3.9389,3.912,3.8909,3.8811,3.8707,3.8634,3.7955,3.7643,3.7422,3.6248,3.5789,3.6523,3.7569,3.8358,3.8689,3.8358,3.823,3.8028,3.7826,3.7569,3.7753,3.7771,3.7753,3.7253,3.6971,3.6817,3.6688,3.667,3.6266,3.5697,3.5275,3.4926,3.4578,3.4229,3.4009,3.3807,3.3807,3.3807,3.3807,3.3807,3.3807,3.3807,3.3807,3.3807,3.3807,3.3807,3.3807,3.3522,3.3225,3.284,3.2384,3.1804,3.1329,3.123,3.119,3.119,3.1326,3.1647,3.1884,3.2154,3.2882,3.388,3.4387,3.4709,3.459,4.6289,4.6289,4.6289,4.6289,4.6289,4.6289,4.6289,4.6289,4.6289,4.6269,4.6234,4.6137,4.6015,4.5891,4.5829,4.5719,4.5624,4.5586,4.5586,4.5586,4.5586,4.5586,4.5586,4.5586,4.5586,4.5586,4.5586,4.5586,4.5586,4.5586,4.5586,4.5586,4.5586,4.5586,4.5586,4.5586,4.5586,4.5586,4.5586,4.5586,4.5586,4.5586,4.5586,4.5336,4.397,4.3181,4.2626,4.1355,4.031,3.9943,3.9614,3.9239,3.9058,3.8903,3.8726,3.8505,3.8248,3.7863,3.7661,3.7239,3.6927,3.7294,3.8083,3.8542,3.8707,3.8707,3.856,3.8597,3.8615,3.8707,3.8707,3.8505,3.8377,3.7906,3.7869,3.7734,3.7533,3.7422,3.6835,3.6248,3.5826,3.5349,3.4468,3.4082,3.4082,3.388,3.3807,3.3807,3.3807,3.3807,3.3807,3.3807,3.3807,3.3807,3.3807,3.3807,3.3753,3.3302,3.2983,3.2598,3.2109,3.1579,3.1247,3.119,3.119,3.119,3.1495,3.1952,3.2527,3.3085,3.3897,3.4742,3.4945,3.5216,3.5334,4.6289,4.6289,4.6289,4.6289,4.6289,4.6289,4.6289,4.6289,4.6289,4.6222,4.6139,4.6082,4.5986,4.5835,4.5791,4.5699,4.5605,4.5586,4.5586,4.5586,4.5586,4.5586,4.5586,4.5586,4.5586,4.5586,4.5586,4.5586,4.5586,4.5586,4.5586,4.5586,4.5586,4.5586,4.5586,4.5586,4.5586,4.5586,4.5586,4.5586,4.5586,4.5586,4.5586,4.522,4.4143,4.3355,4.2953,4.1629,4.0684,4.0387,3.981,3.9413,3.9201,3.8891,3.8707,3.8652,3.8652,3.8597,3.856,3.7863,3.7624,3.7679,3.8414,3.8652,3.8707,3.8707,3.8707,3.8707,3.8707,3.8707,3.8707,3.8689,3.8585,3.853,3.8487,3.8414,3.8175,3.8083,3.7496,3.678,3.6303,3.5734,3.4614,3.3899,3.4009,3.3954,3.3844,3.3825,3.3862,3.4009,3.4082,3.3935,3.3954,3.3917,3.3917,3.3844,3.3652,3.3184,3.2852,3.2594,3.2195,3.1713,3.1443,3.128,3.119,3.119,3.1732,3.2341,3.3102,3.3897,3.4742,3.5419,3.5588,3.5639,3.5639,4.6289,4.6289,4.6289,4.6289,4.6289,4.6289,4.6289,4.6289,4.6205,4.6143,4.6078,4.5969,4.5873,4.5796,4.5719,4.5661,4.5605,4.5586,4.5586,4.5586,4.5586,4.5586,4.5586,4.5586,4.5586,4.5586,4.5586,4.5586,4.5586,4.5586,4.5586,4.5586,4.5586,4.5586,4.5586,4.5586,4.5586,4.5586,4.5586,4.5586,4.5586,4.5586,4.5586,4.5547,4.4412,4.3816,4.3624,4.2027,4.1212,4.0843,4.0186,3.9556,3.9312,3.8998,3.8707,3.8707,3.8707,3.8707,3.8689,3.8377,3.8322,3.8377,3.8469,3.8707,3.8707,3.8707,3.8707,3.8707,3.8707,3.8707,3.8707,3.8707,3.867,3.867,3.8634,3.8634,3.8524,3.8524,3.8193,3.7349,3.6725,3.5642,3.4541,3.4679,3.4825,3.4523,3.4431,3.4156,3.41,3.4412,3.4559,3.4266,3.4156,3.41,3.4018,3.3752,3.3564,3.3198,3.3022,3.2896,3.2435,3.1824,3.1545,3.1326,3.1258,3.1241,3.1901,3.2662,3.3829,3.4759,3.5318,3.5622,3.5622,3.5639,3.5639,4.5586,4.584,4.584,4.6035,4.6269,4.6289,4.6289,4.6269,4.615,4.6065,4.5988,4.5873,4.5776,4.5719,4.5661,4.5586,4.5586,4.5586,4.5586,4.5586,4.5586,4.5586,4.5586,4.5586,4.5586,4.5586,4.5586,4.5586,4.5586,4.5586,4.5586,4.5586,4.5586,4.5586,4.5586,4.5586,4.5586,4.5586,4.5586,4.5586,4.5586,4.5586,4.5586,4.5355,4.4759,4.4124,4.3566,4.2684,4.1613,4.111,4.0363,3.9576,3.9314,3.9027,3.8719,3.8707,3.8707,3.8707,3.8689,3.8689,3.8597,3.8634,3.8707,3.8707,3.8707,3.8707,3.8707,3.8707,3.8707,3.8707,3.8707,3.8707,3.8707,3.8707,3.8707,3.8707,3.8707,3.8689,3.8395,3.7588,3.6964,3.5789,3.4981,3.5468,3.5817,3.545,3.5055,3.4816,3.4578,3.4761,3.4935,3.4633,3.4321,3.4174,3.3887,3.3472,3.3296,3.3187,3.314,3.3176,3.2392,3.1698,3.1574,3.141,3.1275,3.1393,3.2104,3.2966,3.3947,3.4793,3.5453,3.5622,3.5639,3.5639,3.5639,4.4219,4.4922,4.498,4.5488,4.6152,4.623,4.6289,4.628,4.6164,4.6007,4.5892,4.5834,4.5719,4.5605,4.5586,4.5586,4.5586,4.5586,4.5586,4.5586,4.5586,4.5586,4.5586,4.5586,4.5586,4.5586,4.5586,4.5586,4.5586,4.5586,4.5586,4.5586,4.5586,4.5586,4.5586,4.5586,4.5586,4.5586,4.5586,4.5586,4.5586,4.5586,4.5586,4.5374,4.4932,4.4335,4.3665,4.2746,4.1644,4.0826,3.9984,3.9543,3.9167,3.8828,3.8743,3.8707,3.8707,3.8707,3.8707,3.8707,3.8707,3.8707,3.8707,3.8707,3.8707,3.8707,3.8707,3.8707,3.8707,3.8707,3.8707,3.8707,3.8707,3.8707,3.8707,3.8707,3.8707,3.8542,3.823,3.7734,3.7331,3.6578,3.6064,3.6313,3.6801,3.6515,3.6266,3.645,3.6101,3.5275,3.533,3.4917,3.4604,3.4262,3.396,3.3754,3.3303,3.3299,3.3456,3.3401,3.2496,3.1828,3.1907,3.1782,3.136,3.1529,3.2188,3.2983,3.3897,3.4675,3.5368,3.5639,3.5639,3.5639,3.5639,4.3848,4.4141,4.4726,4.5156,4.543,4.5957,4.6157,4.6125,4.596,4.5853,4.5815,4.5719,4.5624,4.5586,4.5586,4.5586,4.5586,4.5586,4.5586,4.5586,4.5586,4.5586,4.5586,4.5586,4.5586,4.5586,4.5586,4.5566,4.5566,4.5566,4.5566,4.5586,4.5586,4.5586,4.5586,4.5586,4.5586,4.5586,4.5586,4.5586,4.5586,4.5586,4.5586,4.5432,4.5316,4.4816,4.4414,4.358,4.2622,4.1873,4.0678,3.9896,3.9119,3.8857,3.8707,3.8707,3.8707,3.8707,3.8707,3.8707,3.8707,3.8707,3.8707,3.8707,3.8707,3.8707,3.8707,3.8707,3.8707,3.8707,3.8707,3.8707,3.8707,3.8707,3.8707,3.8707,3.8707,3.8615,3.8285,3.7918,3.7514,3.7239,3.6798,3.7371,3.7739,3.7526,3.7477,3.7661,3.7441,3.6523,3.5936,3.5569,3.5117,3.4856,3.4697,3.4501,3.3879,3.3455,3.3627,3.3424,3.2412,3.1958,3.2239,3.2104,3.163,3.1765,3.2256,3.3119,3.4066,3.4539,3.5165,3.5419,3.5639,3.5639,3.5639,4.2915,4.3234,4.3721,4.4275,4.4899,4.5299,4.5622,4.5892,4.5834,4.5815,4.5776,4.5661,4.5586,4.5586,4.5586,4.5586,4.5586,4.5586,4.5586,4.5586,4.5586,4.5586,4.5586,4.5586,4.5586,4.5586,4.5547,4.549,4.5451,4.5395,4.5395,4.54,4.5475,4.5586,4.5586,4.5586,4.5586,4.5586,4.5586,4.5586,4.5586,4.5586,4.5586,4.5586,4.5586,4.5451,4.5089,4.4152,4.3414,4.2522,4.1188,4.0374,3.9538,3.9024,3.8707,3.8707,3.8707,3.8707,3.8707,3.8707,3.8707,3.8707,3.8707,3.8707,3.8707,3.8707,3.8707,3.8707,3.8707,3.8707,3.8707,3.8707,3.8707,3.8707,3.8707,3.8707,3.8707,3.8707,3.8414,3.8065,3.7771,3.7533,3.7728,3.8345,3.8651,3.8279,3.8138,3.8248,3.801,3.7349,3.6835,3.6486,3.5959,3.5513,3.5372,3.5095,3.4514,3.3934,3.3694,3.3274,3.2297,3.2138,3.2493,3.2273,3.185,3.2256,3.2865,3.344,3.4218,3.4692,3.5098,3.5419,3.5639,3.5639,3.5639,4.1649,4.2314,4.2302,4.3247,4.4462,4.4472,4.4814,4.5545,4.543,4.5661,4.568,4.568,4.5586,4.5586,4.5586,4.5586,4.5586,4.5586,4.5586,4.5586,4.5586,4.5586,4.5586,4.5586,4.5586,4.5586,4.5512,4.5342,4.5091,4.5111,4.5207,4.5159,4.5438,4.5586,4.5586,4.5586,4.5586,4.5586,4.5586,4.5586,4.5586,4.5586,4.5586,4.555,4.5454,4.528,4.4556,4.3921,4.3358,4.2479,4.1717,4.1051,3.9982,3.9124,3.8799,3.8707,3.8707,3.8707,3.8707,3.8707,3.8707,3.8707,3.8707,3.8707,3.8707,3.8707,3.8707,3.8707,3.8707,3.8707,3.8707,3.8707,3.8707,3.8707,3.8707,3.8707,3.8707,3.8707,3.8597,3.834,3.8285,3.8065,3.8138,3.8683,3.8713,3.8615,3.8615,3.8689,3.8487,3.7936,3.7569,3.7191,3.662,3.6028,3.5754,3.5451,3.5074,3.4572,3.4134,3.3524,3.2763,3.2679,3.2747,3.2594,3.2476,3.3034,3.3609,3.4032,3.4387,3.4861,3.525,3.552,3.5639,3.5639,3.5639,4.1311,4.1536,4.2075,4.2864,4.3631,4.3551,4.3618,4.383,4.3775,4.447,4.5432,4.5547,4.5547,4.549,4.549,4.5509,4.5586,4.5586,4.5586,4.5586,4.5586,4.5586,4.5586,4.5586,4.5586,4.5513,4.5381,4.5185,4.5091,4.5107,4.5226,4.5419,4.5549,4.5531,4.5531,4.5531,4.5495,4.5457,4.5495,4.5475,4.5512,4.5513,4.5514,4.54,4.5283,4.5166,4.4655,4.4383,4.3653,4.2829,4.236,4.1351,4.0005,3.9203,3.8781,3.8707,3.8781,3.8781,3.8707,3.8707,3.8707,3.8707,3.8707,3.8707,3.8707,3.8707,3.8707,3.8707,3.8707,3.8707,3.8707,3.8707,3.8707,3.8707,3.8707,3.8707,3.8707,3.8707,3.8707,3.8707,3.8707,3.8707,3.8707,3.8707,3.8707,3.8689,3.8689,3.8707,3.8707,3.8358,3.7931,3.754,3.7017,3.6528,3.6219,3.5948,3.5602,3.5164,3.4711,3.3998,3.3288,3.3152,3.3102,3.3203,3.3305,3.3744,3.4032,3.4184,3.4573,3.5064,3.5334,3.5571,3.5639,3.5639,3.5639,4.1121,4.1151,4.1443,4.2017,4.2595,4.2618,4.2775,4.3102,4.3104,4.3605,4.4393,4.4509,4.4682,4.4951,4.5028,4.5355,4.549,4.5586,4.5586,4.5586,4.5586,4.5586,4.5586,4.5586,4.5586,4.5513,4.5203,4.5033,4.5096,4.5109,4.5227,4.5362,4.5381,4.5362,4.5362,4.5263,4.5182,4.512,4.5182,4.5204,4.5207,4.5245,4.5194,4.5076,4.4967,4.4868,4.4732,4.4474,4.3961,4.3241,4.2696,4.2114,4.1075,4.0377,3.968,3.9386,3.9239,3.9056,3.8854,3.8726,3.8707,3.8707,3.8707,3.8707,3.8707,3.8707,3.8707,3.8707,3.8707,3.8707,3.8707,3.8707,3.8707,3.8707,3.8707,3.8707,3.8707,3.8707,3.8707,3.8707,3.8707,3.8707,3.8707,3.8707,3.8707,3.8707,3.8707,3.8707,3.8707,3.8707,3.8297,3.7948,3.7471,3.7088,3.6751,3.6535,3.6267,3.5796,3.5148,3.4523,3.3812,3.3558,3.344,3.3863,3.4134,3.4218,3.4472,3.4641,3.4861,3.5301,3.5487,3.5622,3.5639,3.5639,3.5639,4.0866,4.0927,4.0793,4.1046,4.1585,4.1643,4.2027,4.2624,4.272,4.2701,4.2739,4.2758,4.3297,4.3912,4.4338,4.4874,4.5259,4.549,4.5547,4.5586,4.5586,4.5586,4.5586,4.5586,4.5531,4.5419,4.514,4.5096,4.5096,4.5027,4.4987,4.5077,4.5052,4.5011,4.4943,4.4806,4.4682,4.4738,4.4724,4.4624,4.4697,4.4829,4.4777,4.467,4.4561,4.4557,4.4383,4.4252,4.4016,4.3503,4.2871,4.2334,4.1846,4.1185,4.0653,4.0175,3.9772,3.946,3.9111,3.8817,3.8762,3.8707,3.8707,3.8707,3.8707,3.8707,3.8707,3.8707,3.8707,3.8707,3.8707,3.8707,3.8707,3.8707,3.8707,3.8707,3.8707,3.8707,3.8707,3.8707,3.8707,3.8707,3.8707,3.8707,3.8707,3.8707,3.8707,3.8707,3.8707,3.8658,3.848,3.8358,3.8154,3.7765,3.7177,3.6833,3.6493,3.5917,3.5284,3.4793,3.4438,3.4353,3.4506,3.4962,3.5165,3.4945,3.5064,3.5284,3.5504,3.552,3.5571,3.5639,3.5639,3.5639,3.5639,4.0258,4.0754,4.0716,4.0735,4.0777,4.0758,4.0835,4.0969,4.1046,4.0989,4.1123,4.1181,4.1797,4.3374,4.4068,4.453,4.4759,4.5182,4.5509,4.5586,4.5586,4.5586,4.5586,4.5586,4.5419,4.5283,4.5161,4.5118,4.5074,4.4867,4.4824,4.5052,4.4776,4.4682,4.4682,4.4553,4.4455,4.4436,4.4414,4.4391,4.4261,4.4344,4.4402,4.4381,4.4431,4.416,4.3923,4.3943,4.3804,4.3406,4.2886,4.2506,4.2213,4.1827,4.1295,4.0836,4.0432,3.99,3.9533,3.8982,3.8799,3.8707,3.8707,3.8707,3.8707,3.8707,3.8707,3.8707,3.8707,3.8707,3.8707,3.8707,3.8707,3.8707,3.8707,3.8707,3.8707,3.8707,3.8707,3.8707,3.8707,3.8707,3.8707,3.8707,3.8707,3.8707,3.8707,3.8707,3.8707,3.8658,3.8627,3.8596,3.8546,3.7721,3.6808,3.6768,3.6446,3.5856,3.5487,3.5199,3.5115,3.5334,3.5493,3.5554,3.5571,3.5419,3.5605,3.5639,3.5622,3.5588,3.5605,3.5639,3.5639,3.5639,3.5639]},{"header":{"parameterUnit":"m.s-1","parameterCategory":1,"la1":31.0,"la2":29.5877,"lo1":-88.7671,"lo2":-86.6584,"dy":0.0162,"dx":0.0185,"nx":115,"ny":88,"refTime":"2023-10-06T06:00:00:Z","depth":0,"parameterNumber":3,"parameterNumberName":"V-component_of_WINDS"},"data":[0.0,0.0,0.0,0.0,0.0,0.0,0.0,0.0,0.0,0.0,0.0,0.0,0.0,0.0,0.0,0.0,0.0,0.0,0.0,0.0,0.0,0.0,0.0,0.0,0.0,0.0,0.0,0.0,0.0,0.0,0.0,0.0,0.0,0.0,0.0,0.0,0.0,0.0,0.0,0.0,0.0,0.0,0.0,0.0,0.0,0.0,0.0,0.0,0.0,0.0,0.0,0.0,0.0,0.0,0.0,0.0,0.0,0.0,0.0,0.0,0.0,0.0,0.0,0.0,0.0,0.0,0.0,0.0,0.0,0.0,0.0,0.0,0.0,0.0,0.0,0.0,0.0,0.0,0.0,0.0,0.0,0.0,0.0,0.0,0.0,0.0,0.0,0.0,0.0,0.0,0.0,0.0,0.0,0.0,0.0,0.0,0.0,0.0,0.0,0.0,0.0,0.0,0.0,0.0,0.0,0.0,0.0,0.0,0.0,0.0,0.0,0.0,0.0,0.0,0.0,0.0,0.0,0.0,0.0,0.0,0.0,0.0,0.0,0.0,0.0,0.0,0.0,0.0,0.0,0.0,0.0,0.0,0.0,0.0,0.0,0.0,0.0,0.0,0.0,0.0,0.0,0.0,0.0,0.0,0.0,0.0,0.0,0.0,0.0,0.0,0.0,0.0,0.0,0.0,0.0,0.0,0.0,0.0,0.0,0.0,0.0,0.0,0.0,0.0,0.0,0.0,0.0,0.0,0.0,0.0,0.0,0.0,0.0,0.0,0.0,0.0,0.0,0.0,0.0,0.0,0.0,0.0,0.0,0.0,0.0,0.0,0.0,0.0,0.0,0.0,0.0,0.0,0.0,0.0,0.0,0.0,0.0,0.0,0.0,0.0,0.0,0.0,0.0,0.0,0.0,0.0,0.0,0.0,0.0,0.0,0.0,0.0,0.0,0.0,0.0,0.0,0.0,0.0,0.0,0.0,0.0,0.0,0.0,0.0,0.0,0.0,0.0,0.0,0.0,0.0,0.0,0.0,0.0,0.0,0.0,0.0,0.0,0.0,0.0,0.0,0.0,0.0,0.0,0.0,0.0,0.0,0.0,0.0,0.0,0.0,0.0,0.0,0.0,0.0,0.0,0.0,0.0,0.0,0.0,0.0,0.0,0.0,0.0,0.0,0.0,0.0,0.0,0.0,0.0,0.0,0.0,0.0,0.0,0.0,0.0,0.0,0.0,0.0,0.0,0.0,0.0,0.0,0.0,0.0,0.0,0.0,0.0,0.0,0.0,0.0,0.0,0.0,0.0,0.0,0.0,0.0,0.0,0.0,0.0,0.0,0.0,0.0,0.0,0.0,0.0,0.0,0.0,0.0,0.0,0.0,0.0,0.0,0.0,0.0,0.0,0.0,0.0,0.0,0.0,0.0,0.0,0.0,0.0,0.0,0.0,0.0,0.0,0.0,0.0,0.0,0.0,0.0,0.0,0.0,0.0,0.0,0.0,0.0,0.0,0.0,0.0,0.0,0.0,0.0,0.0,0.0,0.0,0.0,0.0,0.0,0.0,0.0,0.0,0.0,0.0,0.0,0.0,0.0,0.0,0.0,0.0,0.0,0.0,0.0,0.0,0.0,0.0,0.0,0.0,0.0,0.0,0.0,0.0,0.0,0.0,0.0,0.0,0.0,0.0,0.0,0.0,0.0,0.0,0.0,0.0,0.0,0.0,0.0,0.0,0.0,0.0,0.0,0.0,0.0,0.0,0.0,0.0,0.0,0.0,0.0,0.0,0.0,0.0,0.0,0.0,0.0,0.0,0.0,0.0,0.0,0.0,0.0,0.0,0.0,0.0,0.0,0.0,0.0,0.0,0.0,0.0,0.0,0.0,0.0,0.0,0.0,0.0,0.0,0.0,0.0,0.0,0.0,0.0,0.0,0.0,0.0,0.0,0.0,0.0,0.0,0.0,0.0,0.0,0.0,0.0,0.0,0.0,0.0,0.0,0.0,0.0,0.0,0.0,0.0,0.0,0.0,0.0,0.0,0.0,0.0,0.0,0.0,0.0,0.0,0.0,0.0,0.0,0.0,0.0,0.0,0.0,0.0,0.0,0.0,0.0,0.0,0.0,0.0,0.0,0.0,0.0,0.0,0.0,0.0,0.0,0.0,0.0,0.0,0.0,0.0,0.0,0.0,0.0,0.0,0.0,0.0,0.0,0.0,0.0,0.0,0.0,0.0,0.0,0.0,0.0,0.0,0.0,0.0,0.0,0.0,0.0,0.0,0.0,0.0,0.0,0.0,0.0,0.0,0.0,0.0,0.0,0.0,0.0,0.0,0.0,0.0,0.0,0.0,0.0,0.0,0.0,0.0,0.0,0.0,0.0,0.0,0.0,0.0,0.0,0.0,0.0,0.0,0.0,0.0,0.0,0.0,0.0,0.0,0.0,0.0,0.0,0.0,0.0,0.0,0.0,0.0,0.0,0.0,0.0,0.0,0.0,0.0,0.0,0.0,0.0,0.0,0.0,0.0,0.0,0.0,0.0,0.0,0.0,0.0,0.0,0.0,0.0,0.0,0.0,0.0,0.0,0.0,0.0,0.0,0.0,0.0,0.0,0.0,0.0,0.0,0.0,0.0,0.0,0.0,0.0,0.0,0.0,0.0,0.0,0.0,0.0,0.0,0.0,0.0,0.0,0.0,0.0,0.0,0.0,0.0,0.0,0.0,0.0,0.0,0.0,0.0,0.0,0.0,0.0,0.0,0.0,0.0,0.0,0.0,0.0,0.0,0.0,0.0,0.0,0.0,0.0,0.0,0.0,0.0,0.0,0.0,0.0,0.0,0.0,0.0,0.0,0.0,0.0,0.0,0.0,0.0,0.0,0.0,0.0,0.0,0.0,0.0,0.0,0.0,0.0,0.0,0.0,0.0,0.0,0.0,0.0,0.0,0.0,0.0,0.0,0.0,0.0,0.0,0.0,0.0,0.0,0.0,0.0,0.0,0.0,0.0,0.0,0.0,0.0,0.0,0.0,0.0,0.0,0.0,0.0,0.0,0.0,0.0,0.0,0.0,0.0,0.0,0.0,0.0,0.0,0.0,0.0,0.0,0.0,0.0,0.0,0.0,0.0,0.0,0.0,0.0,0.0,0.0,0.0,0.0,0.0,0.0,0.0,0.0,0.0,0.0,0.0,0.0,0.0,0.0,0.0,0.0,0.0,0.0,0.0,0.0,0.0,0.0,0.0,0.0,0.0,0.0,0.0,0.0,0.0,0.0,0.0,0.0,0.0,0.0,0.0,0.0,0.0,0.0,0.0,0.0,0.0,0.0,0.0,0.0,0.0,0.0,0.0,0.0,0.0,0.0,0.0,0.0,0.0,0.0,0.0,0.0,0.0,0.0,0.0,0.0,0.0,0.0,0.0,0.0,0.0,0.0,0.0,0.0,0.0,0.0,0.0,0.0,0.0,0.0,0.0,0.0,0.0,0.0,0.0,0.0,0.0,0.0,0.0,0.0,0.0,0.0,0.0,0.0,0.0,0.0,0.0,0.0,0.0,0.0,0.0,0.0,0.0,0.0,0.0,0.0,0.0,0.0,0.0,0.0,0.0,0.0,0.0,0.0,0.0,0.0,0.0,0.0,0.0,0.0,0.0,0.0,0.0,0.0,0.0,0.0,0.0,0.0,0.0,0.0,0.0,0.0,0.0,0.0,0.0,0.0,0.0,0.0,0.0,0.0,0.0,0.0,0.0,0.0,0.0,0.0,0.0,0.0,0.0,0.0,0.0,0.0,0.0,0.0,0.0,0.0,0.0,0.0,0.0,0.0,0.0,0.0,0.0,0.0,0.0,0.0,0.0,0.0,0.0,0.0,0.0,0.0,0.0,0.0,0.0,0.0,0.0,0.0,0.0,0.0,0.0,0.0,0.0,0.0,0.0,0.0,0.0,0.0,0.0,0.0,0.0,0.0,0.0,0.0,0.0,0.0,0.0,0.0,0.0,0.0,0.0,0.0,0.0,0.0,0.0,0.0,0.0,0.0,0.0,0.0,0.0,0.0,0.0,0.0,0.0,0.0,0.0,0.0,0.0,0.0,0.0,0.0,0.0,0.0,0.0,0.0,0.0,0.0,0.0,0.0,0.0,0.0,0.0,0.0,0.0,0.0,0.0,0.0,0.0,0.0,0.0,0.0,0.0,0.0,0.0,0.0,0.0,0.0,0.0,0.0,0.0,0.0,0.0,0.0,0.0,0.0,0.0,0.0,0.0,0.0,0.0,0.0,0.0,0.0,0.0,0.0,0.5875,0.0,0.0,0.0,0.0,0.0,0.0,0.0,0.0,0.0,0.0,0.0,0.0,0.0,0.0,0.0,0.0,0.0,0.0,0.0,0.0,0.0,0.0,0.0,0.0,0.0,0.0,0.0,0.0,0.0,0.0,0.0,0.0,0.0,0.0,0.0,0.0,0.0,0.0,0.0,0.0,0.0,0.0,0.0,0.0,0.0,0.0,0.0,0.0,0.0,0.0,0.0,0.0,0.0,0.0,0.0,0.0,0.0,0.0,0.0,0.0,0.0,0.0,0.0,0.0,0.0,0.0,0.0,0.0,0.0,0.0,0.0,0.0,0.0,0.0,0.0,0.0,0.0,0.0,0.0,0.0,0.0,0.0,0.0,0.0,0.0,0.0,0.0,0.0,0.0,0.0,0.0,0.0,0.0,0.0,0.0,0.0,0.0,0.0,0.0,0.0,0.0,0.0,0.0,0.0,0.0,0.0,0.0,0.0,0.0,0.0,0.1645,0.3755,0.4865,0.5536,0.5638,0.0,0.0,0.0,0.0,0.0,0.0,0.0,0.0,0.0,0.0,0.0,0.0,0.0,0.0,0.0,0.0,0.0,0.0,0.0,0.0,0.0,0.0,0.0,0.0,0.0,0.0,0.0,0.0,0.0,0.0,0.0,0.0,0.0,0.0,0.0,0.0,0.0,0.0,0.0,0.0,0.0,0.0,0.0,0.0,0.0,0.0,0.0,0.0,0.0,0.0,0.0,0.0,0.0,0.0,0.0,0.0,0.0,0.0,0.0,0.0,0.0,0.0,0.0,0.0,0.0,0.0,0.0,0.0,0.0,0.0,0.0,0.0,0.0,0.0,0.0,0.0,0.0,0.0,0.0,0.0,0.0,0.0,0.0,0.0,0.0,0.0,0.0,0.0,0.0,0.0,0.0,0.0,0.0,0.0,0.0,0.0,0.0,0.0,0.0,0.0,0.0,0.0,0.0,0.0,0.0,0.0,0.0,0.0,0.0,0.0,0.0,0.0,0.4796,0.5288,0.5197,0.0,0.0,0.0,0.0,0.0,0.0,0.0,0.0,0.0,0.0,0.0,0.0,0.0,0.0,0.0,0.0,0.0,0.0,0.0,0.0,0.0,0.0,0.0,0.0,0.0,0.0,0.0,0.0,0.0,0.0,0.0,0.0,0.0,0.0,0.0,0.0,0.0,0.0,0.0,0.0,0.0,0.0,0.0,0.0,0.0,0.0,0.0,0.0,0.0,0.0,0.0,0.0,0.0,0.0,0.0,0.0,0.0,0.0,0.0,0.0,0.0,0.0,0.0,0.0,0.0,0.0,0.0,0.0,0.0,0.0,0.0,0.0,0.0,0.0,0.0,0.0,0.0,0.0,0.0,0.0,0.0,0.0,0.0,0.0,0.0,0.0,0.0,0.0,0.0,0.0,0.0,0.0,0.0,0.0,0.0,0.0,0.0,0.0,0.0,0.0,0.0,0.0,0.0,0.0,0.0,0.0,0.0,0.0,0.0,0.0,0.2377,0.3679,0.52,0.0,0.5209,0.0,0.0,0.0,0.0,0.0,0.0,0.0,0.0,0.0,0.0,0.0,0.0,0.0,0.0,0.0,0.0,0.0,0.0,0.0,0.0,0.0,0.0,0.0,0.0,0.0,0.0,0.0,0.0,0.0,0.0,0.0,0.0,0.0,0.0,0.0,0.0,0.0,0.0,0.0,0.0,0.0,0.0,0.0,0.0,0.0,0.0,0.0,0.0,0.0,0.0,0.0,0.0,0.0,0.0,0.0,0.0,0.0,0.0,0.0,0.0,0.0,0.0,0.0,0.0,0.0,0.0,0.0,0.0,0.0,0.0,0.0,0.0,0.0,0.0,0.0,0.0,0.0,0.0,0.0,0.0,0.0,0.0,0.0,0.0,0.0,0.0,0.0,0.0,0.0,0.0,0.0,0.0,0.0,0.0,0.0,0.0,0.0,0.0,0.0,0.0,0.0,0.0,0.0,0.0,0.0,0.0,0.0,0.0,0.0,0.0,0.2844,0.3669,0.4861,0.5331,0.0,0.0,0.0,0.0,0.0,0.0,0.0,0.0,0.0,0.0,0.0,0.0,0.0,0.0,0.0,0.0,0.0,0.0,0.0,0.0,0.0,0.0,0.0,0.0,0.0,0.0,0.0,0.0,0.0,0.0,0.0,0.0,0.0,0.0,0.0,0.0,0.0,0.0,0.0,0.0,0.0,0.0,0.0,0.0,0.0,0.0,0.0,0.0,0.0,0.0,0.0,0.0,0.0,0.0,0.0,0.0,0.0,0.0,0.0,0.0,0.0,0.0,0.0,0.0,0.0,0.0,0.0,0.0,0.0,0.0,0.0,0.0,0.0,0.0,0.0,0.0,0.0,0.0,0.0,0.0,0.0,0.0,0.0,0.0,0.0,0.0,0.0,0.0,0.0,0.0,0.0,0.0,0.0,0.0,0.0,0.0,0.0,0.0,0.0,0.0,0.0,0.0,0.0,0.0,0.0,0.0,0.0,0.0,0.0,0.0,0.2577,0.3008,0.3851,0.465,0.5028,0.4947,0.0,0.0,0.0,0.0,0.0,0.0,0.0,0.0,0.0,0.0,0.0,0.0,0.0,0.0,0.0,0.0,0.0,0.0,0.0,0.0,0.0,0.0,0.0,0.0,0.0,0.0,0.0,0.0,0.0,0.0,0.0,0.0,0.0,0.0,0.0,0.0,0.0,0.0,0.0,0.0,0.0,0.0,0.0,0.0,0.0,0.0,0.0,0.0,0.0,0.0,0.0,0.0,0.0,0.0,0.0,0.0,0.0,0.0,0.0,0.0,0.0,0.0,0.0,0.0,0.0,0.0,0.0,0.0,0.0,0.0,0.0,0.0,0.0,0.0,0.0,0.0,0.0,0.0,0.0,0.0,0.0,0.0,0.0,0.0,0.0,0.0,0.0,0.0,0.0,0.0,0.0,0.0,0.0,0.0,0.0,0.0,0.0,0.0,0.0,0.0,0.0,0.0,0.0,0.0,0.0,0.0,0.0,0.0,0.2726,0.2351,0.2821,0.4215,0.4753,0.5078,0.0,0.0,0.0,0.0,0.0,0.0,0.0,0.0,0.0,0.0,0.0,0.0,0.0,0.0,0.0,0.0,0.0,0.0,0.0,0.0,0.0,0.0,0.0,0.0,0.0,0.0,0.0,0.0,0.0,0.0,0.0,0.0,0.0,0.0,0.0,0.0,0.0,0.0,0.0,0.0,0.0,0.0,0.0,0.0,0.0,0.0,0.0,0.0,0.0,0.0,0.0,0.0,0.0,0.0,0.0,0.0,0.0,0.0,0.0,0.0,0.0,0.0,0.0,0.0,0.0,0.0,0.0,0.0,0.0,0.0,0.0,0.0,0.0,0.0,0.0,0.0,0.0,0.0,0.0,0.0,0.0,0.0,0.0,0.0,0.0,0.0,0.0,0.0,0.0,0.0,0.0,0.0,0.0,0.0,0.0,0.0,0.0,0.0,0.0,0.0,0.0,0.0,0.0,0.0,0.0,0.0,0.0,0.0,0.0,0.2838,0.2875,0.326,0.4059,0.4412,0.4706,0.0,0.0,0.0,0.0,0.0,0.0,0.0,0.0,0.0,0.0,0.0,0.0,0.0,0.0,0.0,0.0,0.0,0.0,0.0,0.0,0.0,0.0,0.0,0.0,0.0,0.0,0.0,0.0,0.0,0.0,0.0,0.0,0.0,0.0,0.0,0.0,0.0,0.0,0.0,0.0,0.0,0.0,0.0,0.0,0.0,0.0,0.0,0.0,0.0,0.0,0.0,0.0,0.0,0.0,0.0,0.0,0.0,0.0,0.0,0.0,0.0,0.0,0.0,0.0,0.0,0.0,0.0,0.0,0.0,0.0,0.0,0.0,0.0,0.0,0.0,0.0,0.0,0.0,0.0,0.0,0.0,0.0,0.0,0.0,0.0,0.0,0.0,0.0,0.0,0.0,0.0,0.0,0.0,0.0,0.0,0.0,0.0,0.0,0.0,0.0,0.0,0.0,0.0,0.0,0.0,0.0,0.0,0.0,0.0,0.3031,0.0,0.3521,0.3965,0.4256,0.4598,0.0,0.0,0.0,0.0,0.0,0.0,0.0,0.0,0.0,0.0,0.0,0.0,0.0,0.0,0.0,0.0,0.0,0.0,0.0,0.0,0.0,0.0,0.0,0.0,0.0,0.0,0.0,0.0,0.0,0.0,0.0,0.0,0.0,0.0,0.0,0.0,0.0,0.0,0.0,0.0,0.0,0.0,0.0,0.0,0.0,0.0,0.0,0.0,0.0,0.0,0.0,0.0,0.0,0.0,0.0,0.0,0.0,0.0,0.0,0.0,0.0,0.0,0.0,0.0,0.0,0.0,0.0,0.0,0.0,0.0,0.0,0.0,0.0,0.0,0.0,0.0,0.0,0.0,0.0,0.0,0.0,0.0,0.0,0.0,0.0,0.0,0.0,0.0,0.0,0.0,0.0,0.0,0.0,0.0,0.0,0.0,0.0,0.0,0.0,0.0,0.0,0.0,0.0,0.0,0.0,0.0,0.0,0.0,0.2719,0.326,0.3296,0.3536,0.3989,0.4369,0.4835,0.0,0.0,0.0,0.0,0.0,0.0,0.0,0.0,0.0,0.0,0.0,0.0,0.0,0.0,0.0,0.0,0.0,0.0,0.0,0.0,0.0,0.0,0.0,0.0,0.0,0.0,0.0,0.0,0.0,0.0,0.0,0.0,0.0,0.0,0.0,0.0,0.0,0.0,0.0,0.0,0.0,0.0,0.0,0.0,0.0,0.0,0.0,0.0,0.0,0.0,0.0,0.0,0.0,0.0,0.0,0.0,0.0,0.0,0.0,0.0,0.0,0.0,0.0,0.0,0.0,0.0,0.0,0.0,0.0,0.0,0.0,0.0,0.0,0.0,0.0,0.0,0.0,0.0,0.0,0.0,0.0,0.0,0.0,0.0,0.0,0.0,0.0,0.0,0.0,0.0,0.0,0.0,0.0,0.0,0.0,0.0,0.0,0.0,0.0,0.0,0.0,0.0,0.0,0.0,0.0,0.0,0.0,0.0,0.0,0.3244,0.3269,0.3665,0.4417,0.4377,0.4615,0.0,0.0,0.0,0.0,0.0,0.0,0.0,0.0,0.0,0.0,0.0,0.0,0.0,0.0,0.0,0.0,0.0,0.0,0.0,0.0,0.0,0.0,0.0,0.0,0.0,0.0,0.0,0.0,0.0,0.0,0.0,0.0,0.0,0.0,0.0,0.0,0.0,0.0,0.0,0.0,0.0,0.0,0.0,0.0,0.0,0.0,0.0,0.0,0.0,0.0,0.0,0.0,0.0,0.0,0.0,0.0,0.0,0.0,0.0,0.0,0.0,0.0,0.0,0.0,0.0,0.0,0.0,0.0,0.0,0.0,0.0,0.0,0.0,0.0,0.0,0.0,0.0,0.0,0.0,0.0,0.0,0.0,0.0,0.0,0.0,0.0,0.0,0.0,0.0,0.0,0.0,0.0,0.0,0.0,0.0,0.0,0.0,0.0,0.0,0.0,0.0,0.0,0.0,0.0,0.0,0.0,0.0,0.0,0.0,0.4347,0.4006,0.4048,0.4504,0.4464,0.4728,0.5276,0.0,0.0,0.0,0.0,0.0,0.0,0.0,0.0,0.0,0.0,0.0,0.0,0.0,0.0,0.0,0.0,0.0,0.0,0.0,0.0,0.0,0.0,0.0,0.0,0.0,0.0,0.0,0.0,0.0,0.0,0.0,0.0,0.0,0.0,0.0,0.0,0.0,0.0,0.0,0.0,0.0,0.0,0.0,0.0,0.0,0.0,0.0,0.0,0.0,0.0,0.0,0.0,0.0,0.0,0.0,0.0,0.0,0.0,0.0,0.0,0.0,0.0,0.0,0.0,0.0,0.0,0.0,0.0,0.0,0.0,0.0,0.0,0.0,0.0,0.0,0.0,0.0,0.0,0.0,0.0,0.0,0.0,0.0,0.0,0.0,0.0,0.0,0.0,0.0,0.0,0.0,0.0,0.0,0.0,0.0,0.0,0.0,0.0,0.0,0.0,0.0,0.0,0.0,0.0,0.0,0.0,0.0,0.0,0.6166,0.5234,0.4646,0.4428,0.4767,0.5133,0.0,0.0,0.0,0.0,0.0,0.0,0.0,0.0,0.0,0.0,0.0,0.0,0.0,0.0,0.0,0.0,0.0,0.0,0.0,0.0,0.0,0.0,0.0,0.0,0.0,0.0,0.0,0.0,0.0,0.0,0.0,0.0,0.0,0.0,0.0,0.0,0.0,0.0,0.0,0.0,0.0,0.0,0.0,0.0,0.0,0.0,0.0,0.0,0.0,0.0,0.0,0.0,0.0,0.0,0.0,0.0,0.0,0.0,0.0,0.0,0.0,0.0,0.0,0.0,0.0,0.0,0.0,0.0,0.0,0.0,0.0,0.0,0.0,0.0,0.0,0.0,0.0,0.0,0.0,0.0,0.0,0.0,0.0,0.0,0.0,0.0,0.0,0.0,0.0,0.0,0.0,0.0,0.0,0.0,0.0,0.0,0.0,0.0,0.0,0.0,0.0,0.0,0.0,0.0,0.0,0.0,0.0,0.0,0.0,0.4817,0.5015,0.5623,0.6514,0.5785,0.5708,0.0,0.0,0.0,0.0,0.0,0.0,0.0,0.0,0.0,0.0,0.0,0.0,0.0,0.0,0.0,0.0,0.0,0.0,0.0,0.0,0.0,0.0,0.0,0.0,0.0,0.0,0.0,0.0,0.0,0.0,0.0,0.0,0.0,0.0,0.0,0.0,0.0,0.0,0.0,0.0,0.0,0.0,0.0,0.0,0.0,0.0,0.0,0.0,0.0,0.0,0.0,0.0,0.0,0.0,0.0,0.0,0.0,0.0,0.0,0.0,0.0,0.0,0.0,0.0,0.0,0.0,0.0,0.0,0.0,0.0,0.0,0.0,0.0,0.0,0.0,0.0,0.0,0.0,0.0,0.0,0.0,0.0,0.0,0.0,0.0,0.0,0.0,0.0,0.0,0.0,0.0,0.0,0.0,0.0,0.0,0.0,0.0,0.0,0.0,0.0,0.0,0.0,0.0,0.0,0.0,0.0,0.0,0.0,0.4659,0.4791,0.5411,0.6302,0.7326,0.6171,0.5961,0.0,0.0,0.0,0.0,0.0,0.0,0.0,0.0,0.0,0.0,0.0,0.0,0.0,0.0,0.0,0.0,0.0,0.0,0.0,0.0,0.0,0.0,0.0,0.0,0.0,0.0,0.0,0.0,0.0,0.0,0.0,0.0,0.0,0.0,0.0,0.0,0.0,0.0,0.0,0.0,0.0,0.0,0.0,0.0,0.0,0.0,0.0,0.0,0.0,0.0,0.0,0.0,0.0,0.0,0.0,0.0,0.0,0.0,0.0,0.0,0.0,0.0,0.0,0.0,0.0,0.0,0.0,0.0,0.0,0.0,0.0,0.0,0.0,0.0,0.0,0.0,0.0,0.0,0.0,0.0,0.0,0.0,0.0,0.0,0.0,0.0,0.0,0.0,0.0,0.0,0.0,0.0,0.0,0.0,0.0,0.0,0.0,0.0,0.0,0.0,0.0,0.0,0.0,0.0,0.0,0.0,0.0,0.0,0.467,0.5392,0.5995,0.6648,0.7291,0.6325,0.6226,0.0,0.0,0.0,0.0,0.0,0.0,0.0,0.0,0.0,0.0,0.0,0.0,0.0,0.0,0.0,0.0,0.0,0.0,0.0,0.0,0.0,0.0,0.0,0.0,0.0,0.0,0.0,0.0,0.0,0.0,0.0,0.0,0.0,0.0,0.0,0.0,0.0,0.0,0.0,0.0,0.0,0.0,0.0,0.0,0.0,0.0,0.0,0.0,0.0,0.0,0.0,0.0,0.0,0.0,0.0,0.0,0.0,0.0,0.0,0.0,0.0,0.0,0.0,0.0,0.0,0.0,0.0,0.0,0.0,0.0,0.0,0.0,0.0,0.0,0.0,0.0,0.0,0.0,0.0,0.0,0.0,0.0,0.0,0.0,0.0,0.0,0.0,0.0,0.0,0.0,0.0,0.0,0.0,0.0,0.0,0.0,0.0,0.0,0.0,0.0,0.0,0.0,0.0,0.0,0.0,0.0,0.0,0.0,0.4877,0.5312,0.5557,0.6289,0.7582,0.708,0.7091,0.0,0.0,0.0,0.0,0.0,0.0,0.0,0.0,0.0,0.0,0.0,0.0,0.0,0.0,0.0,0.0,0.0,0.0,0.0,0.0,0.0,0.0,0.0,0.0,0.0,0.0,0.0,0.0,0.0,0.0,0.0,0.0,0.0,0.0,0.0,0.0,0.0,0.0,0.0,0.0,0.0,0.0,0.0,0.0,0.0,0.0,0.0,0.0,0.704,0.0,0.0,0.0,0.0,0.0,0.0,0.0,0.0,0.0,0.0,0.0,0.0,0.0,0.0,0.0,0.0,0.0,0.0,0.0,0.0,0.0,0.0,0.0,0.0,0.0,0.0,0.0,0.0,0.0,0.0,0.0,0.0,0.0,0.0,0.0,0.0,0.0,0.0,0.0,0.0,0.0,0.0,0.0,0.0,0.0,0.0,0.0,0.0,0.0,0.0,0.0,0.0,0.0,0.0,0.0,0.0,0.0,0.0,0.0,0.5336,0.5424,0.6137,0.6902,0.7629,0.7485,0.7654,0.0,0.0,0.0,0.0,0.0,0.0,0.0,0.0,0.0,0.0,0.0,0.0,0.0,0.0,0.0,0.0,0.0,0.0,0.0,0.0,0.0,0.0,0.0,0.0,0.0,0.0,0.0,0.0,0.0,0.0,0.0,0.0,0.0,0.0,0.0,0.0,0.0,0.0,0.0,0.0,0.0,0.0,0.0,0.0,0.0,0.0,0.0,0.0,0.0,0.0,0.0,0.0,0.0,0.0,0.0,0.0,0.0,0.0,0.0,0.0,0.0,0.0,0.0,0.0,0.0,0.0,0.0,0.0,0.0,0.0,0.0,0.0,0.0,0.0,0.0,0.0,0.0,0.0,0.0,0.0,0.0,0.0,0.0,0.0,0.0,0.0,0.0,0.0,0.0,0.0,0.0,0.0,0.0,0.0,0.0,0.0,0.0,0.0,0.0,0.0,0.0,0.0,0.0,0.0,0.0,0.0,0.0,0.5349,0.585,0.5716,0.6998,0.7777,0.7871,0.778,0.7968,0.848,0.0,0.0,0.0,0.0,0.0,0.0,0.0,0.0,0.0,0.0,0.0,0.0,0.0,0.0,0.0,0.0,0.0,0.0,0.0,0.0,0.0,0.0,0.0,0.0,0.0,0.0,0.0,0.0,0.0,0.0,0.0,0.0,0.0,0.0,0.0,0.0,0.0,0.0,0.6483,0.6758,0.0,0.0,0.0,0.0,0.0,0.0,0.0,0.0,0.7368,0.0,0.0,0.0,0.0,0.0,0.0,0.0,0.0,0.0,0.0,0.0,0.0,0.0,0.0,0.0,0.0,0.0,0.0,0.0,0.0,0.0,0.0,0.0,0.0,0.0,0.0,0.0,0.0,0.0,0.0,0.0,0.0,0.0,0.0,0.0,0.0,0.0,0.0,0.0,0.0,0.0,0.0,0.0,0.0,0.0,0.0,0.0,0.0,0.0,0.0,0.0,0.0,0.0,0.0,0.0,0.0,0.4045,0.5229,0.5981,0.6284,0.7192,0.799,0.8567,0.8078,0.8012,0.8431,0.0,0.0,0.0,0.0,0.0,0.0,0.0,0.0,0.0,0.0,0.0,0.0,0.0,0.0,0.0,0.0,0.0,0.0,0.0,0.0,0.0,0.0,0.0,0.0,0.0,0.0,0.0,0.0,0.0,0.0,0.0,0.0,0.0,0.0,0.0,0.0,0.0,0.0,0.0,0.7199,0.728,0.0,0.0,0.0,0.0,0.0,0.0,0.0,0.0,0.8936,0.0,0.0,0.0,0.0,0.0,0.0,0.0,0.0,0.0,0.0,0.0,0.0,0.0,0.0,0.0,0.0,0.0,0.0,0.0,0.0,0.0,0.0,0.0,0.0,0.0,0.0,0.0,0.0,0.0,0.0,0.0,0.0,0.0,0.0,0.0,0.0,0.0,0.0,0.0,0.0,0.0,0.0,0.0,0.0,0.0,0.0,0.0,0.0,0.0,0.0,0.0,0.0,0.0,0.0,0.0,0.4422,0.5198,0.595,0.6503,0.7164,0.7864,0.8577,0.8339,0.8379,0.0,0.0,0.0,0.0,0.0,0.0,0.0,0.0,0.0,0.0,0.0,0.0,0.0,0.0,0.0,0.0,0.0,0.0,0.0,0.0,0.0,0.0,0.0,0.0,0.0,0.0,0.0,0.0,0.0,0.0,0.0,0.0,0.0,0.0,0.0,0.0,0.0,0.0,0.0,0.0,0.7404,0.7565,0.7442,0.0,0.0,0.0,0.0,0.0,0.0,0.8582,0.8767,0.0,0.0,0.0,0.0,0.0,0.0,0.0,0.0,0.0,0.0,0.0,0.0,0.0,0.0,0.0,0.0,0.0,0.0,0.0,0.0,0.0,0.0,0.0,0.0,0.0,0.0,0.0,0.0,0.0,0.0,0.0,0.0,0.0,0.0,0.0,0.0,0.0,0.0,0.0,0.0,0.0,0.0,0.0,0.0,0.0,0.0,0.0,0.0,0.0,0.0,0.0,0.0,0.0,0.0,0.0,0.4691,0.5214,0.5873,0.6607,0.7117,0.7687,0.837,0.8592,0.8765,0.0,0.0,0.0,0.0,0.0,0.0,0.0,0.0,0.0,0.0,0.0,0.0,0.0,0.0,0.0,0.0,0.0,0.0,0.0,0.0,0.0,0.0,0.0,0.0,0.0,0.0,0.0,0.0,0.0,0.0,0.0,0.0,0.0,0.0,0.0,0.0,0.0,0.0,0.0,0.0,0.0,0.7816,0.7616,0.7654,0.0,0.0,0.0,0.0,0.7882,0.8312,0.0,0.0,0.0,0.0,0.0,0.0,0.0,0.0,0.0,0.0,0.0,0.0,0.0,0.0,0.0,0.0,0.0,0.0,0.0,0.0,0.0,0.0,0.0,0.0,0.0,0.0,0.0,0.0,0.0,0.0,0.0,0.0,0.0,0.0,0.0,0.0,0.0,0.0,0.0,0.0,0.0,0.0,0.0,0.0,0.0,0.0,0.0,0.0,0.0,0.0,0.0,0.0,0.0,0.0,0.0,0.0,0.4735,0.5214,0.5873,0.6602,0.7111,0.7745,0.8377,0.87,0.8826,0.0,0.0,0.0,0.0,0.0,0.0,0.0,0.0,0.0,0.0,0.0,0.0,0.0,0.0,0.0,0.0,0.0,0.0,0.0,0.0,0.0,0.0,0.0,0.0,0.0,0.0,0.0,0.0,0.0,0.0,0.0,0.0,0.0,0.0,0.0,0.0,0.0,0.0,0.0,0.0,0.0,0.7937,0.7571,0.7907,0.8372,0.0,0.0,0.8732,0.9119,0.9071,0.0,0.0,0.0,0.0,0.0,0.0,0.0,0.0,0.0,0.0,0.0,0.0,0.0,0.0,0.0,0.0,0.0,0.0,0.0,0.0,0.0,0.0,0.0,0.0,0.0,0.0,0.0,0.0,0.0,0.0,0.0,0.0,0.0,0.0,0.0,0.0,0.0,0.0,0.0,0.0,0.0,0.0,0.0,0.0,0.0,0.0,0.0,0.0,0.0,0.0,0.0,0.0,0.0,0.0,0.0,0.4473,0.4902,0.5157,0.5689,0.6563,0.6827,0.7281,0.8081,0.8294,0.8558,0.0,0.0,0.0,0.0,0.0,0.0,0.0,0.0,0.0,0.0,0.0,0.0,0.0,0.0,0.0,0.0,0.0,0.0,0.0,0.0,0.0,0.0,0.0,0.0,0.0,0.0,0.0,0.0,0.0,0.0,0.0,0.0,0.0,0.0,0.0,0.0,0.0,0.0,0.0,0.0,0.0,0.0,0.7939,0.8325,0.0,0.0,0.0,0.93,0.9133,0.0,0.0,0.0,0.0,0.0,0.0,0.0,0.0,0.0,0.0,0.0,0.0,0.0,0.0,0.0,0.0,0.0,0.0,0.0,0.0,0.0,0.0,0.0,0.0,0.0,0.0,0.0,0.0,0.0,0.0,0.0,0.0,0.0,0.0,0.0,0.0,0.0,0.0,0.0,0.0,0.0,0.0,0.0,0.0,0.0,0.0,0.0,0.0,0.0,0.0,0.0,0.0,0.0,0.0,0.0,0.0,0.0,0.5213,0.4986,0.5417,0.6514,0.625,0.6696,0.7953,0.8296,0.0,0.0,0.0,0.0,0.0,0.0,0.0,0.0,0.0,0.0,0.0,0.0,0.0,0.0,0.0,0.0,0.0,0.0,0.0,0.0,0.0,0.0,0.0,0.0,0.0,0.0,0.0,0.5841,0.0,0.0,0.0,0.0,0.0,0.0,0.0,0.0,0.0,0.0,0.0,0.0,0.0,0.0,0.8208,0.8456,0.8764,0.8961,0.0,0.0,0.9521,0.916,0.9667,0.9995,0.0,0.0,0.0,0.0,0.0,0.0,0.0,0.0,0.0,0.0,0.0,0.0,0.0,0.0,0.0,0.0,0.0,0.0,0.0,0.0,0.0,0.0,0.0,0.0,0.0,0.0,0.0,0.0,0.0,0.0,0.0,0.0,0.0,0.0,0.0,0.0,0.0,0.0,0.0,0.0,0.0,0.0,0.0,0.0,0.0,0.0,0.0,0.0,0.0,0.0,0.0,0.0,0.0,0.0,0.4886,0.553,0.4691,0.5056,0.6519,0.5342,0.5816,0.83,0.9272,0.963,0.0,0.0,0.0,0.0,0.0,0.0,0.0,0.0,0.0,0.0,0.0,0.0,0.0,0.0,0.0,0.0,0.0,0.0,0.0,0.0,0.0,0.0,0.0,0.0,0.0,0.0,0.0,0.0,0.0,0.0,0.0,0.0,0.0,0.0,0.0,0.0,0.0,0.0,0.0,0.0,0.0,0.8964,0.8947,0.9065,0.9386,0.0,0.9582,0.933,0.9575,0.9735,0.9953,1.0597,0.0,0.0,0.0,0.0,0.0,0.0,0.0,0.0,0.0,0.0,0.0,0.0,0.0,0.0,0.0,0.0,0.0,0.0,0.0,0.0,0.0,0.0,0.0,0.0,0.0,0.0,0.0,0.0,0.0,0.0,0.0,0.0,0.0,0.0,0.0,0.0,0.0,0.0,0.0,0.0,0.0,0.0,0.0,0.0,0.0,0.0,0.0,0.0,0.0,0.0,0.0,0.0,0.0,0.5321,0.6129,0.5727,0.6134,0.7219,0.7175,0.7535,0.8377,0.9717,1.0144,0.0,0.0,0.0,0.0,0.0,0.0,0.0,0.0,0.0,0.0,0.0,0.0,0.0,0.0,0.0,0.0,0.0,0.0,0.0,0.0,0.0,0.0,0.0,0.0,0.0,0.0,0.0,0.0,0.646,0.6481,0.652,0.0,0.0,0.0,0.0,0.0,0.0,0.0,0.0,0.0,0.0,0.9405,0.9296,0.9549,0.0,0.0,1.0137,1.0247,1.0102,1.0144,1.0324,1.0562,1.1609,0.0,0.0,0.0,0.0,0.0,0.0,0.0,0.0,0.0,0.0,0.0,0.0,0.0,0.0,0.0,0.0,0.0,0.0,0.0,0.0,0.0,0.0,0.0,0.0,0.0,0.0,0.0,0.0,0.0,0.0,0.0,0.0,0.0,0.0,0.0,0.0,0.0,0.0,0.0,0.0,0.0,0.0,0.0,0.0,0.0,0.0,0.0,0.0,0.0,0.0,0.0,0.0,0.555,0.6363,0.6574,0.6918,0.7343,0.8321,0.8711,0.8561,0.9995,1.0426,0.0,0.0,0.0,0.0,0.0,0.0,0.0,0.0,0.0,0.0,0.0,0.0,0.0,0.0,0.0,0.0,0.0,0.0,0.0,0.0,0.0,0.0,0.0,0.0,0.0,0.0,0.0,0.0,0.6841,0.6927,0.7063,0.0,0.0,0.0,0.0,0.0,0.0,0.0,0.0,0.0,0.0,0.9747,0.9666,0.9931,1.0186,1.0236,1.0644,1.0901,1.0612,1.0607,1.064,1.0794,0.0,0.0,0.0,0.0,0.0,0.0,0.0,0.0,0.0,0.0,0.0,0.0,0.0,0.0,0.0,0.0,0.0,0.0,0.0,0.0,0.0,0.0,0.0,0.0,0.0,0.0,0.0,0.3253,0.0,0.0,0.3239,0.0,0.0,0.0,0.0,0.0,0.0,0.0,0.0,0.0,0.0,0.0,0.0,0.0,0.0,0.0,0.0,0.0,0.0,0.0,0.0,0.0,0.0,0.5597,0.6154,0.6957,0.7155,0.675,0.8049,0.8804,0.8791,1.0108,1.0623,1.0331,0.0,0.0,0.0,0.0,0.0,0.0,0.0,0.0,0.0,0.0,0.0,0.0,0.0,0.0,0.0,0.0,0.0,0.0,0.0,0.0,0.0,0.0,0.0,0.0,0.0,0.0,0.6341,0.6471,0.6767,0.0,0.0,0.0,0.0,0.0,0.0,0.0,0.0,0.0,0.9148,0.9636,1.0064,1.025,1.0286,1.0465,1.0971,1.0949,1.0956,1.1193,1.0844,1.0718,0.0,0.0,0.0,0.0,0.0,0.0,0.0,0.0,0.0,0.0,0.0,0.0,0.0,0.0,0.0,0.0,0.0,0.0,0.0,0.0,0.0,0.0,0.0,0.0,0.0,0.0,0.0,0.3069,0.3114,0.0,0.0,0.0,0.0,0.0,0.0,0.0,0.0,0.0,0.0,0.0,0.4153,0.4063,0.0,0.0,0.0,0.0,0.0,0.0,0.0,0.0,0.0,0.0,0.0,0.0,0.6182,0.7098,0.6941,0.7252,0.8049,0.8533,0.8804,0.8811,1.0115,1.1094,1.1696,0.0,0.0,0.0,0.0,0.0,0.0,0.0,0.0,0.0,0.0,0.0,0.0,0.0,0.0,0.0,0.0,0.0,0.0,0.0,0.0,0.0,0.0,0.0,0.0,0.0,0.7551,0.0,0.0,0.0,0.0,0.0,0.0,0.0,0.0,0.0,0.0,0.0,0.9156,0.9603,0.9986,1.0279,1.0408,1.043,1.0494,0.0,0.0,0.0,0.0,0.0,0.0,0.0,0.0,0.0,0.0,0.0,0.0,0.0,0.0,1.1643,1.0971,1.0856,1.0906,1.1023,0.0,0.0,0.0,0.0,0.0,0.0,0.0,0.0,0.0,0.0,0.0,0.0,0.0,0.0,0.3417,0.0,0.355,0.0,0.0,0.0,0.0,0.0,0.0,0.0,0.0,0.412,0.4203,0.4397,0.4195,0.4245,0.0,0.4346,0.4308,0.0,0.0,0.0,0.0,0.0,0.0,0.0,0.0,0.6261,0.7254,0.6832,0.7182,0.8368,0.8699,0.8804,0.8804,1.0115,1.1262,1.2149,1.2122,1.1943,0.0,0.0,0.0,0.0,0.0,0.0,0.0,0.0,0.0,0.0,0.0,0.0,0.0,0.0,0.0,0.0,0.0,0.0,0.0,0.0,0.0,0.0,0.0,0.7881,0.0,0.0,0.0,0.0,0.0,0.0,0.0,0.0,0.0,0.8756,0.9033,0.9438,0.9916,1.0027,1.0144,1.0419,0.0,0.0,0.0,0.0,0.0,0.0,0.0,1.2137,1.304,1.2422,1.2334,1.3853,1.3576,1.3243,1.3418,0.0,0.0,1.172,1.1559,1.1531,1.1617,1.1352,1.1168,1.1274,1.1152,1.0997,0.0,0.0,0.0,0.0,0.0,0.0,0.0,0.0,0.3897,0.3934,0.0,0.3917,0.0,0.0,0.0,0.0,0.44,0.4251,0.0,0.0,0.4488,0.4501,0.4425,0.4425,0.4418,0.4407,0.4485,0.4453,0.4439,0.4874,0.0,0.0,0.0,0.0,0.0,0.0,0.5824,0.6687,0.6634,0.6966,0.7723,0.8427,0.8804,0.885,1.0108,1.1107,1.1796,1.2196,1.2431,1.2401,1.1664,0.0,0.0,0.0,0.0,0.0,0.0,0.0,0.0,0.0,0.0,0.0,0.0,0.0,0.0,0.0,0.0,0.0,0.0,0.0,0.0,0.7705,0.0,0.0,0.0,0.0,0.0,0.0,0.0,0.0,0.0,0.0,0.954,0.948,0.9582,1.0023,0.0,0.0,0.0,0.0,1.0217,1.0968,1.1688,1.229,1.2764,1.2415,1.2712,1.4324,0.0,0.0,1.2062,1.1667,1.1836,1.2096,1.1902,1.1546,1.2876,1.2815,1.2552,1.2224,1.1919,1.1841,1.1707,1.1652,1.1652,0.3629,0.0,0.0,0.0,0.0,0.3971,0.4152,0.4375,0.4505,0.4597,0.4608,0.4431,0.0,0.0,0.0,0.0,0.0,0.0,0.4559,0.4723,0.4759,0.4779,0.4779,0.4724,0.4783,0.4779,0.4738,0.4659,0.4497,0.4716,0.4988,0.537,0.0,0.0,0.0,0.0,0.5997,0.6923,0.6707,0.7235,0.8487,0.8699,0.8771,0.8802,1.0128,1.1116,1.1756,1.2435,1.2653,1.2385,1.2083,0.0,0.0,0.0,0.0,0.0,0.0,0.0,0.0,0.0,0.0,0.0,0.0,0.0,0.0,0.0,0.0,0.0,0.0,0.0,0.7699,0.7937,0.8105,0.0,0.0,0.0,0.0,0.0,0.0,0.0,0.0,0.0,1.01,1.0028,0.9933,0.0,0.0,1.0708,1.0954,1.0913,1.0978,1.135,1.1399,0.0,1.1897,1.2541,1.3323,1.4231,1.5377,1.5956,1.529,1.4973,1.5018,1.5678,1.5396,1.5186,1.5336,1.3166,1.1456,1.1284,1.1318,1.1581,1.2313,1.2497,1.276,0.3008,0.3546,0.4104,0.4366,0.4384,0.4582,0.4778,0.4932,0.5122,0.5164,0.5081,0.4862,0.4678,0.4495,0.4536,0.0,0.0,0.0,0.4901,0.5085,0.5085,0.5133,0.5087,0.5033,0.5003,0.5003,0.4887,0.481,0.466,0.4773,0.489,0.5047,0.0,0.0,0.55,0.5658,0.6218,0.7171,0.7257,0.7821,0.8924,0.8864,0.8771,0.8815,0.9828,1.072,1.1366,1.2098,1.2493,1.2594,1.2324,1.1992,0.0,0.0,0.0,0.0,0.0,0.0,0.0,0.0,0.0,0.0,0.0,0.9605,0.9553,0.0,0.0,0.0,0.8898,0.8612,0.8276,0.8434,0.0,0.0,0.0,0.0,0.0,0.0,0.0,0.9364,0.9217,0.9386,1.0133,1.0228,1.0243,1.0271,1.0494,1.0763,1.1038,0.0,1.1093,1.1425,1.1549,1.1824,1.247,1.3133,1.409,1.5551,1.6365,1.6663,1.6129,1.5748,1.5644,1.6026,1.5871,1.5661,1.5807,1.3483,1.1904,1.2742,1.296,1.3255,1.3737,1.3837,1.3982,0.1386,0.3724,0.4992,0.5343,0.5097,0.5236,0.545,0.5657,0.5661,0.5638,0.5543,0.5254,0.5078,0.4965,0.4883,0.0,0.5402,0.5211,0.5244,0.5463,0.5396,0.5463,0.5456,0.525,0.5182,0.5182,0.504,0.4969,0.4952,0.4977,0.4998,0.502,0.4895,0.4868,0.4969,0.5584,0.635,0.7328,0.7877,0.8441,0.9121,0.8924,0.8831,0.8804,0.9458,1.0115,1.0712,1.1416,1.2129,1.2764,1.2453,1.2229,1.2163,0.0,0.0,0.0,0.0,0.0,0.0,0.0,0.0,0.0,0.0,0.0,0.0,0.0,0.0,0.0,0.877,0.0,0.9131,0.9024,0.0,0.0,0.0,0.9003,0.9134,0.9176,0.9182,0.9214,0.0,0.0,0.9872,1.0231,1.0464,1.0356,1.0241,1.0333,1.0689,1.082,1.1009,1.1512,1.2108,1.2883,1.3763,1.4036,1.4993,1.7312,1.7248,1.6381,1.5678,1.5111,1.4781,1.4959,1.4421,1.438,1.473,1.4231,1.3986,1.5654,1.5739,1.5492,1.5184,1.5105,1.5168,0.1442,0.3736,0.582,0.6366,0.5765,0.5983,0.6125,0.6261,0.6264,0.6115,0.5864,0.5708,0.5338,0.4929,0.5162,0.5383,0.5702,0.5564,0.5593,0.5691,0.5698,0.5694,0.5694,0.5657,0.5644,0.5633,0.5498,0.5372,0.5254,0.5161,0.5336,0.5868,0.5409,0.5278,0.5441,0.5582,0.5968,0.6614,0.7397,0.8155,0.8873,0.9048,0.9031,0.8811,0.9465,0.9865,1.0064,1.1166,1.1873,1.208,1.2512,1.2532,1.2081,1.2061,0.0,0.0,0.0,0.0,0.0,0.0,0.0,0.0,0.0,1.0346,1.0107,0.0,0.9643,0.0,0.9224,0.9179,0.9075,0.9198,0.0,0.0,0.9437,0.9568,0.9813,0.993,0.9971,1.0031,1.0222,1.0319,1.0326,1.0387,1.0476,1.0525,1.0674,1.089,1.1131,1.1648,1.2094,1.2401,1.3501,1.4322,1.404,1.4786,1.6008,1.7707,1.7436,1.6968,1.6883,1.6476,1.6294,1.6628,1.6524,1.6599,1.6973,1.694,1.693,1.7222,1.5246,1.3665,1.4879,1.5234,1.5587,0.0803,0.2159,0.4581,0.593,0.6468,0.6556,0.66,0.6675,0.6675,0.6583,0.6413,0.6193,0.5821,0.5318,0.5544,0.5816,0.603,0.5892,0.5898,0.6095,0.6037,0.6037,0.6091,0.5962,0.5901,0.5898,0.5755,0.5606,0.5396,0.5373,0.5647,0.599,0.5661,0.5672,0.5868,0.6049,0.6423,0.6966,0.7995,0.8858,0.9555,0.9316,0.922,0.916,0.9379,0.9718,1.0131,1.088,1.1484,1.199,1.2412,1.2559,1.2423,1.2436,1.233,0.0,0.0,0.0,0.0,0.0,0.0,0.0,0.0,0.0,0.0,0.0,0.9821,0.9722,0.9673,0.959,0.9528,0.9604,0.9756,0.9893,0.99,1.0024,1.0274,1.0343,1.0363,1.0435,1.0464,1.0561,1.0547,1.0554,1.0547,1.0598,1.0726,1.0905,1.1128,1.1432,1.174,1.2131,1.3934,1.4803,1.3415,1.5266,1.709,1.7765,1.7588,1.7187,1.6934,1.6658,1.656,1.6953,1.684,1.6908,1.7578,1.7369,1.706,1.6826,1.5296,1.4522,1.6009,1.6446,1.6862,0.0,0.0,0.2601,0.4942,0.7121,0.6679,0.6608,0.6959,0.6956,0.6946,0.6826,0.663,0.6271,0.5911,0.602,0.619,0.6383,0.6176,0.6254,0.6488,0.6373,0.6369,0.6458,0.621,0.6078,0.6051,0.5905,0.5694,0.551,0.5681,0.5803,0.5883,0.5856,0.5976,0.6275,0.6699,0.721,0.7807,0.8802,0.9722,1.053,0.9774,0.9384,0.9596,0.9344,0.9621,1.0395,1.0549,1.1057,1.2026,1.2175,1.2417,1.2845,1.278,1.275,0.0,1.2617,0.0,0.0,0.0,0.0,0.0,0.0,0.0,0.0,0.9792,0.9848,1.0057,1.0003,1.0024,1.0068,1.0168,1.0182,1.0316,1.035,1.039,1.0591,1.0618,1.0618,1.0618,1.0618,1.0618,1.0611,1.0618,1.0618,1.0618,1.0611,1.0685,1.0862,1.0823,1.0896,1.1344,1.3614,1.4635,1.3784,1.5661,1.7609,1.7705,1.7402,1.7021,1.6494,1.6282,1.6302,1.668,1.6674,1.6674,1.7324,1.6769,1.6333,1.6453,1.6018,1.6018,1.7157,1.751,1.7872,0.0,0.0,0.2573,0.4972,0.6923,0.5027,0.5328,0.7037,0.7021,0.695,0.6843,0.6763,0.6499,0.622,0.643,0.659,0.6617,0.6586,0.6603,0.6658,0.663,0.6566,0.6471,0.6417,0.6329,0.6213,0.6061,0.6046,0.6096,0.5923,0.5937,0.6203,0.616,0.6359,0.6721,0.0,0.0,0.0,0.8382,0.9069,1.0523,1.0051,0.971,0.9611,0.9539,0.0,0.9821,1.0293,1.0702,1.0905,1.1469,0.0,0.0,0.0,0.0,0.0,0.0,0.0,0.0,0.0,0.0,0.0,1.1122,1.0539,1.0494,1.0229,1.0008,0.9962,1.0123,1.0207,1.0094,1.0377,1.0539,1.053,1.0537,1.0564,1.0618,1.0618,1.0618,1.0618,1.0618,1.0618,1.0618,1.0618,1.0618,1.0618,1.0618,1.0581,1.0635,1.0655,1.0903,1.1721,1.3233,1.4818,1.5725,1.6227,1.6602,1.6533,1.6455,1.6426,1.6562,1.64,1.653,1.7135,1.7451,1.7605,1.787,1.7746,1.7532,1.7638,1.751,1.7295,1.6664,1.6715,1.707,0.0,0.0,0.1313,0.3831,0.0,0.4567,0.497,0.7108,0.7088,0.671,0.5985,0.5928,0.6253,0.6689,0.6867,0.6881,0.6894,0.6739,0.6742,0.6807,0.6732,0.6698,0.6695,0.6624,0.6549,0.6474,0.64,0.6366,0.6308,0.629,0.6287,0.6511,0.643,0.6496,0.6703,0.6554,0.7336,0.8954,0.8738,0.9173,1.0292,1.0275,1.0151,1.0022,0.991,0.0,0.0,0.0,0.0,0.0,0.0,0.0,0.0,1.2608,0.0,1.4458,1.3746,1.3351,1.3543,1.2411,1.1739,1.1854,1.1115,1.0632,1.0535,1.0373,1.0288,1.0235,1.0377,1.0458,1.0341,1.0537,1.0618,1.0618,1.0618,1.0618,1.0618,1.0618,1.0618,1.0618,1.0618,1.0618,1.0618,1.0618,1.0618,1.0618,1.0618,1.0618,1.0618,1.0618,1.0807,1.1178,1.2602,1.4197,1.5651,1.6201,1.6055,1.5947,1.6152,1.6396,1.6484,1.6527,1.6694,1.7311,1.7553,1.7767,1.7988,1.8008,1.8008,1.8008,1.8008,1.7872,1.7157,1.7148,1.7432,0.0,0.0,0.0,0.2468,0.6304,0.3999,0.4326,0.6475,0.0,0.0,0.0,0.5563,0.6199,0.7275,0.7148,0.7105,0.7052,0.6837,0.6844,0.6956,0.6837,0.6831,0.6922,0.68,0.6729,0.6702,0.6702,0.6576,0.6356,0.6583,0.6746,0.6774,0.6617,0.6502,0.6468,0.6356,0.7297,0.9066,0.9151,0.9558,1.0331,1.0542,1.058,1.0532,1.0283,1.025,1.0494,1.0494,1.0652,1.0963,1.1027,1.1122,1.1451,1.2156,1.3412,1.517,1.3643,1.2867,1.3478,1.2016,1.1207,1.1652,1.1066,1.0571,1.0397,1.0483,1.0618,1.0618,1.0618,1.0618,1.0618,1.0618,1.0618,1.0618,1.0618,1.0618,1.0618,1.0618,1.0618,1.0618,1.0618,1.0618,1.0618,1.0618,1.0618,1.0618,1.0618,1.0618,1.0618,1.0618,1.0624,1.0764,1.2074,1.353,1.4763,1.5722,1.5908,1.5566,1.6094,1.6494,1.6377,1.6572,1.6973,1.7305,1.7432,1.7646,1.793,1.8008,1.8008,1.8008,1.8008,1.8008,1.8008,1.8008,1.8008,0.0,0.0,0.0,0.1562,0.3902,0.153,0.1896,0.426,0.6247,0.7114,0.723,0.752,0.7726,0.7872,0.7545,0.7258,0.7115,0.7092,0.7092,0.7109,0.7088,0.7024,0.6929,0.6905,0.6827,0.6709,0.6702,0.6681,0.6647,0.6681,0.6847,0.6987,0.6829,0.6603,0.6481,0.6454,0.7434,0.9234,0.8918,0.9525,1.1147,1.0892,1.0632,1.0611,1.05,1.0437,1.0494,1.0502,1.0544,1.0544,1.0602,1.0603,1.0685,1.147,1.2974,1.5087,1.3812,1.3297,1.3945,1.2607,1.1534,1.1149,1.0994,1.0815,1.0598,1.0598,1.0618,1.0624,1.0631,1.0618,1.0618,1.0618,1.0618,1.0618,1.0618,1.0618,1.0618,1.0618,1.0618,1.0618,1.0618,1.0618,1.0618,1.0618,1.0618,1.0618,1.0618,1.0618,1.0618,1.0618,1.0618,1.0807,1.1956,1.3136,1.407,1.4911,1.5459,1.5439,1.584,1.6201,1.6194,1.6709,1.7197,1.7363,1.7617,1.7871,1.7998,1.8008,1.8008,1.8008,1.8008,1.8008,1.8008,1.7998,1.7988,0.0,0.0,0.0,0.0595,0.1569,0.0481,0.0576,0.1743,0.2785,0.4225,0.5802,0.7283,0.8016,0.8015,0.7712,0.7482,0.7268,0.7353,0.7346,0.7268,0.7265,0.7231,0.7166,0.7085,0.7004,0.6943,0.6939,0.6898,0.6925,0.6902,0.6991,0.7091,0.6912,0.6749,0.6607,0.6597,0.7285,0.8699,0.8915,0.9952,1.183,1.1546,1.1166,1.086,1.078,1.0691,1.0525,1.0585,1.0585,1.0525,1.0592,1.0526,1.0588,1.1319,1.2134,1.276,1.2648,1.2719,1.3094,1.2141,1.1466,1.1216,1.1229,1.1169,1.1042,1.0882,1.0795,1.0788,1.0725,1.0618,1.0618,1.0618,1.0618,1.0618,1.0618,1.0618,1.0618,1.0618,1.0618,1.0618,1.0618,1.0618,1.0618,1.0618,1.0618,1.0618,1.0618,1.0618,1.0618,1.0618,1.0618,1.0681,1.1233,1.2282,1.3545,1.4688,1.5294,1.542,1.5781,1.6086,1.6154,1.6641,1.7061,1.7334,1.7568,1.7744,1.7939,1.8008,1.8008,1.8008,1.8008,1.8008,1.7998,1.7842,1.7764,0.0,0.0,0.0,0.0,0.0,0.0,0.0,0.0,0.0,0.1479,0.4137,0.6825,0.799,0.8014,0.7814,0.7665,0.7465,0.7543,0.7533,0.7431,0.7424,0.7424,0.7411,0.7295,0.7244,0.7244,0.7244,0.717,0.7152,0.7173,0.719,0.7183,0.7082,0.6987,0.68,0.68,0.7264,0.8156,0.8755,1.0117,1.2188,1.1847,1.1455,1.122,1.1162,1.0955,1.0681,1.0655,1.0628,1.0631,1.0685,1.0661,1.0655,1.127,1.1439,1.0932,1.1524,1.2043,1.1992,1.162,1.1456,1.1523,1.1523,1.1523,1.1503,1.1263,1.1056,1.0975,1.0792,1.0618,1.0618,1.0618,1.0618,1.0618,1.0618,1.0618,1.0618,1.0618,1.0658,1.0698,1.0601,1.0645,1.0692,1.0658,1.0618,1.0618,1.0618,1.0618,1.0618,1.0618,1.0618,1.0618,1.0807,1.1663,1.3364,1.4628,1.5294,1.542,1.5781,1.5947,1.6035,1.6328,1.6797,1.7148,1.7324,1.7568,1.791,1.791,1.791,1.7949,1.792,1.7832,1.7812,1.7734,1.7559,0.0,0.0,0.0,0.0,0.0,0.0,0.0,0.0,0.0,0.1509,0.4017,0.6851,0.797,0.7928,0.7818,0.7726,0.7681,0.7496,0.7496,0.758,0.758,0.758,0.7577,0.7556,0.7556,0.7546,0.7539,0.7362,0.7144,0.7372,0.7543,0.7539,0.7539,0.738,0.7132,0.7099,0.7393,0.818,0.8294,0.9572,1.2004,1.1138,1.0898,1.1591,1.1461,1.1249,1.0975,1.0949,1.0835,1.0672,1.0822,1.0876,1.0673,1.1176,1.1425,1.1323,1.1438,1.1451,1.1458,1.1403,1.1563,1.179,1.1824,1.183,1.1817,1.1557,1.1269,1.1042,1.0742,1.0631,1.0624,1.0624,1.0618,1.0618,1.0618,1.0618,1.0645,1.0618,1.0655,1.0929,1.0813,1.0719,1.0848,1.0715,1.0624,1.0618,1.0618,1.0618,1.0618,1.0618,1.0618,1.0744,1.1351,1.2197,1.3122,1.4392,1.5177,1.5381,1.5762,1.584,1.5791,1.6133,1.6748,1.6758,1.707,1.7412,1.7666,1.7744,1.7578,1.7715,1.7637,1.7441,1.749,1.7627,1.7676,0.0,0.0,0.0,0.0,0.0,0.0,0.0,0.0,0.0,0.0605,0.1912,0.4425,0.6515,0.797,0.7953,0.7862,0.774,0.7721,0.7711,0.7733,0.7723,0.7726,0.7716,0.7634,0.7597,0.7597,0.7597,0.7567,0.7433,0.7667,0.7792,0.7597,0.7597,0.7533,0.7411,0.7322,0.7389,0.7701,0.7513,0.8301,0.9836,1.0523,1.0787,1.0935,1.1384,1.155,1.1283,1.1249,1.1189,1.1089,1.1189,1.1175,1.1094,1.1288,1.156,1.1908,1.1798,1.1764,1.1937,1.1944,1.1991,1.2118,1.2124,1.2124,1.2118,1.1857,1.161,1.139,1.0902,1.0685,1.0775,1.0732,1.0618,1.0618,1.0618,1.0628,1.0795,1.0815,1.0929,1.1176,1.1002,1.0848,1.0922,1.0742,1.0638,1.0618,1.0618,1.0618,1.0618,1.0618,1.0618,1.0744,1.1531,1.232,1.294,1.3726,1.4628,1.5264,1.5557,1.5557,1.5498,1.5625,1.6006,1.6299,1.6592,1.6885,1.7139,1.7158,1.707,1.7227,1.7227,1.7061,1.7324,1.7305,1.7217,0.0,0.0,0.0,0.0,0.0,0.0,0.0,0.0,0.0,0.0,0.0,0.2812,0.5529,0.7769,0.7952,0.7977,0.7899,0.7991,0.7984,0.7882,0.7875,0.7875,0.7862,0.7773,0.7723,0.7719,0.7726,0.7723,0.7716,0.7868,0.7875,0.7712,0.7719,0.7699,0.7648,0.7539,0.7472,0.7414,0.7177,0.7371,0.8142,0.951,1.0362,1.0598,1.1284,1.1638,1.157,1.155,1.1503,1.143,1.1503,1.1474,1.1398,1.154,1.183,1.2242,1.2111,1.2078,1.2291,1.2305,1.2305,1.2305,1.2305,1.2265,1.2171,1.1991,1.185,1.1724,1.1176,1.0915,1.1035,1.0922,1.0808,1.0802,1.086,1.0889,1.1082,1.1116,1.1223,1.1463,1.1202,1.0955,1.0954,1.0833,1.0745,1.0721,1.0631,1.0618,1.0618,1.0618,1.0618,1.0618,1.1288,1.202,1.2879,1.3906,1.451,1.4815,1.5147,1.5332,1.5225,1.5177,1.5566,1.6094,1.6162,1.6367,1.6768,1.6768,1.6553,1.6592,1.6699,1.6865,1.71,1.7051,1.7197,0.0,0.0,0.0,0.0,0.0,0.0,0.0,0.0,0.0,0.0,0.0,0.2815,0.5534,0.7985,0.7955,0.8035,0.8028,0.8035,0.8031,0.8014,0.8018,0.8024,0.8031,0.8024,0.8011,0.798,0.7977,0.7987,0.7987,0.7973,0.7976,0.8004,0.7994,0.794,0.7821,0.7777,0.7716,0.7567,0.7404,0.7358,0.7302,0.808,0.9292,1.0651,1.1053,1.134,1.1794,1.185,1.173,1.145,1.1703,1.1759,1.1475,1.1933,1.2231,1.2318,1.2265,1.2278,1.2298,1.2305,1.2305,1.2305,1.2305,1.2191,1.1997,1.2009,1.1904,1.1864,1.1597,1.141,1.1423,1.1343,1.1316,1.1323,1.1356,1.1363,1.1403,1.141,1.1543,1.1697,1.1369,1.1061,1.0978,1.0972,1.0918,1.0846,1.0764,1.0618,1.0618,1.0618,1.0618,1.0618,1.08,1.1233,1.2757,1.3545,1.4323,1.4569,1.4569,1.505,1.4874,1.4803,1.5446,1.5869,1.5947,1.6152,1.6475,1.6465,1.6182,1.625,1.666,1.6885,1.6904,1.751,1.7676,0.0,0.0,0.0,0.0,0.0,0.0,0.0,0.0,0.0,0.0,0.0,0.282,0.5443,0.7989,0.7969,0.7952,0.8038,0.8038,0.8038,0.8038,0.8038,0.8038,0.8038,0.8038,0.8038,0.8038,0.8038,0.8038,0.8035,0.7984,0.7984,0.8028,0.8038,0.8007,0.795,0.7858,0.7743,0.76,0.7448,0.7295,0.7163,0.7435,0.815,0.9311,1.0469,1.1094,1.1364,1.187,1.2098,1.1984,1.2091,1.2138,1.1999,1.2164,1.2305,1.2305,1.2305,1.2305,1.2305,1.2305,1.2305,1.2305,1.2305,1.2265,1.2171,1.2144,1.2144,1.2118,1.2064,1.1991,1.1911,1.1663,1.143,1.143,1.1436,1.1523,1.1657,1.171,1.1824,1.1984,1.1637,1.1155,1.0916,1.0738,1.0752,1.0728,1.0631,1.0624,1.0618,1.0618,1.0618,1.0681,1.1045,1.1531,1.202,1.2557,1.3045,1.3425,1.3674,1.4085,1.4085,1.4746,1.5399,1.5419,1.5575,1.5762,1.6016,1.5977,1.5723,1.5791,1.624,1.6621,1.667,1.7227,1.7529,0.0,0.0,0.0,0.0,0.0,0.0,0.0,0.0,0.0,0.0,0.0,0.1915,0.423,0.6553,0.7569,0.7962,0.8038,0.8038,0.8038,0.8038,0.8038,0.8038,0.8038,0.8038,0.8038,0.8038,0.8038,0.8038,0.8038,0.8038,0.8038,0.8038,0.8038,0.8038,0.8018,0.7933,0.7831,0.7726,0.759,0.7441,0.7305,0.7148,0.7316,0.8088,0.911,1.0211,1.0956,1.1929,1.2392,1.2325,1.2305,1.2305,1.2305,1.2305,1.2305,1.2305,1.2305,1.2305,1.2305,1.2305,1.2305,1.2305,1.2305,1.2305,1.2305,1.2305,1.2305,1.2305,1.2305,1.2305,1.2231,1.1937,1.171,1.171,1.171,1.1784,1.1977,1.2011,1.2044,1.2078,1.1917,1.1484,1.1125,1.0976,1.0868,1.0833,1.0719,1.0624,1.0618,1.0618,1.0618,1.0618,1.0982,1.1226,1.1406,1.1593,1.2074,1.2451,1.2948,1.3243,1.3537,1.4382,1.4914,1.4972,1.5157,1.5352,1.542,1.542,1.542,1.542,1.5801,1.6279,1.6523,1.6885,1.7207,0.0,0.0,0.0,0.0,0.0,0.0,0.0,0.0,0.0,0.0,0.0,0.0,0.191,0.432,0.6954,0.7962,0.8041,0.8038,0.8038,0.8038,0.8038,0.8038,0.8038,0.8038,0.8038,0.8038,0.8038,0.8038,0.8038,0.8038,0.8038,0.8038,0.8038,0.8038,0.8038,0.8021,0.8018,0.7953,0.7731,0.7614,0.7597,0.724,0.7188,0.7228,0.7379,0.8548,1.0846,1.2043,1.2503,1.2338,1.2305,1.2305,1.2305,1.2305,1.2305,1.2305,1.2305,1.2305,1.2305,1.2305,1.2305,1.2305,1.2305,1.2305,1.2305,1.2305,1.2305,1.2305,1.2305,1.2305,1.2305,1.2251,1.2218,1.2285,1.2204,1.2218,1.2258,1.2285,1.2184,1.1991,1.2017,1.2165,1.1895,1.1438,1.1249,1.1181,1.0853,1.0618,1.0618,1.0618,1.0618,1.0618,1.0737,1.0863,1.0737,1.0681,1.1163,1.1655,1.2205,1.2634,1.2687,1.3226,1.4007,1.4246,1.5099,1.5352,1.542,1.542,1.542,1.5478,1.5791,1.6016,1.6357,1.6699,1.7012,0.0,0.0,0.0,0.0,0.0,0.0,0.0,0.0,0.0,0.0,0.0,0.0,0.151,0.4121,0.6756,0.7969,0.8041,0.8038,0.8038,0.8038,0.8038,0.8038,0.8038,0.8038,0.8038,0.8038,0.8038,0.8038,0.8038,0.8038,0.8038,0.8038,0.8038,0.8038,0.8038,0.8035,0.7997,0.7885,0.7741,0.764,0.76,0.726,0.7161,0.7285,0.72,0.8199,1.0326,1.1213,1.1758,1.2251,1.2305,1.2305,1.2305,1.2305,1.2305,1.2305,1.2305,1.2305,1.2305,1.2305,1.2305,1.2305,1.2305,1.2305,1.2305,1.2305,1.2305,1.2305,1.2305,1.2305,1.2305,1.2305,1.2305,1.2305,1.2305,1.2305,1.2305,1.2305,1.2171,1.1937,1.1951,1.1915,1.1577,1.1328,1.1196,1.1142,1.0828,1.0601,1.0631,1.0651,1.0618,1.0618,1.0618,1.0624,1.0618,1.0618,1.08,1.1108,1.1476,1.1903,1.1958,1.2258,1.3036,1.3948,1.4796,1.5294,1.5352,1.542,1.542,1.542,1.5576,1.585,1.6172,1.6465,1.6738,0.0,0.0,0.0,0.0,0.0,0.0,0.0,0.0,0.0,0.0,0.0,0.0,0.0907,0.3016,0.6353,0.7972,0.7952,0.8045,0.8038,0.8038,0.8038,0.8038,0.8038,0.8038,0.8038,0.8038,0.8038,0.8038,0.8038,0.8038,0.8038,0.8038,0.8038,0.8038,0.8038,0.8035,0.7984,0.7906,0.7798,0.7724,0.7678,0.7529,0.7428,0.7356,0.7193,0.8159,1.0026,1.0412,1.1123,1.2198,1.2371,1.2311,1.2305,1.2305,1.2305,1.2305,1.2305,1.2305,1.2305,1.2305,1.2305,1.2305,1.2305,1.2305,1.2305,1.2305,1.2305,1.2305,1.2305,1.2305,1.2305,1.2305,1.2305,1.2305,1.2305,1.2305,1.2305,1.2305,1.2245,1.2084,1.2051,1.1912,1.1708,1.1527,1.1289,1.1162,1.1035,1.0802,1.0768,1.0735,1.0715,1.0668,1.0678,1.0665,1.0624,1.0618,1.0618,1.0681,1.08,1.1045,1.1233,1.1772,1.2435,1.3828,1.4864,1.5294,1.542,1.542,1.542,1.542,1.5449,1.582,1.6162,1.6152,1.6387,0.0,0.0,0.0,0.0,0.0,0.0,0.0,0.0,0.0,0.0,0.0,0.0,0.0,0.0,0.4832,0.7059,0.7969,0.7955,0.8041,0.8038,0.8038,0.8038,0.8038,0.8038,0.8038,0.8038,0.8038,0.8038,0.8038,0.8038,0.8038,0.8038,0.8038,0.8038,0.8038,0.8038,0.8035,0.8018,0.8024,0.7953,0.7818,0.7858,0.7819,0.7394,0.7227,0.8111,0.9911,1.0392,1.101,1.2483,1.2418,1.2305,1.2305,1.2305,1.2305,1.2305,1.2305,1.2305,1.2305,1.2305,1.2305,1.2305,1.2305,1.2305,1.2305,1.2305,1.2305,1.2305,1.2305,1.2305,1.2305,1.2305,1.2305,1.2305,1.2305,1.2305,1.2305,1.2305,1.2278,1.2285,1.2298,1.2285,1.2231,1.1977,1.1717,1.1523,1.1403,1.1209,1.1069,1.0989,1.0982,1.0875,1.0715,1.0665,1.0618,1.0618,1.0618,1.0618,1.0618,1.0681,1.0989,1.1593,1.2381,1.3777,1.4746,1.5177,1.542,1.542,1.542,1.542,1.5596,1.5918,1.6084,1.6133,1.6318,0.0,0.0,0.0,0.0,0.0,0.0,0.0,0.0,0.0,0.0,0.0,0.0,0.0,0.0,0.0,0.4121,0.7054,0.7965,0.7952,0.8041,0.8038,0.8038,0.8038,0.8038,0.8038,0.8038,0.8038,0.8038,0.8038,0.8038,0.8038,0.8038,0.8038,0.8038,0.8038,0.8038,0.8038,0.8038,0.8038,0.8024,0.795,0.802,0.7875,0.7529,0.7285,0.8261,1.0404,1.1647,1.2226,1.2315,1.2358,1.2305,1.2305,1.2305,1.2305,1.2305,1.2305,1.2305,1.2305,1.2305,1.2305,1.2305,1.2305,1.2305,1.2305,1.2305,1.2305,1.2305,1.2305,1.2305,1.2305,1.2305,1.2305,1.2305,1.2305,1.2305,1.2305,1.2305,1.2305,1.2305,1.2305,1.2305,1.2251,1.2078,1.185,1.173,1.1597,1.1443,1.1329,1.1182,1.1142,1.0949,1.0782,1.0641,1.0618,1.0618,1.0618,1.0618,1.0618,1.0618,1.1115,1.1787,1.2818,1.4025,1.4628,1.5118,1.5294,1.542,1.542,1.542,1.5723,1.6025,1.6182,1.6279,1.6514,0.0,0.0,0.0,0.0,0.0,0.0,0.0,0.0,0.0,0.0,0.0,0.0,0.0,0.0,0.0,0.0,0.6034,0.7453,0.7952,0.8041,0.8038,0.8038,0.8038,0.8038,0.8038,0.8038,0.8038,0.8038,0.8038,0.8038,0.8038,0.8038,0.8038,0.8038,0.8038,0.8038,0.8038,0.8038,0.8038,0.8038,0.8018,0.8011,0.7861,0.7577,0.7353,0.8155,1.0293,1.1706,1.2363,1.2296,1.2305,1.2305,1.2305,1.2305,1.2305,1.2305,1.2305,1.2305,1.2305,1.2305,1.2305,1.2305,1.2305,1.2305,1.2305,1.2305,1.2305,1.2305,1.2305,1.2305,1.2305,1.2305,1.2305,1.2305,1.2305,1.2305,1.2305,1.2305,1.2305,1.2305,1.2305,1.2305,1.2305,1.2144,1.2011,1.1911,1.1877,1.175,1.1637,1.145,1.1316,1.1202,1.0962,1.0802,1.0675,1.0641,1.0631,1.0618,1.0641,1.0621,1.1101,1.1769,1.2679,1.364,1.4382,1.4991,1.5235,1.542,1.542,1.5527,1.584,1.6143,1.6348,1.6611,1.6826,0.0,0.0,0.0,0.0,0.0,0.0,0.0,0.0,0.0,0.0,0.0,0.0,0.0,0.0,0.0,0.2507,0.4824,0.7141,0.7842,0.8041,0.8038,0.8038,0.8038,0.8038,0.8038,0.8038,0.8038,0.8038,0.8038,0.8038,0.8038,0.8038,0.8038,0.8038,0.8038,0.8038,0.8038,0.8038,0.8038,0.8038,0.8004,0.7949,0.7889,0.7587,0.7661,0.8396,0.9931,1.1126,1.1817,1.2385,1.2325,1.2305,1.2305,1.2305,1.2305,1.2305,1.2305,1.2305,1.2305,1.2305,1.2305,1.2305,1.2305,1.2305,1.2305,1.2305,1.2305,1.2305,1.2305,1.2305,1.2305,1.2305,1.2305,1.2305,1.2305,1.2305,1.2305,1.2305,1.2305,1.2305,1.2305,1.2305,1.2305,1.2285,1.2204,1.2064,1.2051,1.2024,1.1911,1.175,1.169,1.1683,1.1369,1.0982,1.0855,1.0742,1.0628,1.0631,1.0708,1.0806,1.0964,1.16,1.2336,1.3193,1.4382,1.5059,1.5294,1.542,1.5439,1.5693,1.6035,1.6377,1.6689,1.6992,1.7246,0.0,0.0,0.0,0.0,0.0,0.0,0.0,0.0,0.0,0.0,0.0,0.0,0.0,0.0,0.3932,0.667,0.6859,0.7662,0.7959,0.8038,0.8038,0.8038,0.8041,0.8045,0.8038,0.8038,0.8038,0.8038,0.8038,0.8038,0.8038,0.8038,0.8038,0.8038,0.8038,0.8038,0.8038,0.8038,0.8038,0.8038,0.7994,0.8011,0.7858,0.7674,0.8061,0.9026,1.0055,1.105,1.1897,1.2387,1.2452,1.2338,1.2311,1.2305,1.2305,1.2305,1.2305,1.2305,1.2305,1.2305,1.2305,1.2305,1.2305,1.2305,1.2305,1.2305,1.2305,1.2305,1.2305,1.2305,1.2305,1.2305,1.2305,1.2305,1.2305,1.2305,1.2305,1.2305,1.2305,1.2305,1.2305,1.2305,1.2305,1.2305,1.2258,1.2211,1.2225,1.2258,1.2158,1.2017,1.1984,1.1957,1.1673,1.127,1.1002,1.0862,1.0722,1.0708,1.0842,1.1231,1.1386,1.1895,1.2805,1.3726,1.4647,1.5147,1.5381,1.5518,1.5557,1.5889,1.626,1.666,1.7041,1.7353,1.7568,0.0,0.0,0.0,0.0,0.0,0.0,0.0,0.0,0.0,0.0,0.0,0.0,0.0,0.0,0.5361,0.7908,0.7989,0.7969,0.8092,0.8113,0.8089,0.8079,0.8119,0.8075,0.8038,0.8038,0.8038,0.8038,0.8038,0.8038,0.8038,0.8038,0.8038,0.8038,0.8038,0.8038,0.8038,0.8038,0.8038,0.8038,0.8001,0.8,0.7804,0.7473,0.7937,0.874,1.0269,1.0642,1.1635,1.2492,1.2672,1.2432,1.2325,1.2305,1.2305,1.2305,1.2305,1.2305,1.2305,1.2305,1.2305,1.2305,1.2305,1.2305,1.2305,1.2305,1.2305,1.2305,1.2305,1.2305,1.2305,1.2305,1.2305,1.2305,1.2305,1.2305,1.2305,1.2305,1.2305,1.2305,1.2305,1.2305,1.2305,1.2305,1.2298,1.2258,1.2258,1.2285,1.2291,1.2164,1.2144,1.211,1.1864,1.156,1.1249,1.0995,1.0822,1.0889,1.1056,1.1597,1.2076,1.2749,1.352,1.4197,1.4796,1.5219,1.5496,1.5555,1.5869,1.6289,1.6699,1.7051,1.7344,1.7578,1.7754,0.0,0.0,0.0,0.0,0.0,0.0,0.0,0.0,0.0,0.0,0.0,0.0,0.0,0.0,0.4954,0.729,0.7992,0.8106,0.815,0.816,0.813,0.813,0.816,0.8092,0.8038,0.8038,0.8038,0.8038,0.8038,0.8038,0.8038,0.8038,0.8038,0.8038,0.8038,0.8038,0.8038,0.8038,0.8038,0.8038,0.8024,0.798,0.7714,0.7253,0.7292,0.8189,0.9679,1.0373,1.1101,1.2788,1.2902,1.2679,1.2445,1.2311,1.2305,1.2305,1.2305,1.2305,1.2305,1.2305,1.2305,1.2305,1.2305,1.2305,1.2305,1.2305,1.2305,1.2305,1.2305,1.2305,1.2305,1.2305,1.2305,1.2305,1.2305,1.2305,1.2305,1.2305,1.2305,1.2305,1.2305,1.2305,1.2305,1.2305,1.2305,1.2305,1.2305,1.2305,1.2305,1.2298,1.2251,1.2237,1.209,1.1526,1.1095,1.1142,1.0969,1.1136,1.1303,1.1976,1.2658,1.3349,1.4007,1.4187,1.4684,1.5327,1.5843,1.6072,1.6387,1.6714,1.7041,1.7305,1.7549,1.7773,1.79,0.0,0.0,0.0,0.0,0.0,0.0,0.0,0.0,0.0,0.0,0.0,0.0,0.0,0.0,0.3127,0.5851,0.7591,0.814,0.8163,0.8147,0.8147,0.8187,0.8116,0.8075,0.8041,0.8038,0.8038,0.8038,0.8038,0.8038,0.8038,0.8038,0.8038,0.8038,0.8038,0.8038,0.8038,0.8038,0.8038,0.8038,0.8018,0.7919,0.7746,0.7188,0.7085,0.7955,0.9113,0.9904,1.0762,1.2034,1.2795,1.2908,1.2795,1.2478,1.2371,1.2305,1.2305,1.2305,1.2305,1.2305,1.2305,1.2305,1.2305,1.2305,1.2305,1.2305,1.2305,1.2305,1.2305,1.2305,1.2305,1.2305,1.2305,1.2305,1.2305,1.2305,1.2305,1.2305,1.2305,1.2305,1.2305,1.2305,1.2305,1.2305,1.2305,1.2305,1.2305,1.2305,1.2305,1.2305,1.2291,1.2257,1.226,1.1533,1.086,1.1056,1.1176,1.1416,1.1722,1.2311,1.3031,1.3868,1.4387,1.5103,1.556,1.6109,1.648,1.6611,1.6855,1.7197,1.7373,1.7519,1.7715,1.791,1.793,0.0,0.0,0.0,0.0,0.0,0.0,0.0,0.0,0.0,0.0,0.0,0.0,0.0,0.0,0.2828,0.5454,0.7494,0.8116,0.815,0.8153,0.8153,0.8177,0.8123,0.8082,0.8045,0.8038,0.8038,0.8038,0.8038,0.8038,0.8038,0.8038,0.8038,0.8038,0.8038,0.8038,0.8038,0.8038,0.8038,0.8038,0.8024,0.799,0.7594,0.732,0.7329,0.8108,0.9566,1.011,1.1242,1.2554,1.3176,1.3194,1.2955,1.2839,1.2625,1.2398,1.2325,1.2305,1.2305,1.2305,1.2305,1.2305,1.2311,1.2305,1.2305,1.2305,1.2318,1.2305,1.2305,1.2305,1.2305,1.2305,1.2305,1.2305,1.2305,1.2305,1.2305,1.2305,1.2305,1.2305,1.2305,1.2305,1.2305,1.2305,1.2305,1.2305,1.2305,1.2305,1.2305,1.2305,1.2305,1.2291,1.2256,1.1959,1.1323,1.1336,1.1496,1.171,1.2029,1.2629,1.3558,1.4407,1.5601,1.6682,1.7023,1.6899,1.7012,1.707,1.7344,1.7568,1.7686,1.7793,1.791,1.8008,1.8008,0.0,0.0,0.0,0.0,0.0,0.0,0.0,0.0,0.0,0.0,0.0,0.0,0.0,0.0,0.2827,0.5457,0.7889,0.8085,0.815,0.8163,0.815,0.816,0.8157,0.8119,0.8038,0.8038,0.8038,0.8038,0.8038,0.8038,0.8038,0.8038,0.8038,0.8038,0.8038,0.8038,0.8038,0.8038,0.8038,0.8038,0.8004,0.7889,0.7664,0.7338,0.7372,0.8196,0.9411,1.0274,1.1203,1.2457,1.3207,1.3512,1.3267,1.3207,1.3039,1.2674,1.252,1.2371,1.2305,1.2305,1.2305,1.2305,1.2371,1.2398,1.2412,1.2432,1.2385,1.2325,1.2305,1.2305,1.2305,1.2305,1.2305,1.2305,1.2305,1.2305,1.2305,1.2305,1.2305,1.2305,1.2305,1.2305,1.2305,1.2305,1.2305,1.2305,1.2305,1.2305,1.2305,1.2305,1.2291,1.2231,1.2164,1.2138,1.1911,1.1817,1.1931,1.2044,1.2274,1.272,1.3882,1.5026,1.6278,1.7262,1.7407,1.7334,1.7422,1.751,1.7666,1.7812,1.7949,1.8008,1.8008,1.8008,1.8008,0.0,0.0,0.0,0.0,0.0,0.0,0.0,0.0,0.0,0.0,0.0,0.0,0.0,0.0,0.2818,0.5438,0.7394,0.816,0.815,0.8109,0.8157,0.8143,0.8089,0.8058,0.8038,0.8038,0.8038,0.8038,0.8038,0.8038,0.8038,0.8038,0.8038,0.8038,0.8038,0.8038,0.8038,0.8038,0.8038,0.8038,0.8018,0.7896,0.7821,0.7811,0.7633,0.7727,0.8551,0.9666,1.0924,1.1343,1.3146,1.3895,1.394,1.3689,1.3789,1.3574,1.3208,1.2661,1.2392,1.2318,1.2345,1.2398,1.2532,1.2659,1.2699,1.2685,1.2605,1.2318,1.2345,1.2392,1.2425,1.2358,1.2325,1.2338,1.2371,1.2338,1.2318,1.2305,1.2305,1.2305,1.2305,1.2305,1.2305,1.2305,1.2305,1.2305,1.2305,1.2305,1.2305,1.2305,1.2305,1.2258,1.2238,1.2211,1.2191,1.2151,1.2178,1.2291,1.2684,1.2984,1.4244,1.5446,1.6367,1.7192,1.7437,1.7676,1.7734,1.7822,1.793,1.8037,1.8154,1.8105,1.8018,1.8037,1.8184,0.0,0.0,0.0,0.0,0.0,0.0,0.0,0.0,0.0,0.0,0.0,0.0,0.0,0.0,0.2813,0.5432,0.7575,0.8126,0.8109,0.8055,0.8102,0.8102,0.8058,0.8038,0.8038,0.8038,0.8038,0.8038,0.8038,0.8038,0.8038,0.8038,0.8038,0.8038,0.8038,0.8038,0.8038,0.8038,0.8038,0.8038,0.8024,0.797,0.7899,0.8011,0.7701,0.7838,0.8521,0.9684,1.0961,1.1643,1.33,1.4048,1.4115,1.3971,1.3946,1.4019,1.3437,1.2956,1.2605,1.2412,1.2405,1.2532,1.2692,1.2806,1.2946,1.2999,1.2973,1.2846,1.2819,1.2799,1.2792,1.2819,1.2699,1.2632,1.2559,1.2452,1.2405,1.2318,1.2305,1.2305,1.2311,1.2325,1.2325,1.2305,1.2305,1.2305,1.2305,1.2305,1.2305,1.2305,1.2305,1.2298,1.2291,1.2285,1.2278,1.2258,1.2238,1.2445,1.3091,1.3621,1.4704,1.5799,1.6655,1.7295,1.7697,1.792,1.8008,1.8018,1.8018,1.8174,1.8359,1.8418,1.8486,1.8691,1.8789,0.0,0.0,0.0,0.0,0.0,0.0,0.0,0.0,0.0,0.0,0.0,0.0,0.0,0.0,0.3416,0.6342,0.7869,0.7949,0.8041,0.8038,0.8038,0.8045,0.8038,0.8038,0.8038,0.8038,0.8038,0.8038,0.8038,0.8038,0.8038,0.8038,0.8038,0.8038,0.8038,0.8038,0.8038,0.8038,0.8038,0.8038,0.8035,0.8035,0.797,0.7955,0.7798,0.7912,0.8774,0.9605,1.0616,1.1729,1.2857,1.3542,1.3964,1.4119,1.4058,1.4008,1.3575,1.324,1.2913,1.2665,1.2538,1.2679,1.3044,1.3173,1.3394,1.3394,1.3293,1.3233,1.316,1.3166,1.32,1.3173,1.306,1.2926,1.2859,1.2705,1.2592,1.2599,1.2538,1.2498,1.2478,1.2378,1.2365,1.2325,1.2305,1.2305,1.2305,1.2305,1.2305,1.2305,1.2305,1.2305,1.2305,1.2305,1.2305,1.2305,1.2305,1.2592,1.3244,1.4027,1.5021,1.5939,1.6853,1.7432,1.794,1.8008,1.8008,1.8047,1.8086,1.8184,1.8369,1.8848,1.9082,1.9277,1.9297,0.0,0.0,0.0,0.0,0.0,0.0,0.0,0.0,0.0,0.0,0.0,0.0,0.0,0.0,0.4728,0.7469,0.7969,0.7949,0.8041,0.8038,0.8038,0.8038,0.8038,0.8038,0.8038,0.8038,0.8038,0.8038,0.8038,0.8038,0.8038,0.8038,0.8038,0.8038,0.8038,0.8038,0.8038,0.8038,0.8038,0.8038,0.8038,0.8038,0.8024,0.7957,0.7763,0.7681,0.775,0.8727,0.9579,1.0697,1.1986,1.3222,1.3926,1.4095,1.4119,1.4032,1.3714,1.3514,1.3313,1.2859,1.2579,1.2819,1.3213,1.3621,1.3821,1.3714,1.3601,1.352,1.3447,1.334,1.3287,1.3213,1.33,1.3299,1.3245,1.3073,1.2993,1.2999,1.2926,1.2772,1.2652,1.2552,1.2432,1.2392,1.2311,1.2305,1.2305,1.2305,1.2305,1.2305,1.2305,1.2305,1.2305,1.2305,1.2305,1.2305,1.2305,1.2739,1.3382,1.4171,1.5029,1.6018,1.7217,1.7569,1.8008,1.8008,1.8037,1.8144,1.8203,1.8164,1.8428,1.9092,1.9492,1.9668,1.96,0.0,0.0,0.0,0.0,0.0,0.0,0.0,0.0,0.0,0.0,0.0303,0.3131,0.3022,0.2309,0.5329,0.7969,0.7952,0.7945,0.8041,0.8038,0.8038,0.8038,0.8038,0.8038,0.8038,0.8038,0.8038,0.8038,0.8038,0.8038,0.8038,0.8038,0.8038,0.8038,0.8038,0.8038,0.8038,0.8038,0.8038,0.8038,0.8038,0.8038,0.8038,0.8014,0.7753,0.7617,0.7736,0.8458,0.9029,0.9923,1.1295,1.2711,1.3874,1.403,1.4088,1.4062,1.3814,1.3701,1.3621,1.3193,1.3026,1.3293,1.3674,1.3961,1.4082,1.3961,1.3915,1.3841,1.3768,1.3674,1.3741,1.3748,1.3741,1.3743,1.3548,1.34,1.3353,1.3347,1.32,1.2993,1.2839,1.2712,1.2585,1.2458,1.2378,1.2305,1.2305,1.2305,1.2305,1.2305,1.2305,1.2305,1.2305,1.2305,1.2305,1.2305,1.2305,1.2952,1.3593,1.445,1.5446,1.6733,1.7725,1.794,1.8008,1.8008,1.8086,1.8271,1.8408,1.8564,1.8984,1.9561,1.9853,2.0039,1.9971,0.0,0.0,0.0,0.0,0.0,0.0,0.0,0.0,0.0,0.0,0.2625,0.6279,0.616,0.4318,0.5932,0.7959,0.8045,0.8038,0.8038,0.8038,0.8038,0.8038,0.8038,0.8038,0.8038,0.8038,0.8038,0.8038,0.8038,0.8038,0.8038,0.8038,0.8038,0.8038,0.8038,0.8038,0.8038,0.8038,0.8038,0.8038,0.8038,0.8038,0.8038,0.7994,0.7753,0.7614,0.7612,0.8039,0.8476,0.9405,1.0707,1.2466,1.3449,1.4064,1.4095,1.4015,1.3921,1.3781,1.3707,1.3554,1.344,1.3574,1.3861,1.4028,1.4088,1.4088,1.4035,1.4048,1.4055,1.4088,1.4088,1.4015,1.3968,1.389,1.3877,1.3734,1.3661,1.3621,1.3407,1.3193,1.3039,1.2866,1.2545,1.2405,1.2405,1.2331,1.2305,1.2305,1.2305,1.2305,1.2305,1.2305,1.2305,1.2305,1.2305,1.2305,1.2452,1.3455,1.4171,1.4942,1.6009,1.7235,1.7949,1.8008,1.8008,1.8008,1.8184,1.8447,1.8779,1.9102,1.957,2.0059,2.0176,2.0332,2.04,0.0,0.0,0.0,0.0,0.0,0.0,0.0,0.0,0.0,0.3131,0.669,0.7918,0.7902,0.726,0.7766,0.7955,0.8041,0.8038,0.8038,0.8038,0.8038,0.8038,0.8038,0.8038,0.8038,0.8038,0.8038,0.8038,0.8038,0.8038,0.8038,0.8038,0.8038,0.8038,0.8038,0.8038,0.8038,0.8038,0.8038,0.8038,0.8038,0.8038,0.8038,0.7974,0.7784,0.7645,0.767,0.7528,0.7908,0.8769,1.0111,1.1768,1.3212,1.3867,1.4088,1.4068,1.4068,1.4048,1.4035,1.3781,1.3694,1.3714,1.3981,1.4068,1.4088,1.4088,1.4088,1.4088,1.4088,1.4088,1.4088,1.4082,1.4139,1.4119,1.4008,1.3981,1.3895,1.3861,1.3647,1.3387,1.3213,1.3006,1.2599,1.2338,1.2378,1.2358,1.2318,1.2311,1.2325,1.2378,1.2405,1.2351,1.2358,1.2345,1.2345,1.2318,1.2666,1.3745,1.4713,1.5459,1.6316,1.7398,1.788,1.7969,1.8008,1.8008,1.832,1.8672,1.9111,1.957,2.0059,2.0449,2.0547,2.0576,2.0576,0.0,0.0,0.0,0.0,0.0,0.0,0.0,0.0,0.3636,0.6382,0.7711,0.8002,0.7985,0.7972,0.7959,0.7949,0.8041,0.8038,0.8038,0.8038,0.8038,0.8038,0.8038,0.8038,0.8038,0.8038,0.8038,0.8038,0.8038,0.8038,0.8038,0.8038,0.8038,0.8038,0.8038,0.8038,0.8038,0.8038,0.8038,0.8038,0.8038,0.8038,0.8038,0.8031,0.7831,0.7726,0.7692,0.7411,0.7638,0.831,0.9648,1.1063,1.2301,1.2954,1.4088,1.4088,1.4088,1.4088,1.4082,1.3968,1.3948,1.3968,1.4001,1.4088,1.4088,1.4088,1.4088,1.4088,1.4088,1.4088,1.4088,1.4088,1.4075,1.4075,1.4062,1.4062,1.4021,1.4021,1.3901,1.3594,1.3367,1.2973,1.2572,1.2536,1.2589,1.2565,1.2532,1.2432,1.2412,1.2525,1.2579,1.2472,1.2432,1.2412,1.2466,1.2788,1.3221,1.4263,1.5049,1.5779,1.6705,1.7641,1.7938,1.8086,1.8047,1.8037,1.8418,1.8857,1.9531,2.0068,2.0391,2.0566,2.0566,2.0576,2.0576,0.0,0.0,0.0,0.0,0.0,0.0,0.0,0.0,0.5564,0.8019,0.8006,0.7985,0.7969,0.7959,0.7949,0.8038,0.8038,0.8038,0.8038,0.8038,0.8038,0.8038,0.8038,0.8038,0.8038,0.8038,0.8038,0.8038,0.8038,0.8038,0.8038,0.8038,0.8038,0.8038,0.8038,0.8038,0.8038,0.8038,0.8038,0.8038,0.8038,0.8038,0.8038,0.7997,0.7892,0.778,0.7682,0.7622,0.7619,0.8271,0.9411,1.0697,1.1552,1.2681,1.3997,1.4088,1.4088,1.4088,1.4082,1.4082,1.4048,1.4062,1.4088,1.4088,1.4088,1.4088,1.4088,1.4088,1.4088,1.4088,1.4088,1.4088,1.4088,1.4088,1.4088,1.4088,1.4088,1.4082,1.3975,1.3681,1.3454,1.3026,1.2732,1.2822,1.2948,1.2815,1.2759,1.2672,1.2585,1.2652,1.2802,1.2605,1.2662,1.2777,1.3093,1.3609,1.4133,1.4776,1.563,1.6451,1.7042,1.8025,1.8046,1.8135,1.8057,1.8125,1.8535,1.9033,1.96,2.0088,2.0469,2.0566,2.0576,2.0576,2.0576,0.0,0.0,0.0,0.0,0.0,0.0,0.0,0.0909,0.577,0.8009,0.7989,0.7979,0.7959,0.8041,0.8038,0.8038,0.8038,0.8038,0.8038,0.8038,0.8038,0.8038,0.8038,0.8038,0.8038,0.8038,0.8038,0.8038,0.8038,0.8038,0.8038,0.8038,0.8038,0.8038,0.8038,0.8038,0.8038,0.8038,0.8038,0.8038,0.8038,0.8038,0.8038,0.8001,0.7923,0.7818,0.7798,0.7826,0.8189,0.8957,1.0062,1.0966,1.1975,1.3275,1.3815,1.4088,1.4088,1.4088,1.4088,1.4088,1.4088,1.4088,1.4088,1.4088,1.4088,1.4088,1.4088,1.4088,1.4088,1.4088,1.4088,1.4088,1.4088,1.4088,1.4088,1.4088,1.4088,1.4028,1.3915,1.3734,1.3587,1.3313,1.3126,1.3127,1.3213,1.32,1.32,1.3267,1.314,1.2839,1.2859,1.2795,1.2852,1.3152,1.3548,1.4154,1.509,1.5705,1.659,1.7388,1.792,1.8191,1.8329,1.835,1.8105,1.8203,1.8584,1.9043,1.957,2.0019,2.042,2.0576,2.0576,2.0576,2.0576,0.0,0.0,0.0,0.0,0.0,0.4021,0.5667,0.6073,0.7588,0.7982,0.7975,0.7959,0.8045,0.8038,0.8038,0.8038,0.8038,0.8038,0.8038,0.8038,0.8038,0.8038,0.8038,0.8038,0.8038,0.8038,0.8038,0.8035,0.8035,0.8035,0.8035,0.8038,0.8038,0.8038,0.8038,0.8038,0.8038,0.8038,0.8038,0.8038,0.8038,0.8038,0.8038,0.8011,0.7991,0.7902,0.7931,0.8669,0.906,0.9379,1.1185,1.2197,1.1866,1.319,1.4088,1.4088,1.4088,1.4088,1.4088,1.4088,1.4088,1.4088,1.4088,1.4088,1.4088,1.4088,1.4088,1.4088,1.4088,1.4088,1.4088,1.4088,1.4088,1.4088,1.4088,1.4088,1.4088,1.4055,1.3935,1.3801,1.3654,1.3554,1.3394,1.3418,1.355,1.3566,1.3641,1.3707,1.3627,1.3293,1.308,1.2946,1.3042,1.3293,1.4018,1.4645,1.5708,1.668,1.7505,1.8054,1.8151,1.8358,1.8613,1.8535,1.8262,1.834,1.8623,1.9121,1.9668,1.9941,2.0303,2.0449,2.0576,2.0576,2.0576,0.1124,0.2739,0.277,0.232,0.2353,0.6064,0.7942,0.7989,0.7979,0.7975,0.7969,0.7949,0.8038,0.8038,0.8038,0.8038,0.8038,0.8038,0.8038,0.8038,0.8038,0.8038,0.8038,0.8038,0.8038,0.8038,0.8031,0.8021,0.8014,0.8107,0.8107,0.8825,0.8428,0.8038,0.8038,0.8038,0.8038,0.8038,0.8038,0.8038,0.8038,0.8038,0.8038,0.8038,0.8038,0.8014,0.8153,0.9284,0.9824,1.0209,1.2103,1.3021,1.2751,1.3724,1.4088,1.4088,1.4088,1.4088,1.4088,1.4088,1.4088,1.4088,1.4088,1.4088,1.4088,1.4088,1.4088,1.4088,1.4088,1.4088,1.4088,1.4088,1.4088,1.4088,1.4088,1.4088,1.4088,1.4088,1.3981,1.3854,1.3748,1.3661,1.3639,1.3767,1.3782,1.3838,1.3881,1.3921,1.3834,1.3594,1.3407,1.328,1.3355,1.3543,1.4381,1.5534,1.674,1.7759,1.8294,1.873,1.8553,1.8555,1.876,1.8633,1.8389,1.8623,1.8975,1.9307,1.9756,2.0029,2.0264,2.0449,2.0576,2.0576,2.0576,0.273,0.6891,0.7079,0.579,0.4673,0.6746,0.7801,0.7928,0.7908,0.7949,0.7952,0.7952,0.8038,0.8038,0.8038,0.8038,0.8038,0.8038,0.8038,0.8038,0.8038,0.8038,0.8038,0.8038,0.8038,0.8038,0.823,0.8609,0.8357,0.8463,0.9095,0.9805,0.8627,0.8038,0.8038,0.8038,0.8038,0.8038,0.8038,0.8038,0.8038,0.8038,0.8038,0.8237,0.8219,0.8086,0.856,0.9336,1.0409,1.1482,1.2655,1.3835,1.406,1.4143,1.4122,1.4088,1.4088,1.4088,1.4088,1.4088,1.4088,1.4088,1.4088,1.4088,1.4088,1.4088,1.4088,1.4088,1.4088,1.4088,1.4088,1.4088,1.4088,1.4088,1.4088,1.4088,1.4088,1.4088,1.4048,1.3955,1.3935,1.3854,1.3881,1.3984,1.3899,1.4055,1.4055,1.4082,1.4008,1.3808,1.3674,1.3628,1.3874,1.4374,1.5732,1.6909,1.8065,1.8967,1.9312,1.9161,1.8916,1.8867,1.8906,1.8818,1.875,1.9072,1.9404,1.9648,1.9853,2.0127,2.0352,2.0508,2.0576,2.0576,2.0576,0.2798,0.7044,0.7135,0.6789,0.6423,0.719,0.7495,0.7531,0.762,0.7841,0.8011,0.8031,0.8031,0.8021,0.8021,0.8024,0.8038,0.8038,0.8038,0.8038,0.8038,0.8038,0.8038,0.8038,0.8038,0.8333,0.8821,0.9399,0.9276,0.9485,0.9201,0.8623,0.8134,0.8233,0.8233,0.8233,0.8432,0.8528,0.8432,0.8428,0.823,0.8333,0.8435,0.9031,0.9213,0.9395,1.0002,1.1066,1.2004,1.289,1.4173,1.4643,1.4462,1.4269,1.4115,1.4088,1.4115,1.4115,1.4088,1.4088,1.4088,1.4088,1.4088,1.4088,1.4088,1.4088,1.4088,1.4088,1.4088,1.4088,1.4088,1.4088,1.4088,1.4088,1.4088,1.4088,1.4088,1.4088,1.4088,1.4088,1.4088,1.4088,1.4088,1.4088,1.4088,1.4082,1.4082,1.4088,1.4088,1.3961,1.3993,1.4036,1.4581,1.5317,1.6697,1.763,1.8533,1.9391,1.9839,1.9629,1.9219,1.9141,1.9111,1.917,1.9228,1.9482,1.9648,1.9736,1.9961,2.0244,2.04,2.0537,2.0576,2.0576,2.0576,0.4685,0.6979,0.7121,0.7126,0.7224,0.7323,0.7446,0.7503,0.76,0.7689,0.7828,0.7848,0.7879,0.7926,0.794,0.7997,0.8021,0.8038,0.8038,0.8038,0.8038,0.8038,0.8038,0.8038,0.8038,0.8333,0.9505,1.019,0.9998,0.9383,0.8689,0.8817,0.8821,0.892,0.892,0.9312,0.9604,0.9797,0.9604,0.9402,0.9197,0.9205,0.9916,1.0614,1.09,1.0979,1.1361,1.2334,1.3126,1.3738,1.4701,1.512,1.495,1.4696,1.4442,1.4335,1.4282,1.4215,1.4142,1.4095,1.4088,1.4088,1.4088,1.4088,1.4088,1.4088,1.4088,1.4088,1.4088,1.4088,1.4088,1.4088,1.4088,1.4088,1.4088,1.4088,1.4088,1.4088,1.4088,1.4088,1.4088,1.4088,1.4088,1.4088,1.4088,1.4088,1.4088,1.4088,1.4088,1.4088,1.4129,1.4283,1.476,1.5648,1.6943,1.7721,1.8479,1.9334,2.0293,1.9932,1.9521,1.9375,1.9307,1.9551,1.9707,1.9756,1.9902,2.0,2.0127,2.0381,2.0488,2.0566,2.0576,2.0576,2.0576,0.7022,0.7125,0.7101,0.7238,0.7333,0.7343,0.7411,0.7516,0.7533,0.7529,0.7536,0.7539,0.7634,0.7743,0.7918,0.7913,0.798,0.8021,0.8031,0.8038,0.8038,0.8038,0.8038,0.8038,0.8233,0.8726,0.9801,0.9998,0.9998,0.9674,0.9768,0.9993,1.0194,1.0288,1.0583,1.1068,1.1556,1.1258,1.1151,1.123,1.0937,1.0556,1.158,1.2283,1.2673,1.2252,1.2727,1.3108,1.3878,1.445,1.4971,1.52,1.5231,1.499,1.4796,1.4623,1.4476,1.4362,1.4235,1.4128,1.4108,1.4088,1.4088,1.4088,1.4088,1.4088,1.4088,1.4088,1.4088,1.4088,1.4088,1.4088,1.4088,1.4088,1.4088,1.4088,1.4088,1.4088,1.4088,1.4088,1.4088,1.4088,1.4088,1.4088,1.4088,1.4088,1.4088,1.4088,1.4088,1.4166,1.4196,1.4246,1.4455,1.5546,1.7139,1.7865,1.8594,1.9603,2.0371,2.0088,1.9883,1.9834,1.9922,2.0185,2.0303,2.0176,2.0244,2.0371,2.0498,2.0508,2.0537,2.0576,2.0576,2.0576,2.0576,0.7099,0.7094,0.7088,0.7091,0.719,0.7187,0.72,0.7224,0.7238,0.7227,0.7251,0.7261,0.737,0.7648,0.787,0.7952,0.7892,0.7967,0.8024,0.8038,0.8038,0.8038,0.8038,0.8038,0.8726,0.9213,0.9702,0.9899,1.0096,1.0565,1.0658,1.0194,1.1268,1.1556,1.1556,1.2042,1.2328,1.2323,1.2109,1.1895,1.2587,1.2506,1.2732,1.3357,1.3796,1.4136,1.4484,1.4172,1.4657,1.5158,1.5398,1.5471,1.5364,1.5224,1.503,1.4863,1.4716,1.4522,1.4389,1.4188,1.4122,1.4088,1.4088,1.4088,1.4088,1.4088,1.4088,1.4088,1.4088,1.4088,1.4088,1.4088,1.4088,1.4088,1.4088,1.4088,1.4088,1.4088,1.4088,1.4088,1.4088,1.4088,1.4088,1.4088,1.4088,1.4088,1.4088,1.4088,1.4088,1.4166,1.425,1.4334,1.4412,1.6206,1.8052,1.8132,1.8771,1.9875,2.0488,2.0322,2.0273,2.04,2.0595,2.0527,2.0537,2.0449,2.0557,2.0576,2.0566,2.0547,2.0557,2.0576,2.0576,2.0576,2.0576]}]]